[[{"header":{"parameterUnit":"m.s-1","parameterCategory":1,"la1":30.6,"la2":28.766,"lo1":-90.7593,"lo2":-88.6598,"dy":0.0162,"dx":0.0183,"nx":116,"ny":114,"refTime":"2023-05-14T06:00:00:Z","depth":0,"parameterNumber":2,"parameterNumberName":"U-component_of_WINDS"},"data":[0.0,0.0,0.0,0.0,0.0,0.0,0.0,0.0,0.0,0.0,0.0,0.0,0.0,0.0,0.0,0.0,0.0,0.0,0.0,0.0,0.0,0.0,0.0,0.0,0.0,0.0,0.0,0.0,0.0,0.0,0.0,0.0,0.0,0.0,0.0,0.0,0.0,0.0,0.0,0.0,0.0,0.0,0.0,0.0,0.0,0.0,0.0,0.0,0.0,0.0,0.0,0.0,0.0,0.0,0.0,0.0,0.0,0.0,0.0,0.0,0.0,0.0,0.0,0.0,0.0,0.0,0.0,0.0,0.0,0.0,0.0,0.0,0.0,0.0,0.0,0.0,0.0,0.0,0.0,0.0,0.0,0.0,0.0,0.0,0.0,0.0,0.0,0.0,0.0,0.0,0.0,0.0,0.0,0.0,0.0,0.0,0.0,0.0,0.0,0.0,0.0,0.0,0.0,0.0,0.0,0.0,0.0,0.0,0.0,0.0,0.0,0.0,0.0,0.0,0.0,0.0,0.0,0.0,0.0,0.0,0.0,0.0,0.0,0.0,0.0,0.0,0.0,0.0,0.0,0.0,0.0,0.0,0.0,0.0,0.0,0.0,0.0,0.0,0.0,0.0,0.0,0.0,0.0,0.0,0.0,0.0,0.0,0.0,0.0,0.0,0.0,0.0,0.0,0.0,0.0,0.0,0.0,0.0,0.0,0.0,0.0,0.0,0.0,0.0,0.0,0.0,0.0,0.0,0.0,0.0,0.0,0.0,0.0,0.0,0.0,0.0,0.0,0.0,0.0,0.0,0.0,0.0,0.0,0.0,0.0,0.0,0.0,0.0,0.0,0.0,0.0,0.0,0.0,0.0,0.0,0.0,0.0,0.0,0.0,0.0,0.0,0.0,0.0,0.0,0.0,0.0,0.0,0.0,0.0,0.0,0.0,0.0,0.0,0.0,0.0,0.0,0.0,0.0,0.0,0.0,0.0,0.0,0.0,0.0,0.0,0.0,0.0,0.0,0.0,0.0,0.0,0.0,0.0,0.0,0.0,0.0,0.0,0.0,0.0,0.0,0.0,0.0,0.0,0.0,0.0,0.0,0.0,0.0,0.0,0.0,0.0,0.0,0.0,0.0,0.0,0.0,0.0,0.0,0.0,0.0,0.0,0.0,0.0,0.0,0.0,0.0,0.0,0.0,0.0,0.0,0.0,0.0,0.0,0.0,0.0,0.0,0.0,0.0,0.0,0.0,0.0,0.0,0.0,0.0,0.0,0.0,0.0,0.0,0.0,0.0,0.0,0.0,0.0,0.0,0.0,0.0,0.0,0.0,0.0,0.0,0.0,0.0,0.0,0.0,0.0,0.0,0.0,0.0,0.0,0.0,0.0,0.0,0.0,0.0,0.0,0.0,0.0,0.0,0.0,0.0,0.0,0.0,0.0,0.0,0.0,0.0,0.0,0.0,0.0,0.0,0.0,0.0,0.0,0.0,0.0,0.0,0.0,0.0,0.0,0.0,0.0,0.0,0.0,0.0,0.0,0.0,0.0,0.0,0.0,0.0,0.0,0.0,0.0,0.0,0.0,0.0,0.0,0.0,0.0,0.0,0.0,0.0,0.0,0.0,0.0,0.0,0.0,0.0,0.0,0.0,0.0,0.0,0.0,0.0,0.0,0.0,0.0,0.0,0.0,0.0,0.0,0.0,0.0,0.0,0.0,0.0,0.0,0.0,0.0,0.0,0.0,0.0,0.0,0.0,0.0,0.0,0.0,0.0,0.0,0.0,0.0,0.0,0.0,0.0,0.0,0.0,0.0,0.0,0.0,0.0,0.0,0.0,0.0,0.0,0.0,0.0,0.0,0.0,0.0,0.0,0.0,0.0,0.0,0.0,0.0,0.0,0.0,0.0,0.0,0.0,0.0,0.0,0.0,0.0,0.0,0.0,0.0,0.0,0.0,0.0,0.0,0.0,0.0,0.0,0.0,0.0,0.0,0.0,0.0,0.0,0.0,0.0,0.0,0.0,0.0,0.0,0.0,0.0,0.0,0.0,0.0,0.0,0.0,0.0,0.0,0.0,0.0,0.0,0.0,0.0,0.0,0.0,0.0,0.0,0.0,0.0,0.0,0.0,0.0,0.0,0.0,0.0,0.0,0.0,0.0,0.0,0.0,0.0,0.0,0.0,0.0,0.0,0.0,0.0,0.0,0.0,0.0,0.0,0.0,0.0,0.0,0.0,0.0,0.0,0.0,0.0,0.0,0.0,0.0,0.0,0.0,0.0,0.0,0.0,0.0,0.0,0.0,0.0,0.0,0.0,0.0,0.0,0.0,0.0,0.0,0.0,0.0,0.0,0.0,0.0,0.0,0.0,0.0,0.0,0.0,0.0,0.0,0.0,0.0,0.0,0.0,0.0,0.0,0.0,0.0,0.0,0.0,0.0,0.0,0.0,0.0,0.0,0.0,0.0,0.0,0.0,0.0,0.0,0.0,0.0,0.0,0.0,0.0,0.0,0.0,0.0,0.0,0.0,0.0,0.0,0.0,0.0,0.0,0.0,0.0,0.0,0.0,0.0,0.0,0.0,0.0,0.0,0.0,0.0,0.0,0.0,0.0,0.0,0.0,0.0,0.0,0.0,0.0,0.0,0.0,0.0,0.0,0.0,0.0,0.0,0.0,0.0,0.0,0.0,0.0,0.0,0.0,0.0,0.0,0.0,0.0,0.0,0.0,0.0,0.0,0.0,0.0,0.0,0.0,0.0,0.0,0.0,0.0,0.0,0.0,0.0,0.0,0.0,0.0,0.0,0.0,0.0,0.0,0.0,0.0,0.0,0.0,0.0,0.0,0.0,0.0,0.0,0.0,0.0,0.0,0.0,0.0,0.0,0.0,0.0,0.0,0.0,0.0,0.0,0.0,0.0,0.0,0.0,0.0,0.0,0.0,0.0,0.0,0.0,0.0,0.0,0.0,0.0,0.0,0.0,0.0,0.0,0.0,0.0,0.0,0.0,0.0,0.0,0.0,0.0,0.0,0.0,0.0,0.0,0.0,0.0,0.0,0.0,0.0,0.0,0.0,0.0,0.0,0.0,0.0,0.0,0.0,0.0,0.0,0.0,0.0,0.0,0.0,0.0,0.0,0.0,0.0,0.0,0.0,0.0,0.0,0.0,0.0,0.0,0.0,0.0,0.0,0.0,0.0,0.0,0.0,0.0,0.0,0.0,0.0,0.0,0.0,0.0,0.0,0.0,0.0,0.0,0.0,0.0,0.0,0.0,0.0,0.0,0.0,0.0,0.0,0.0,0.0,0.0,0.0,0.0,0.0,0.0,0.0,0.0,0.0,0.0,0.0,0.0,0.0,0.0,0.0,0.0,0.0,0.0,0.0,0.0,0.0,0.0,0.0,0.0,0.0,0.0,0.0,0.0,0.0,0.0,0.0,0.0,0.0,0.0,0.0,0.0,0.0,0.0,0.0,0.0,0.0,0.0,0.0,0.0,0.0,0.0,0.0,0.0,0.0,0.0,0.0,0.0,0.0,0.0,0.0,0.0,0.0,0.0,0.0,0.0,0.0,0.0,0.0,0.0,0.0,0.0,0.0,0.0,0.0,0.0,0.0,0.0,0.0,0.0,0.0,0.0,0.0,0.0,0.0,0.0,0.0,0.0,0.0,0.0,0.0,0.0,0.0,0.0,0.0,0.0,0.0,0.0,0.0,0.0,0.0,0.0,0.0,0.0,0.0,0.0,0.0,0.0,0.0,0.0,0.0,0.0,0.0,0.0,0.0,0.0,0.0,0.0,0.0,0.0,0.0,0.0,0.0,0.0,0.0,0.0,0.0,0.0,0.0,0.0,0.0,0.0,0.0,0.0,0.0,0.0,0.0,0.0,0.0,0.0,0.0,0.0,0.0,0.0,0.0,0.0,0.0,0.0,0.0,0.0,0.0,0.0,0.0,0.0,0.0,0.0,0.0,0.0,0.0,0.0,0.0,0.0,0.0,0.0,0.0,0.0,0.0,0.0,0.0,0.0,0.0,0.0,0.0,0.0,0.0,0.0,0.0,0.0,0.0,0.0,0.0,0.0,0.0,0.0,0.0,0.0,0.0,0.0,0.0,0.0,0.0,0.0,0.0,0.0,0.0,0.0,0.0,0.0,0.0,0.0,0.0,0.0,0.0,0.0,0.0,0.0,0.0,0.0,0.0,0.0,0.0,0.0,0.0,0.0,0.0,0.0,0.0,0.0,0.0,0.0,0.0,0.0,0.0,0.0,0.0,0.0,0.0,0.0,0.0,0.0,0.0,0.0,0.0,0.0,0.0,0.0,0.0,0.0,0.0,0.0,0.0,0.0,0.0,0.0,0.0,0.0,0.0,0.0,0.0,0.0,0.0,0.0,0.0,0.0,0.0,0.0,0.0,0.0,0.0,0.0,0.0,0.0,0.0,0.0,0.0,0.0,0.0,0.0,0.0,0.0,0.0,0.0,0.0,0.0,0.0,0.0,0.0,0.0,0.0,0.0,0.0,0.0,0.0,0.0,0.0,0.0,0.0,0.0,0.0,0.0,0.0,0.0,0.0,0.0,0.0,0.0,0.0,0.0,0.0,0.0,0.0,0.0,0.0,0.0,0.0,0.0,0.0,0.0,0.0,0.0,0.0,0.0,0.0,0.0,0.0,0.0,0.0,0.0,0.0,0.0,0.0,0.0,0.0,0.0,0.0,0.0,0.0,0.0,0.0,0.0,0.0,0.0,0.0,0.0,0.0,0.0,0.0,0.0,0.0,0.0,0.0,0.0,0.0,0.0,0.0,0.0,0.0,0.0,0.0,0.0,0.0,0.0,0.0,0.0,0.0,0.0,0.0,0.0,0.0,0.0,0.0,0.0,0.0,0.0,0.0,0.0,0.0,0.0,0.0,0.0,0.0,0.0,0.0,0.0,0.0,0.0,0.0,0.0,0.0,0.0,0.0,0.0,0.0,0.0,0.0,0.0,0.0,0.0,0.0,0.0,0.0,0.0,0.0,0.0,0.0,0.0,0.0,0.0,0.0,0.0,0.0,0.0,0.0,0.0,0.0,0.0,0.0,0.0,0.0,0.0,0.0,0.0,0.0,0.0,0.0,0.0,0.0,0.0,0.0,0.0,0.0,0.0,0.0,0.0,0.0,0.0,0.0,0.0,0.0,0.0,0.0,0.0,0.0,0.0,0.0,0.0,0.0,0.0,0.0,0.0,0.0,0.0,0.0,0.0,0.0,0.0,0.0,0.0,0.0,0.0,0.0,0.0,0.0,0.0,0.0,0.0,0.0,0.0,0.0,0.0,0.0,0.0,0.0,0.0,0.0,0.0,0.0,0.0,0.0,0.0,0.0,0.0,0.0,0.0,0.0,0.0,0.0,0.0,0.0,0.0,0.0,0.0,0.0,0.0,0.0,0.0,0.0,0.0,0.0,0.0,0.0,0.0,0.0,0.0,0.0,0.0,0.0,0.0,0.0,0.0,0.0,0.0,0.0,0.0,0.0,0.0,0.0,0.0,0.0,0.0,0.0,0.0,0.0,0.0,0.0,0.0,0.0,0.0,0.0,0.0,0.0,0.0,0.0,0.0,0.0,0.0,0.0,0.0,0.0,0.0,0.0,0.0,0.0,0.0,0.0,0.0,0.0,0.0,0.0,0.0,0.0,0.0,0.0,0.0,0.0,0.0,0.0,0.0,0.0,0.0,0.0,0.0,0.0,0.0,0.0,0.0,0.0,0.0,0.0,0.0,0.0,0.0,0.0,0.0,0.0,0.0,0.0,0.0,0.0,0.0,0.0,0.0,0.0,0.0,0.0,0.0,0.0,0.0,0.0,0.0,0.0,0.0,0.0,0.0,0.0,0.0,0.0,0.0,0.0,0.0,0.0,0.0,0.0,0.0,0.0,0.0,0.0,0.0,0.0,0.0,0.0,0.0,0.0,0.0,0.0,0.0,0.0,0.0,0.0,0.0,0.0,0.0,0.0,0.0,0.0,0.0,0.0,0.0,0.0,0.0,0.0,0.0,0.0,0.0,0.0,0.0,0.0,0.0,0.0,0.0,0.0,0.0,0.0,0.0,0.0,0.0,0.0,0.0,0.0,0.0,0.0,0.0,0.0,0.0,0.3993,0.0,0.0,0.0,0.0,0.0,0.0,0.0,0.0,0.0,0.0,0.0,0.0,0.0,0.0,0.0,0.0,0.0,0.0,0.0,0.0,0.0,0.0,0.0,0.0,0.0,0.0,0.0,0.0,0.0,0.0,0.0,0.0,0.0,0.0,0.0,0.0,0.0,0.0,0.0,0.0,0.0,0.0,0.0,0.0,0.0,0.0,0.0,0.0,0.0,0.0,0.0,0.0,0.0,0.0,0.0,0.0,0.0,0.0,0.0,0.0,0.0,0.0,0.0,0.0,0.0,0.0,0.0,0.0,0.0,0.0,0.0,0.0,0.0,0.0,0.0,0.0,0.0,0.0,0.0,0.0,0.0,0.0,0.0,0.0,0.0,0.0,0.0,0.0,0.0,0.0,0.0,0.0,0.0,0.0,0.0,0.0,0.0,0.0,0.0,0.0,0.0,0.0,0.0,0.0,0.0,0.0,0.0,0.0,0.0,0.0,0.0,0.0,0.0,0.0,0.0,0.0,0.3897,0.0,0.0,0.0,0.0,0.0,0.0,0.0,0.0,0.0,0.0,0.0,0.0,0.0,0.0,0.0,0.0,0.0,0.0,0.0,0.0,0.0,0.0,0.0,0.0,0.0,0.0,0.0,0.0,0.0,0.0,0.0,0.0,0.0,0.0,0.0,0.0,0.0,0.0,0.0,0.0,0.0,0.0,0.0,0.0,0.0,0.0,0.0,0.0,0.0,0.0,0.0,0.0,0.0,0.0,0.0,0.0,0.0,0.0,0.0,0.0,0.0,0.0,0.0,0.0,0.0,0.0,0.0,0.0,0.0,0.0,0.0,0.0,0.0,0.0,0.0,0.0,0.0,0.0,0.0,0.0,0.0,0.0,0.0,0.0,0.0,0.0,0.0,0.0,0.0,0.0,0.0,0.0,0.0,0.0,0.0,0.0,0.0,0.0,0.0,0.0,0.0,0.0,0.0,0.0,0.0,0.0,0.0,0.0,0.6284,0.634,0.6443,0.6116,0.5802,0.5518,0.49,0.4527,0.4329,0.3761,0.0,0.0,0.0,0.0,0.0,0.0,0.0,0.0,0.0,0.0,0.0,0.0,0.0,0.0,0.0,0.0,0.0,0.0,0.0,0.0,0.0,0.0,0.0,0.0,0.0,0.0,0.0,0.0,0.0,0.0,0.0,0.0,0.0,0.0,0.0,0.0,0.0,0.0,1.2232,1.2434,1.1903,1.0745,1.0051,0.0,0.0,0.0,0.0,0.0,0.0,0.0,0.0,0.0,0.0,0.0,0.0,0.0,0.0,0.0,0.0,0.0,0.0,0.0,0.0,0.0,0.0,0.0,0.0,0.0,0.0,0.0,0.0,0.0,0.0,0.0,0.0,0.0,0.0,0.0,0.0,0.0,0.0,0.0,0.0,0.0,0.0,0.0,0.6075,0.6075,0.0,0.0,0.0,0.0,0.0,0.0,0.0,0.0,0.0,0.0,0.0,0.0,0.0,0.513,0.502,0.5357,0.5979,0.6901,0.6449,0.6215,0.6238,0.6204,0.6131,0.6086,0.6008,0.0,0.4236,0.3238,0.0,0.0,0.0,0.0,0.0,0.0,0.0,0.0,0.0,0.0,0.0,0.0,0.0,0.0,0.0,0.0,0.0,0.0,0.0,0.0,0.0,0.0,0.0,0.0,0.0,0.0,0.0,0.0,0.0,0.0,0.0,0.0,0.0,0.0,0.0,0.0,0.7425,0.8554,1.0576,1.1667,1.1662,1.0769,1.1084,1.0865,1.0242,0.956,0.0,0.0,0.0,0.0,0.0,0.0,0.0,0.0,0.0,0.0,0.0,0.0,0.0,0.0,0.0,0.0,0.0,0.0,0.0,0.0,0.0,0.0,0.0,0.0,0.0,0.0,0.0,0.0,0.0,0.0,0.0,0.0,0.0,0.0,0.0,0.0,0.0,0.0,0.0,0.6062,0.6117,0.5753,0.5862,0.578,0.0,0.0,0.0,0.0,0.0,0.0,0.0,0.0,0.0,0.495,0.5499,0.5961,0.6259,0.6259,0.6854,0.8016,0.7435,0.7154,0.7154,0.7154,0.7154,0.7134,0.6794,0.6064,0.503,0.3377,0.3022,0.3471,0.0,0.0,0.0,0.0,0.2209,0.0037,0.0,0.0,0.0,0.0,0.0,0.0,0.0,0.0,0.0,0.0,0.0,0.0,0.0,0.0,0.0,0.5261,0.0,0.0,0.0,0.0,0.0,0.0,0.0,0.0,0.0,0.0,0.0,0.0,0.8422,0.8604,0.9575,1.0777,1.1045,1.0564,1.1464,1.157,1.0986,1.0162,0.9573,0.0,0.0,0.0,0.0,0.0,0.0,0.0,0.0,0.0,0.0,0.0,0.0,0.0,0.0,0.0,0.0,0.0,0.0,0.0,0.0,0.0,0.0,0.0,0.0,0.0,0.0,0.0,0.0,0.0,0.0,0.0,0.0,0.0,0.0,0.0,0.0,0.0,0.0,0.61,0.6145,0.5578,0.5999,0.6034,0.0,0.0,0.0,0.0,0.0,0.0,0.5187,0.476,0.4568,0.4608,0.536,0.5933,0.6361,0.6373,0.6798,0.7711,0.7228,0.7049,0.7049,0.78,0.7751,0.7025,0.6538,0.6023,0.5331,0.3701,0.3066,0.3177,0.3272,0.3278,0.3172,0.2905,0.166,-0.0165,0.0,0.0,0.0,0.0,0.0,0.0,0.0,0.0,0.0,0.0,0.0,0.0,0.0,0.0,0.5237,0.5311,0.529,0.5555,0.0,0.0,0.0,0.0,0.0,0.0,0.0,0.0,0.0,0.8987,0.9772,1.073,1.1799,1.1003,1.104,1.1688,1.1384,1.1172,1.1053,1.0577,1.033,1.0147,0.0,0.0,0.0,0.0,0.0,0.0,0.0,0.0,0.0,0.0,0.0,0.0,0.0,0.0,0.0,0.0,0.0,0.0,0.0,0.0,0.0,0.0,0.0,0.0,0.0,0.0,0.0,0.0,0.0,0.0,0.0,0.0,0.0,0.0,0.0,0.0,0.0,0.0,0.0,0.6179,0.6404,0.0,0.0,0.0,0.0,0.5572,0.552,0.5601,0.5922,0.5262,0.4751,0.444,0.4461,0.453,0.4624,0.4634,0.4648,0.4736,0.4663,0.4656,0.4765,0.7517,0.7245,0.4656,0.4638,0.4615,0.4532,0.4104,0.3792,0.3578,0.3451,0.3857,0.4122,0.0832,0.167,0.366,0.0,0.0,0.0,0.0,0.0,0.0,0.0,0.0,0.0,0.0,0.0,0.0,0.0,0.5286,0.5289,0.53,0.5956,0.6159,0.565,0.0,0.0,0.0,0.0,0.0,0.0,0.0,0.8602,0.9392,0.9648,0.9925,1.0137,1.0227,1.0507,1.0905,1.1101,1.1417,1.1797,1.1389,1.0748,0.9896,0.9161,0.8476,0.0,0.0,0.0,0.0,0.0,0.0,0.0,0.0,0.0,0.0,0.0,0.0,0.0,0.0,0.0,0.0,0.0,0.0,0.0,0.0,0.0,0.0,0.0,0.0,0.0,0.0,0.0,0.0,0.0,0.0,0.0,0.0,0.0,0.0,0.0,0.0,0.0,0.646,0.6902,0.0,0.6395,0.6073,0.5877,0.5844,0.5191,0.4866,0.4979,0.4548,0.4281,0.4138,0.4122,0.4135,0.4175,0.4368,0.4519,0.4519,0.4519,0.4519,0.4519,0.555,0.5496,0.4519,0.4519,0.448,0.4501,0.4375,0.4247,0.4186,0.4129,0.297,0.1207,-0.0,-0.0789,-0.1497,0.0,0.0,0.0,0.0,0.0,0.0,0.0,0.0,0.0,0.0,0.0,0.4279,0.5215,0.565,0.5873,0.5879,0.6557,0.6527,0.5377,0.0,0.0,0.0,0.0,0.0,0.0,0.7646,0.8231,0.9358,0.9381,0.9393,0.9485,0.9701,0.9935,1.0221,1.0564,1.0884,1.1181,1.1202,1.0892,1.0328,0.967,0.9085,0.849,0.0,0.0,0.0,0.0,0.0,0.0,0.0,0.0,0.0,0.0,0.0,0.0,0.0,0.0,0.0,0.0,0.0,0.0,0.0,0.0,0.0,0.0,0.0,0.0,0.0,0.0,0.0,0.0,0.0,0.0,0.0,0.0,0.0,0.0,0.0,0.6594,0.6416,0.6899,0.7,0.6367,0.5978,0.5798,0.5924,0.5128,0.4694,0.4755,0.4365,0.4168,0.4168,0.4168,0.4168,0.4168,0.4365,0.4519,0.4519,0.4519,0.4519,0.4519,0.4519,0.4522,0.4473,0.4473,0.4487,0.4337,0.2291,0.1481,0.155,0.257,0.1654,-0.0372,-0.1383,-0.2934,-0.4473,0.0,0.0,0.0,0.0,0.0,0.0,0.0,0.0,0.0,0.0,0.4431,0.53,0.5293,0.6331,0.697,0.6966,0.6939,0.6446,0.5277,0.3056,0.0,0.0,0.0,0.0,0.7279,0.7395,0.7949,0.8925,0.9063,0.951,1.014,0.9524,0.9457,0.9814,0.9814,0.9591,0.9301,0.9922,1.0741,1.1509,0.9715,0.9694,1.0548,0.0,0.0,0.0,0.0,0.0,0.0,0.0,0.0,0.0,0.0,0.0,0.0,0.0,0.0,0.0,0.0,0.0,0.0,0.0,0.0,0.0,0.0,0.0,0.0,0.0,0.0,0.0,0.0,0.0,0.0,0.0,0.0,0.0,0.5987,0.6502,0.6562,0.6053,0.6458,0.6332,0.5081,0.5174,0.5419,0.5775,0.5327,0.5198,0.5479,0.4838,0.4519,0.4519,0.4519,0.4519,0.4519,0.4519,0.4519,0.4519,0.4519,0.4519,0.4519,0.4519,0.4473,0.4497,0.4497,0.4452,0.3896,-0.1961,-0.4399,-0.4225,-0.1227,-0.0111,-0.05,-0.3403,-0.4539,-0.4546,0.0,0.0,0.0,0.0,0.0,0.0,0.0,0.0,0.0,0.0,0.4413,0.5287,0.529,0.6309,0.6672,0.5836,0.5766,0.4899,0.2896,0.0,0.0,0.0,0.0,0.0,0.7721,0.8233,0.8781,0.9329,0.9717,0.9763,0.9475,0.976,0.9891,0.9814,0.9814,1.001,1.0322,1.0027,1.0164,1.0486,0.9164,0.8634,0.8544,0.0,0.0,0.0,0.0,0.0,0.0,0.0,0.0,0.0,0.0,0.0,0.0,0.0,0.0,0.0,0.0,0.0,0.0,0.0,0.0,0.0,0.0,0.0,0.0,0.0,0.0,0.0,0.0,0.0,0.0,0.0,0.0,0.4738,0.5207,0.5743,0.6102,0.6152,0.6432,0.6509,0.6181,0.5699,0.5488,0.5597,0.5015,0.4685,0.4787,0.4625,0.4519,0.4519,0.4519,0.4519,0.4519,0.4519,0.4519,0.4519,0.4519,0.4519,0.4519,0.4519,0.4473,0.4497,0.4487,0.3241,0.1115,-0.0557,-0.2516,-0.433,-0.2345,-0.2284,-0.3347,-0.4196,-0.4912,-0.5664,0.0,0.0,0.0,0.0,0.0,0.0,0.0,0.0,0.0,0.0,0.3914,0.4477,0.5221,0.5902,0.6017,0.5371,0.4843,0.3761,0.1914,0.0,0.0,0.0,0.0,0.6976,0.7873,0.8289,0.874,0.9197,0.9354,0.9147,0.8575,0.9278,0.938,0.8928,0.9249,0.9614,0.9909,0.9562,0.946,0.957,0.8767,0.861,0.8725,0.7938,0.7852,0.8065,0.7664,0.7409,0.7258,0.6898,0.0,0.0,0.0,0.0,0.0,0.0,0.0,0.0,0.0,0.0,0.0,0.0,0.0,0.0,0.0,0.0,0.0,0.0,0.0,0.0,0.0,0.0,0.0,0.0,0.4576,0.4657,0.4706,0.5461,0.593,0.5934,0.607,0.6041,0.5769,0.5332,0.5058,0.5058,0.4732,0.4519,0.4519,0.4519,0.4519,0.4519,0.4519,0.4519,0.4519,0.4519,0.4519,0.4519,0.4519,0.4519,0.4525,0.4473,0.4487,0.4445,0.3183,0.089,-0.1898,-0.1893,-0.2901,0.0,0.0,0.0,0.0,0.0,-0.566,-0.6789,0.0,0.0,0.0,0.0,0.0,0.0,0.0,0.0,0.0,0.0,0.0,0.3303,0.4848,0.5071,0.5125,0.5164,0.409,0.2994,0.0,0.0,0.0,0.5201,0.6047,0.6875,0.7711,0.7714,0.8028,0.854,0.8339,0.7978,0.7616,0.8262,0.8209,0.7616,0.8262,0.8553,0.8579,0.8579,0.8598,0.8611,0.8359,0.8934,0.9883,0.8648,0.859,0.9141,0.8304,0.7795,0.756,0.7373,0.0,0.0,0.0,0.0,0.0,0.0,0.0,0.0,0.0,0.0,0.0,0.0,0.0,0.0,0.0,0.0,0.0,0.0,0.0,0.0,0.0,0.0,0.0,0.0,0.4395,0.4549,0.4567,0.5395,0.5852,0.5416,0.5378,0.5164,0.457,0.4519,0.4519,0.4519,0.4519,0.4519,0.4519,0.0,0.0,0.0,0.0,0.4519,0.4519,0.4519,0.4519,0.4522,0.4519,0.4525,0.448,0.432,0.4157,0.3825,0.117,-0.1729,-0.4507,-0.4487,-0.4532,-0.4639,-0.4639,-0.4639,-0.4695,-0.5441,-0.6627,-0.7925,0.0,0.0,0.0,0.0,0.0,0.0,0.0,0.0,0.0,0.2863,0.2896,0.2966,0.3175,0.3572,0.3992,0.4292,0.3418,0.2834,0.0,0.0,0.4249,0.4698,0.5345,0.5971,0.6521,0.6728,0.6929,0.702,0.6977,0.6924,0.6804,0.6966,0.6966,0.6804,0.6966,0.7122,0.7293,0.7293,0.7348,0.7401,0.7359,0.7888,0.8721,0.862,0.8414,0.8242,0.845,0.8299,0.7829,0.6712,0.673,0.6848,0.4951,0.0,0.0,0.0,0.0,0.0,0.0,0.0,0.0,0.0,0.0,0.0,0.0,0.0,0.0,0.0,0.0,0.0,0.0,0.0,0.0,0.4389,0.4548,0.4691,0.4813,0.493,0.49,0.4691,0.4677,0.4625,0.4519,0.4519,0.4519,0.4519,0.4519,0.4519,0.4519,0.4519,0.4522,0.4477,0.4522,0.4519,0.4519,0.4519,0.4525,0.449,0.0,0.0,0.4435,0.3186,0.2007,0.0835,0.0278,-0.1726,-0.4487,-0.448,-0.4798,-0.5332,-0.5332,-0.5332,-0.5492,-0.6799,-0.7806,-0.8633,0.0,0.0,0.0,0.0,0.0,0.0,0.0,0.0,0.0,0.0,0.2775,0.3117,0.3916,0.3474,0.3048,0.2962,0.2649,0.0,0.0,0.3723,0.4304,0.5032,0.5579,0.6022,0.6408,0.6528,0.6588,0.6588,0.6588,0.6421,0.6036,0.6421,0.6421,0.6091,0.6421,0.6709,0.6904,0.6904,0.6977,0.7121,0.7121,0.7333,0.7778,0.7763,0.7616,0.7402,0.7568,0.7436,0.7031,0.6376,0.6351,0.6363,0.4927,0.4613,0.4595,0.0,0.0,0.0,0.0,0.0,0.0,0.0,0.0,0.0,0.0,0.0,0.0,0.0,0.0,0.3734,0.0,0.0,0.419,0.4592,0.471,0.4813,0.4874,0.4999,0.491,0.4663,0.4567,0.4519,0.4519,0.4522,0.4525,0.4525,0.4477,0.448,0.448,0.448,0.4518,0.4485,0.3775,0.3713,0.4475,0.4518,0.4484,0.4497,0.3694,0.3752,0.4448,0.3705,0.1283,-0.2235,-0.2232,-0.3125,-0.4532,-0.4853,-0.5391,-0.6091,-0.647,-0.6573,-0.6735,-0.78,-0.8646,-0.9377,0.0,0.0,0.0,0.0,0.0,0.0,0.0,0.0,0.0,0.0,0.2309,0.2798,0.4125,0.3151,0.2208,0.0,0.0,0.0,0.0,0.3743,0.4377,0.525,0.5616,0.5934,0.6204,0.6209,0.6209,0.6209,0.6209,0.5878,0.5328,0.5932,0.5873,0.5328,0.5973,0.6323,0.6515,0.6552,0.6634,0.6763,0.6763,0.6763,0.6736,0.655,0.6659,0.6884,0.6714,0.6443,0.6187,0.6118,0.5981,0.5746,0.4914,0.4583,0.4239,0.3051,0.2775,0.0,0.0,0.0,0.0,0.0,0.0,0.0,0.0,0.0,0.3004,0.3701,0.3863,0.3939,0.4267,0.4213,0.4131,0.4244,0.4405,0.4458,0.4478,0.4709,0.4721,0.4349,0.4428,0.4501,0.4473,0.4504,0.4399,0.4086,0.4061,0.4067,0.4039,0.4039,0.4207,0.45,0.3004,0.2659,0.3614,0.3922,0.4212,0.4501,0.3246,0.2685,0.2747,0.2747,0.0112,-0.4507,-0.4494,-0.4595,-0.4746,-0.5441,-0.6145,-0.6912,-0.7616,-0.799,-0.8137,-0.8593,-0.9273,-1.0167,0.0,0.0,0.0,0.0,0.0,0.0,0.0,0.0,0.0,0.0,0.0,0.0,0.0,0.0,0.0,0.0,0.0,0.0,0.2729,0.3554,0.4138,0.4524,0.4437,0.4524,0.4732,0.4736,0.4736,0.4736,0.4736,0.468,0.4625,0.468,0.468,0.4632,0.483,0.4983,0.514,0.5271,0.5424,0.557,0.557,0.557,0.5538,0.5243,0.586,0.6904,0.6879,0.6579,0.616,0.5717,0.5845,0.5946,0.4664,0.4534,0.4562,0.3197,0.0,0.1865,0.1414,0.2229,0.3095,0.2631,0.2466,0.2794,0.0,0.0,0.3782,0.4564,0.4699,0.471,0.475,0.4769,0.4257,0.2759,0.275,0.293,0.292,0.2997,0.296,0.2938,0.3878,0.4525,0.4504,0.4498,0.3935,0.2573,0.2466,0.2475,0.246,0.2456,0.3084,0.4478,0.3028,0.1676,0.0505,0.1789,0.3135,0.4511,0.434,0.151,-0.3485,-0.3485,-0.3875,-0.4484,-0.4525,-0.4846,-0.5437,-0.6204,-0.6912,-0.767,-0.8374,-0.9047,-0.9503,-0.9001,-0.9607,-1.072,0.0,0.0,0.0,0.0,0.0,0.0,0.0,0.0,0.0,0.0,0.0,0.0,0.0,0.0,0.0,0.0,0.0,0.0,0.2878,0.3475,0.388,0.4152,0.4317,0.4402,0.4515,0.4519,0.4519,0.4519,0.4519,0.4519,0.4519,0.4519,0.4519,0.4522,0.4584,0.4694,0.4921,0.4982,0.5145,0.5428,0.5428,0.5308,0.5213,0.5091,0.5016,0.5008,0.4912,0.4733,0.0,0.0,0.4241,0.4357,0.3684,0.3618,0.3575,0.2523,0.2231,0.0,0.2136,0.2279,0.2589,0.3221,0.3415,0.3674,0.4372,0.4306,0.4294,0.5055,0.5098,0.5031,0.5125,0.4912,0.4555,0.0,0.24,0.1136,0.1117,0.2056,0.2673,0.2706,0.2997,0.314,0.3142,0.3992,0.4232,0.3585,0.1899,0.0893,0.0923,0.0921,0.121,0.1847,0.1244,0.0621,-0.0,0.0621,0.0335,-0.0728,-0.0727,-0.2071,-0.4514,-0.4507,-0.4772,-0.5305,-0.5171,-0.571,-0.6794,-0.7128,-0.7925,-0.8928,-0.9249,-0.9814,-1.0364,-1.0064,-1.0568,-1.1516,0.0,0.0,0.0,0.0,0.0,0.0,0.0,0.0,0.0,0.0,0.0,0.0,0.0,0.0,0.0,0.0,0.0,0.0,0.0,0.3279,0.3609,0.3941,0.4202,0.4379,0.4515,0.4519,0.4519,0.4519,0.4519,0.4519,0.4519,0.4519,0.4519,0.4519,0.4563,0.467,0.4918,0.4918,0.5067,0.5294,0.5254,0.5172,0.5053,0.4887,0.4317,0.3698,0.3556,0.3284,0.0,0.0,0.2891,0.3016,0.3039,0.2955,0.2754,0.2164,0.1992,0.198,0.1682,0.2125,0.287,0.3884,0.4402,0.469,0.4763,0.4728,0.4891,0.5406,0.5316,0.5304,0.5582,0.4347,0.3387,0.3855,0.1731,-0.0,-0.0,0.1155,0.1927,0.1955,0.1731,0.1612,0.1568,0.26,0.3247,0.3247,0.1213,-0.0,-0.0,-0.0,-0.0,-0.0,-0.0,-0.0,-0.0,-0.0798,-0.2359,-0.4468,-0.4054,-0.4104,-0.4504,-0.4709,-0.514,-0.5786,-0.5655,-0.6411,-0.7723,-0.7616,-0.8355,-0.9562,-0.9718,-1.0218,-1.0813,-1.1015,-1.1507,-1.2199,0.0,0.0,0.0,0.0,0.0,0.0,0.0,0.0,0.0,0.0,0.0,0.0,0.0,0.0,0.0,0.0,0.0,0.0,0.0,0.2907,0.3258,0.3778,0.3948,0.4168,0.4512,0.4519,0.4519,0.4519,0.4519,0.4519,0.4519,0.4519,0.4519,0.4525,0.4616,0.4772,0.4918,0.4918,0.5003,0.5125,0.4989,0.4928,0.486,0.4277,0.3886,0.3714,0.3708,0.0,0.0,0.2317,0.2469,0.2587,0.2989,0.2841,0.0,0.2505,0.1553,0.0344,-0.0796,0.1605,0.4428,0.44,0.5166,0.5912,0.5708,0.5666,0.5673,0.5761,0.558,0.5583,0.6135,0.2898,0.0129,0.0129,0.0065,-0.0,-0.0,0.0063,0.0061,0.0059,0.0057,0.0056,0.0,0.0116,0.0118,0.0118,0.0061,-0.0,-0.0,-0.0,-0.0,-0.0,-0.0,-0.0,-0.0,-0.2913,-0.4399,-0.4458,-0.2968,-0.307,-0.4536,-0.5171,-0.5487,-0.5542,-0.5756,-0.6573,-0.767,-0.7509,-0.7996,-0.891,-0.9562,-1.0218,-1.0864,-1.1516,-1.219,-1.2773,0.0,0.0,0.0,0.0,0.0,0.0,0.0,0.0,0.0,0.0,0.0,0.0,0.0,0.0,0.0,0.0,0.0,0.0,0.0,0.2111,0.2961,0.3277,0.3645,0.3914,0.4016,0.4117,0.4219,0.4321,0.4321,0.4368,0.4519,0.4519,0.4519,0.4519,0.4573,0.4623,0.4769,0.4769,0.4908,0.5101,0.4755,0.4502,0.4157,0.3654,0.3042,0.2415,0.0,0.0,0.0,0.1237,0.1102,0.1186,0.1733,0.1959,0.1911,0.1335,0.0685,0.0094,-0.0311,0.0059,0.0992,0.2539,0.4575,0.6194,0.6338,0.5126,0.4008,0.4017,0.5083,0.6073,0.6282,0.2835,-0.0,-0.0,-0.0,-0.0,-0.0,-0.0,-0.0,-0.0,-0.0,0.0,0.0,0.0,0.0,-0.0,-0.0,-0.0,-0.0,-0.0,-0.0,-0.0,-0.1959,-0.2957,-0.301,-0.3978,-0.4495,-0.4501,-0.3978,-0.4239,-0.5171,-0.5378,-0.6032,-0.6956,-0.7063,-0.761,-0.8427,-0.8374,-0.889,-0.9762,-1.0261,-1.1174,-1.2246,-1.2909,-1.3511,-1.4075,0.0,0.0,0.0,0.0,0.0,0.0,0.0,0.0,0.0,0.0,0.0,0.0,0.0,0.0,0.0,0.0,0.0,0.0,0.0,0.0,0.2066,0.2861,0.3242,0.3564,0.3862,0.3958,0.4033,0.4136,0.408,0.4179,0.4275,0.4226,0.4199,0.4203,0.4251,0.4307,0.4443,0.4338,0.4402,0.4485,0.4042,0.3658,0.3324,0.2983,0.2385,0.0,0.0,0.0,0.0,0.0546,0.0354,0.0481,0.0849,0.1045,0.1046,0.0489,0.0181,-0.0,-0.0,-0.0457,-0.0503,0.0991,0.2761,0.4508,0.6378,0.5628,0.4029,0.2328,0.3097,0.4027,0.4029,0.185,-0.0,-0.0,-0.0,-0.0,-0.0,-0.0,-0.0,-0.0,-0.0,-0.0,0.0,0.0,0.0,-0.0,-0.0,-0.0,-0.0,-0.0,-0.06,-0.1878,-0.3796,-0.446,-0.3659,-0.4386,-0.4669,-0.4565,-0.4558,-0.4905,-0.5487,-0.576,-0.6578,-0.7723,-0.799,-0.8474,-0.9159,-0.9263,-0.9762,-1.0466,-1.0965,-1.1724,-1.2598,-1.3228,-1.4014,-1.4744,0.0,0.0,0.0,0.0,0.0,0.0,0.0,0.0,0.0,0.0,0.0,0.0,0.0,0.0,0.0,0.0,0.0,0.0,0.0,0.0,0.0,0.2476,0.2609,0.3014,0.3829,0.3868,0.3878,0.3886,0.3821,0.3814,0.3871,0.3673,0.3602,0.3609,0.3746,0.3839,0.3906,0.3676,0.3517,0.3362,0.2949,0.2647,0.2401,0.2237,0.0,0.0,0.0,0.0,0.0,0.0281,0.027,0.0382,0.0365,0.0191,-0.0,-0.0,-0.0,-0.0,-0.0,-0.0,-0.0,-0.0,-0.0,0.1157,0.5735,0.6736,0.5441,0.0919,-0.0,-0.0,0.0,0.0,-0.0,-0.0,-0.0,-0.0,-0.0,-0.0,-0.0,0.0,0.0,0.0,0.0,0.0,0.0,-0.0,0.0,-0.0,-0.0,-0.0216,-0.1872,-0.5288,-0.543,-0.4407,-0.234,-0.4192,-0.4977,-0.4691,-0.4749,-0.5057,-0.5597,-0.6312,-0.7074,-0.7777,-0.8533,-0.9211,-0.9865,-1.0115,-1.0517,-1.0965,-1.1566,-1.1864,-1.1963,-1.2706,-1.3752,-1.4835,0.0,0.0,0.0,0.0,0.0,0.0,0.0,0.0,0.0,0.0,0.0,0.0,0.0,0.0,0.0,0.0,0.0,0.0,0.0,0.0,0.0,0.0,0.0,0.0,0.0,0.0,0.0,0.0,0.0,0.2797,0.3663,0.3622,0.3585,0.3585,0.3626,0.3454,0.3102,0.3033,0.3149,0.3343,0.0,0.2672,0.2682,0.0,0.0,0.0,0.0,0.0,0.0,0.0,0.0,0.0112,0.0085,0.0046,-0.0,-0.0,-0.0,-0.0,-0.0,-0.0,-0.0,-0.0,-0.0,0.0317,0.1539,0.1794,0.1445,0.0238,-0.0,-0.0,0.0,0.0,0.0,-0.0,-0.0,0.0,-0.0,-0.0,0.0,-0.0,0.0,-0.0,-0.0,-0.0,0.0,0.0,-0.0,-0.0,-0.0,-0.2982,-0.4919,-0.5361,-0.5382,-0.5075,-0.4391,-0.4729,-0.4847,-0.4691,-0.5262,-0.5789,-0.6367,-0.7074,-0.783,-0.8533,-0.9256,-0.9762,-1.0115,-1.0517,-1.1334,-1.2304,-1.1931,-1.2395,-1.3379,-1.4014,-1.4744,-1.5454,0.0,0.0,0.0,0.0,0.0,0.0,0.0,0.0,0.0,0.0,0.0,0.0,0.0,0.0,0.0,0.0,0.0,0.0,0.0,0.0,0.0,0.0,0.0,0.0,0.0,0.0,0.0,0.0,0.0,0.0,0.0,0.2405,0.2606,0.2606,0.2606,0.2421,0.2159,0.2363,0.0,0.0,0.0,0.0,0.0,0.0,0.0,0.0,0.0,0.0,0.0,0.0,0.0,-0.0,-0.0,-0.0,-0.0,-0.0,-0.0,-0.0,-0.0,-0.0,-0.0,-0.0,-0.0,-0.0232,-0.1095,-0.1059,-0.0773,-0.0109,-0.0,0.0,-0.0,-0.0,0.0,0.0,0.0,0.0,-0.0,-0.0,-0.0,0.0,-0.0,0.0,-0.0,-0.0,-0.0771,0.0,-0.1054,-0.0782,-0.2665,-0.5041,-0.6043,-0.5516,-0.5633,-0.5587,-0.5345,-0.5121,-0.5153,-0.5419,-0.5758,-0.6372,-0.7335,-0.7555,-0.8256,-0.9263,0.0,-1.0218,-1.0914,-1.1166,-1.1891,-1.2871,-1.2716,-1.313,-1.3862,-1.4468,-1.5096,-1.5632,0.0,0.0,0.0,0.0,0.0,0.0,0.0,0.0,0.0,0.0,-0.0,0.0,0.0,0.0,0.0,0.0,0.0,0.0,0.0,0.0,0.0,0.0,0.0,0.0,0.0,0.0,0.0,0.0,0.0,0.0,0.0,0.0,0.0,0.0,0.0,0.0,0.0,0.0,0.0,0.0,0.0,0.0,0.0,0.0,0.0,0.0,0.0,0.0,0.0,0.0,0.2073,-0.0,-0.0,-0.0,-0.0,-0.0,-0.0,-0.0,-0.0,-0.0,-0.0,-0.0,-0.0,-0.0455,-0.2391,-0.2504,-0.1856,-0.0602,0.0,-0.0,-0.0,-0.0,-0.0,-0.0,0.0,-0.0,-0.0,-0.0,-0.0,-0.0,-0.0,-0.0,-0.0,-0.0507,-0.2375,-0.6016,-0.2903,-0.2303,-0.573,-0.617,-0.6103,-0.5722,-0.5868,-0.5857,-0.5593,-0.5432,-0.5653,-0.6383,-0.6406,-0.7037,-0.8217,-0.7985,-0.8599,-0.9814,-0.9917,-1.0669,-1.1814,-1.1922,-1.2344,-1.2978,-1.3457,-1.3779,-1.3956,-1.4514,-1.5152,-1.572,0.0,0.0,0.0,0.0,0.0,0.0,0.0,0.0,0.0,0.0,-0.0,-0.0,0.0,0.0,0.0,0.0,0.0,0.0,0.0,0.0,0.0,0.0,0.0,0.0,0.0,0.0,0.0,0.0,0.0,0.0,0.0,0.0,0.0,0.0,0.0,0.0,0.0,0.0,0.0,0.0,0.0,0.0,0.0,0.0,0.0,0.0,0.0,0.0,0.0,0.0,0.2391,-0.0,-0.0,-0.0,-0.0,-0.0,-0.0,-0.0,-0.0,-0.0,-0.0,-0.0,-0.0,-0.0359,-0.1871,-0.2503,0.0,0.0,-0.0965,-0.0,-0.0,-0.0,-0.0,-0.0,-0.0,-0.0,-0.0,-0.0,-0.0,0.0,-0.0,-0.0,-0.0,-0.3176,0.0,0.0,-0.5628,-0.4735,-0.3732,-0.5321,-0.6196,-0.5925,-0.5783,-0.5644,-0.5589,-0.6129,-0.6403,-0.6383,-0.7706,-0.8255,-0.8223,-0.8737,-0.9234,-0.9814,-1.0364,0.0,-1.1864,-1.2452,-1.2774,-1.2929,-1.3017,-1.3658,-1.4571,-1.4663,-1.5377,-1.6324,0.0,0.0,0.0,0.0,0.0,0.0,0.0,-0.0,-0.0,-0.0,-0.0,-0.0,-0.0,-0.0,-0.0,0.0,0.0,0.0,0.0,0.0,0.0,0.0,0.0,0.0,0.0,0.0,0.0,0.0,0.0,0.0,0.0,0.0,0.0,0.0,0.0,0.0,0.0,0.0,0.0,0.0,0.0,0.0,0.0,0.0,0.0,0.0,0.0,0.0,0.0,0.0,0.3553,0.2053,0.051,-0.0,-0.0,-0.0,-0.0,-0.0,-0.0,-0.0,-0.0,-0.0,-0.0,-0.0284,-0.1459,0.0,0.0,0.0,-0.1953,-0.1033,-0.0169,-0.0,0.0,-0.0,-0.0,-0.0,-0.0,-0.0,0.0,-0.0,-0.0,-0.0892,0.0,-0.5098,-0.6291,-0.628,-0.6328,-0.5886,-0.4851,-0.5647,-0.6149,-0.6149,-0.5786,-0.5627,-0.5698,-0.6332,-0.6867,-0.7227,-0.8296,-0.8843,-0.9004,-0.9138,-0.9599,-1.0364,-1.0661,-1.1375,-1.2393,-1.2764,-1.2881,-1.2968,-1.361,-1.4061,-1.4468,-1.5332,-1.602,-1.6522,0.0,0.0,0.0,0.0,0.0,0.0,-0.0,-0.0,-0.0,-0.0,-0.0,-0.0,-0.0,-0.0,-0.0,0.0,0.0,0.0,0.0,0.0,0.0,0.0,0.0,0.0,0.0,0.0,0.0,0.0,0.0,0.0,0.0,0.0,0.0,0.0,0.0,0.0,0.0,0.0,0.0,0.0,0.0,0.0,0.0,0.0,0.0,0.0,0.0,0.0,0.0,0.0,0.3945,0.3984,0.0931,-0.0,-0.0,-0.0,-0.0,-0.0,-0.0,-0.0,-0.0,-0.0,-0.0,-0.0212,-0.1193,-0.2013,0.0,-0.2821,-0.2692,-0.2107,-0.0571,-0.0133,-0.0,0.0,-0.0,-0.0,-0.0,-0.0,-0.0,0.0,-0.0804,0.0,-0.5987,-0.6331,0.0,-0.6281,-0.6278,-0.6274,-0.6274,-0.6149,-0.6135,-0.6257,-0.5854,-0.5758,-0.6083,-0.6709,-0.7437,-0.8285,-0.8914,-0.9338,-0.9679,-0.9545,-0.998,-1.0813,-1.0965,-1.1733,-1.2881,-1.2881,-1.2881,-1.2968,-1.3931,-1.4258,-1.4362,-1.5668,-1.6293,-1.6522,0.0,0.0,0.0,0.0,0.0,0.0,-0.0,-0.0,-0.0,-0.0,-0.0,-0.0,-0.0,-0.0,-0.0,0.0,0.0,0.0,0.0,0.0,0.0,0.0,0.0,0.0,0.0,0.0,0.0,0.0,0.0,0.0,0.0,0.0,0.0,0.0,0.0,0.0,0.0,0.0,0.0,0.0,0.0,0.0,0.0,0.0,0.0,0.0,0.0,0.0,0.0,0.0,0.0,0.3975,0.0955,-0.0,-0.0,-0.0,0.0,0.0,-0.0,-0.0,-0.0,-0.0,-0.0,-0.0211,-0.1161,0.0,-0.2822,-0.273,-0.2789,-0.2519,-0.1488,-0.0592,-0.0,0.0,0.0,-0.0,-0.0,-0.0,-0.0,-0.0,0.0,0.0,-0.6281,-0.6302,-0.6295,-0.6281,-0.6268,-0.6264,-0.6264,-0.6247,-0.6247,-0.6261,-0.5949,-0.6144,-0.7007,-0.7583,-0.8291,-0.9204,-1.0015,-1.0159,-0.9744,-1.0322,-1.067,-1.0813,-1.1466,-1.2138,0.0,-1.2881,-1.2881,-1.2929,-1.3017,-1.372,-1.4669,-1.4789,-1.5567,-1.6522,0.0,0.0,0.0,0.0,0.0,0.0,0.0022,-0.0,-0.0,-0.0,-0.0,0.0067,0.0225,0.0247,0.0247,0.0247,0.0,0.0,0.0,0.0,0.0,0.0,0.0,0.0,0.0,0.0,0.0,-0.0,-0.0,0.0,0.0,0.0,0.0,0.0,0.0,0.0,0.0,0.0,0.0,0.0,0.0,0.0,0.0,0.0,0.0,0.0,0.0,0.0,0.0,0.0,0.0,0.0,0.0366,-0.0584,0.0,0.0,-0.0,-0.0,-0.0,-0.0,-0.0,-0.0,-0.0845,-0.1657,-0.1456,0.0,-0.2865,-0.2841,-0.2885,-0.2593,-0.1578,-0.0613,-0.0,0.0,0.0,0.0,-0.0,-0.0,-0.096,-0.352,-0.5293,0.0,0.0,0.0,-0.6281,-0.6268,-0.6264,-0.6338,-0.6338,-0.6338,-0.6338,-0.6338,-0.6474,-0.6726,-0.7078,-0.8189,-0.8947,-0.9338,-1.0174,-1.0486,-1.0293,-1.0572,-1.0965,-1.1416,-1.1665,-1.2236,0.0,-1.2881,-1.2881,-1.291,-1.2912,-1.317,-1.3814,-1.5262,-1.6107,-1.6522,0.0,0.0,0.0,0.0,0.0,0.0225,0.0135,0.009,0.0067,0.0067,0.0067,0.0135,0.0315,0.0382,0.0405,0.0405,0.0405,0.0,0.0,0.0,0.0,0.0,0.0,0.0,0.0,0.0,-0.0,-0.0,-0.0,-0.0,0.0,0.0,0.0,0.0,0.0,0.0,0.0,0.0,0.0,0.0,0.0,0.0,0.0,0.0,0.0,0.0,0.0,0.0,0.0,0.0,0.0,0.0,0.0,0.0,0.0,0.0,-0.0305,-0.0,-0.0,-0.0,-0.0,-0.0,-0.1472,-0.2734,0.0,0.0,-0.2918,-0.2892,-0.2921,-0.27,-0.1973,-0.0852,-0.0,0.0,0.0,-0.0,-0.0,-0.0105,-0.1306,0.0,0.0,-0.554,0.0,-0.604,-0.6271,-0.6338,-0.6338,-0.6338,-0.6338,-0.6567,-0.6696,-0.6569,-0.6952,-0.7332,-0.7832,-0.8821,-0.9402,-0.9722,-1.0301,-1.0547,-1.0408,-1.0793,-1.1182,-1.1516,-1.1922,-1.2403,0.0,-1.2881,-1.3027,-1.3296,-1.3408,-1.3648,-1.4158,-1.5891,-1.6522,-1.6522,0.0,0.0,0.0,0.0,0.0,0.0,0.0405,0.0292,0.0202,0.0202,0.0202,0.0202,0.0202,0.0315,0.0405,0.0405,0.0405,0.0,0.0,0.0,0.0,0.0,0.0,0.0,0.0,0.0,-0.0,-0.0,-0.0,-0.0,-0.0,-0.0,-0.0773,0.0,0.0,0.0,0.0,0.0,0.0,0.0,0.0,0.0,0.0,0.0,0.0,0.0,0.0,0.0,0.0,0.0,0.0,0.0,0.0,0.0,0.0,0.0,-0.1106,-0.0,-0.0,-0.0,-0.0,-0.0,-0.1443,-0.2904,0.0,-0.2894,-0.2918,-0.2892,-0.2921,-0.2881,-0.2881,-0.1302,-0.0,-0.0,0.0,0.0,-0.0,-0.0395,-0.0726,0.0,0.0,-0.3794,-0.4373,-0.5554,-0.6338,-0.6338,-0.6338,0.0,-0.6338,-0.7253,-0.7618,-0.727,-0.7169,-0.7892,-0.9438,-0.9332,-0.9722,-1.0561,-1.0624,-1.0315,-0.9737,-1.1069,-1.139,-1.0864,-1.2255,-1.2881,0.0,-1.2881,-1.3364,-1.4146,-1.4529,-1.5395,-1.6479,-1.6492,-1.6522,-1.6522,0.0,0.0,0.0,0.0,0.0,0.0,0.0405,0.036,0.0337,0.0337,0.0605,0.076,0.0626,0.0648,0.0738,0.0873,0.0584,0.0,0.0,0.0,0.0,0.0,0.0,0.0,0.0,0.0,0.0336,0.0336,0.0279,0.0244,0.0202,-0.007,-0.0279,-0.0437,-0.0269,0.0,0.0,0.0,0.0,0.0,0.0,0.0,0.0,0.0,0.0,0.0,0.0,0.0,0.0,0.0,0.0,0.0,0.0,0.0,0.0,0.0,0.0,0.0,-0.1101,-0.0864,-0.0771,-0.091,-0.1737,-0.2611,-0.2842,-0.2823,-0.2767,-0.2901,-0.2553,-0.2237,-0.2237,-0.2109,-0.1526,-0.0224,-0.0537,0.0,0.0,0.0,0.0,-0.3554,-0.4703,-0.5485,0.0,0.0,-0.6338,-0.6338,-0.6338,-0.6567,-0.7249,-0.7633,-0.7614,-0.7343,-0.866,-0.9373,-0.9504,-1.0168,-1.0497,-1.0624,-1.0624,-1.0784,-1.1069,-1.1511,-1.189,-1.2255,-1.2725,-1.2881,-1.2881,-1.2881,-1.3364,-1.4215,-1.5441,-1.6178,-1.6492,-1.6492,-1.6522,-1.6522,0.0,0.0,0.0,0.0,0.0,0.0,0.0515,0.0449,0.0405,0.0405,0.0717,0.0892,0.0781,0.0847,0.0961,0.1094,0.0828,0.0,0.0,0.0,0.0,0.0,0.0,0.0,0.0,0.0235,0.0374,0.0555,0.0457,0.0422,0.0416,0.0141,0.0139,0.037,0.0034,0.0,0.0,0.0,0.0,0.0,0.0,0.0,-0.0,0.0,0.0,0.0,0.0,0.0,0.0,0.0,0.0,0.0,0.0,0.0,0.0,0.0,-0.2199,-0.2227,0.0,-0.177,-0.1734,-0.1656,-0.208,0.0,0.0,-0.2716,-0.2749,-0.2875,-0.2568,-0.2279,-0.2279,-0.2603,-0.2516,-0.1297,-0.1341,0.0,0.0,0.0,0.0,-0.4387,0.0,0.0,0.0,-0.6083,-0.6338,-0.6338,-0.6644,-0.7176,-0.7783,-0.8533,-0.8697,-0.8322,-0.9625,-1.0301,-1.0049,-1.0718,-1.0848,-1.0624,-1.0448,-1.0724,-1.1335,-1.1478,-1.1912,-1.251,-1.2774,-1.2881,0.0,-1.3152,-1.3668,-1.4452,-1.5682,-1.6284,-1.651,-1.6498,-1.6522,-1.6522,0.0,0.0,0.0,0.0,0.0,0.0,0.0,0.0538,0.0427,0.0427,0.0604,0.0736,0.0758,0.0983,0.1139,0.1139,0.1139,0.0,0.0,0.0,0.0,0.0,0.0,0.0,0.0302,0.0134,0.0207,0.058,0.0521,0.0523,0.0583,0.0524,0.0511,0.0507,0.0507,0.0506,0.0,0.0,0.0,0.0,0.0,0.0,0.0,0.0,0.0,0.0,0.0,0.0,0.0,0.0,0.0,0.0,0.0,0.0,0.0,0.0,0.0,0.0,0.0,-0.2628,-0.2724,-0.2244,-0.2363,-0.2516,0.0,0.0,0.0,-0.2864,-0.287,-0.2901,-0.2909,-0.2921,-0.2923,-0.2912,-0.2324,0.0,0.0,-0.3646,0.0,0.0,-0.4411,0.0,-0.4954,-0.5767,-0.6338,-0.6338,-0.7249,-0.7851,-0.7838,-0.9723,-1.0548,-1.0031,-1.0337,-1.0645,-1.0969,-1.0982,-1.0848,-1.0618,-1.0315,-1.0363,-1.0785,-1.1207,-1.1576,0.0,-1.2608,-1.2881,-1.2929,-1.3505,-1.4097,-1.4744,-1.5276,-1.5908,-1.6522,-1.6522,-1.6522,-1.6522,0.0,0.0,0.0,0.0,0.0,0.0,0.0,0.0,0.0,0.0,0.0849,0.1072,0.123,0.1296,0.1408,0.0,0.0,0.0,0.0,0.0,0.0,0.0,0.0,0.0,0.0469,0.0403,0.044,0.0514,0.0551,0.0599,0.0584,0.0624,0.0617,0.0573,0.0573,0.056,0.0,0.0,0.0,0.0,0.0,0.0,0.0,0.0,0.0,0.0,-0.0,-0.0,0.0,0.0,0.0,0.0,0.0,0.0,0.0,0.0,-0.1758,-0.2296,-0.2455,0.0,-0.2317,-0.253,-0.2382,-0.2281,0.0,0.0,0.0,0.0,0.0,-0.2799,-0.2896,-0.2912,-0.2915,-0.2912,0.0,0.0,-0.3416,0.0,0.0,-0.4903,-0.5538,-0.5815,-0.5481,-0.5993,-0.6338,-0.6338,-0.7249,-0.8018,-0.8517,-1.0005,-1.0846,-1.1018,-1.1352,-1.127,-1.0668,-1.0882,-1.0848,-1.0618,-1.0784,-1.1107,-1.1495,-1.1862,-1.228,-1.2666,-1.2822,-1.2881,-1.2929,-1.3065,-1.3752,-1.4698,-1.4503,-1.5276,-1.6522,-1.6522,-1.6522,-1.6522,0.0,0.0,0.0,0.0,0.0,0.0,0.0,0.0,0.0,0.0,0.1094,0.1274,0.1388,0.1519,0.1651,0.0,0.0,0.0,0.0,0.0,0.0,0.0,0.0,0.0833,0.0771,0.0839,0.0757,0.0543,0.0786,0.0844,0.0664,0.0644,0.0635,0.0603,0.059,0.0566,0.0504,0.0,0.0,0.0,0.0034,0.0,0.0,0.0,0.0,0.0,-0.0,-0.0,0.0,-0.0,-0.0,-0.0,0.0,0.0,0.0,0.0,-0.1877,-0.2256,-0.2501,-0.2452,-0.2441,-0.2637,-0.2539,-0.2414,-0.2484,0.0,0.0,0.0,0.0,-0.2832,-0.2898,-0.3002,-0.3064,0.0,-0.3181,0.0,0.0,0.0,-0.4927,-0.5416,-0.5755,-0.5939,0.0,-0.6118,-0.649,-0.6949,-0.7936,-0.8864,-0.9696,-1.0748,-1.1306,-1.1368,-1.145,-1.1236,-1.0762,-1.0915,-1.0848,-1.0618,-1.0823,-1.1188,-1.1711,-1.1948,-1.236,-1.2881,-1.2881,-1.2881,-1.2929,-1.32,-1.3884,-1.4698,-1.4778,-1.5511,-1.6522,-1.6522,-1.6522,-1.6522,0.0,0.0,0.0,0.0,0.0,0.0,0.0,0.0,0.0,0.0,0.0,0.0,0.0,0.0,0.0,0.0,0.0,0.0,0.0,0.0,0.0,0.0,0.0,0.131,0.1174,0.1274,0.1162,0.0777,0.1125,0.1118,0.0792,0.069,0.0598,0.0588,0.0597,0.0566,0.0504,0.0504,0.0437,0.0269,0.0067,0.0,0.0,0.0,0.0,0.0,0.0,0.0,0.0,-0.0,-0.0,-0.0,-0.0,0.0,0.0,0.0,0.0,0.0,-0.2419,-0.2612,-0.2707,-0.2688,-0.2669,-0.2629,-0.2528,0.0,0.0,0.0,0.0,0.0,0.0,-0.3144,0.0,0.0,0.0,0.0,-0.4582,-0.4711,-0.4894,-0.5515,-0.565,0.0,-0.6352,-0.6426,-0.6915,-0.7931,-0.8854,-0.9787,-1.0592,-1.1416,-1.1643,-1.1303,-1.1096,-1.0949,-1.0862,-1.0902,-1.0846,-1.0669,-1.0799,-1.1151,-1.1795,-1.1901,-1.2295,-1.2881,0.0,0.0,-1.2978,-1.3552,-1.4143,-1.4755,-1.532,-1.5964,-1.6522,-1.6522,-1.6602,-1.6739,0.0,0.0,0.0,0.0,0.0,0.0,0.0,0.0,0.0,0.0,0.0,0.0,0.0,0.0,0.0,0.0,0.0,0.0,0.0,0.0,0.0,0.206,0.1789,0.1602,0.1538,0.1542,0.1591,0.1619,0.1333,0.1209,0.1189,0.0854,0.0635,0.0588,0.0597,0.0566,0.0504,0.0504,0.0437,0.0269,0.0067,0.0,0.0,0.0,0.0,0.0,0.0,0.0,0.0,-0.0,-0.0,-0.0,-0.0,0.0,0.0,0.0,0.0,0.0,-0.2048,-0.2379,-0.2636,-0.2668,-0.2607,-0.2528,0.0,0.0,0.0,0.0,0.0,0.0,0.0,-0.3127,-0.3095,0.0,0.0,-0.4525,0.0,0.0,-0.5596,-0.5589,0.0,-0.6403,-0.6904,-0.7066,-0.7676,-0.8983,-0.9518,-0.985,-1.0061,-1.095,-1.1249,-1.0715,-1.0889,-1.0755,-1.0254,-1.0501,-1.0781,-1.1054,-1.136,-1.1801,-1.2202,-1.2579,-1.2774,-1.2881,0.0,-1.2881,-1.2978,-1.3552,-1.4143,-1.4744,-1.5164,-1.5844,-1.6522,-1.6522,-1.7119,-1.7804,0.0,0.0,0.0,0.0,0.0,0.0,0.0,0.0,0.0,0.0,0.0,0.0,0.0,0.0,0.0,0.0,0.0,0.0,0.0,0.0,0.0,0.2197,0.2041,0.193,0.1873,0.2141,0.2023,0.1421,0.153,0.1389,0.0979,0.0785,0.0644,0.0589,0.0614,0.0545,0.0504,0.0504,0.0471,0.037,0.0,0.0,0.0,0.0,0.0,0.0,0.0,0.0,0.0,0.0,-0.0,-0.0,-0.0,0.0,0.0,0.0,0.0,0.0,-0.199,-0.2224,-0.2283,-0.206,-0.2352,-0.275,0.0,0.0,0.0,0.0,0.0,0.0,0.0,0.0,-0.3657,-0.4233,0.0,-0.48,-0.5281,-0.5332,-0.5389,0.0,0.0,-0.6237,-0.7103,-0.7244,-0.7915,-0.9513,-0.9803,-1.0158,-1.0648,-1.0999,-1.1069,-1.0802,-1.0775,-1.0555,-1.012,-1.0608,-1.0873,-1.0901,-1.1288,-1.1747,-1.2332,-1.2719,-1.2881,-1.2881,0.0,-1.2881,-1.2929,-1.32,-1.3884,-1.4709,-1.4892,-1.5611,-1.6522,-1.6522,-1.7224,-1.8059,0.0,0.0,0.0,0.0,0.0,0.0,0.0,0.0,0.0,0.0,0.0,0.0,0.0,0.0,0.0,0.0,0.0,0.0,0.0,0.0,0.192,0.2197,0.2211,0.2216,0.2287,0.2571,0.2313,0.1447,0.1637,0.1352,0.0716,0.0698,0.068,0.0628,0.0628,0.0594,0.0504,0.0504,0.0504,0.0471,0.0,0.0,0.0,0.0,0.0,0.0,0.0,0.0,0.0,0.0,0.0,0.0,0.0,0.0,0.0,-0.0,-0.0518,-0.1207,-0.193,-0.2083,-0.2017,-0.1635,0.0,0.0,0.0,0.0,0.0,0.0,0.0,0.0,0.0,-0.3739,0.0,-0.4862,-0.4984,-0.5111,-0.5359,-0.5301,-0.5359,-0.5708,-0.5923,-0.641,-0.753,-0.7766,-0.8527,-1.0095,-1.0113,-1.0418,-1.1248,-1.0982,-1.0822,-1.0889,-1.0541,-1.0247,-1.0013,-1.046,-1.0646,-1.0624,-1.1237,-1.1756,-1.2189,-1.2672,-1.2881,-1.2881,-1.2881,-1.2881,-1.2929,-1.32,-1.3884,-1.4744,-1.5017,-1.57,-1.6522,-1.6522,-1.7036,-1.7753,0.0,0.0,0.0,0.0,0.0,0.0,0.0,0.0,0.0,0.0,0.0,0.0,0.0,0.0,0.0,0.0,0.0,0.0,0.0,0.0,0.192,0.2197,0.2211,0.2415,0.2847,0.2387,0.227,0.249,0.1608,0.1002,0.0716,0.0718,0.0701,0.0707,0.0707,0.0632,0.0504,0.0504,0.0504,0.0471,0.0134,0.0,0.0,0.0,0.0,0.0,0.0,0.0,0.0,0.0,0.0,0.0,0.0,0.0,-0.0,-0.0,-0.0038,-0.0405,-0.1742,-0.2119,-0.2101,-0.2064,-0.1796,0.0,-0.3655,-0.3825,0.0,-0.4297,0.0,0.0,0.0,-0.3967,-0.4232,-0.4673,-0.5091,-0.5528,-0.6098,0.0,-0.6176,-0.6207,-0.6821,-0.7599,-0.8573,-0.9061,-0.9852,-1.1198,-1.0856,-1.067,-1.1009,-1.0488,-1.0307,-1.0645,-1.004,-0.9733,-0.9713,-0.9495,-0.9667,-1.0344,-1.1612,-1.2093,-1.1859,-1.2569,-1.2881,-1.2881,-1.2881,-1.2881,-1.2978,-1.4118,-1.4617,-1.4789,-1.5932,-1.6423,-1.6522,-1.6522,-1.6559,-1.6898,0.0,0.0,0.0,0.0,0.0,0.0,0.0,0.0,0.0,0.0,0.0,0.0,0.0,0.0,0.0,0.0,0.0,0.0,0.0,0.1895,0.2015,0.2249,0.209,0.2191,0.257,0.2384,0.2088,0.1677,0.1084,0.0752,0.0716,0.0693,0.0675,0.0628,0.0628,0.053,0.0388,0.0375,0.0309,0.0177,0.0035,-0.0,0.0,0.0,0.0,0.0,0.0,0.0,0.0,0.0,-0.0,-0.0,-0.0,-0.0,-0.0,-0.0,-0.0,-0.0109,-0.0646,-0.1426,-0.2082,-0.2082,-0.1315,0.0,0.0,-0.5063,-0.491,-0.4588,-0.4206,0.0,0.0,0.0,-0.4931,-0.497,-0.5453,-0.5891,-0.6213,-0.6338,-0.6227,-0.6129,-0.6794,-0.7612,-0.8359,-0.8864,-0.9568,-1.0551,-1.0241,-1.006,-1.0174,-0.9967,-0.99,-1.0013,-0.98,-0.9593,-0.9412,-0.9729,-0.994,-1.0001,-1.0933,-1.1784,-1.2501,-1.2774,-1.2881,-1.2881,-1.2881,-1.2881,-1.2968,-1.3789,-1.4376,-1.4835,-1.602,-1.6522,-1.6522,-1.6522,-1.6748,-1.7174,0.0,0.0,0.0,0.0,0.0,0.0,0.0,0.0,0.0,0.0,0.0,0.0,0.0,0.0,0.0,0.0,0.0,0.0,0.1648,0.1685,0.179,0.1974,0.1841,0.1834,0.198,0.1983,0.1719,0.1172,0.0792,0.0644,0.0716,0.0695,0.0683,0.0642,0.0623,0.0527,0.0363,0.0241,0.0137,-0.0,-0.0,-0.0,0.0,0.0,0.0,0.0,0.0,0.0,0.0,0.0,-0.0,-0.0,-0.0,-0.0,-0.0,-0.0,-0.0,-0.0,-0.0,-0.0709,-0.1422,-0.1444,0.0,0.0,-0.3341,-0.4938,-0.5682,-0.5115,-0.4823,0.0,0.0,0.0,0.0,0.0,-0.5624,-0.601,-0.6166,-0.6146,-0.6225,-0.6334,-0.7066,-0.7849,-0.8529,-0.9068,-0.9562,-1.0073,-0.9846,-0.9686,-0.9686,-0.9593,-0.9586,-0.9679,-0.972,-0.9674,-0.9563,-1.0149,-1.0452,-1.0415,-1.0914,-1.1633,-1.2559,-1.2774,-1.2881,-1.2881,-1.2881,-1.2881,-1.2968,-1.3742,-1.456,-1.5332,-1.6194,-1.6522,-1.6547,-1.6722,-1.7049,-1.7438,0.0,0.0,0.0,0.0,0.0,0.0,0.0,0.0,0.0,0.0,0.0,0.0,0.0,0.0,0.0,0.0,0.0,0.0,0.1116,0.111,0.1172,0.1286,0.1368,0.1296,0.1108,0.111,0.1174,0.1306,0.0842,0.0643,0.0716,0.0716,0.0716,0.0713,0.0648,0.0547,0.0472,0.0138,-0.0,-0.0,-0.0,-0.0,-0.0,0.0,0.0,0.0,0.0,0.0,0.0,0.0,-0.0,-0.0,-0.0,-0.0,-0.0,-0.0,-0.0,-0.0,-0.0,-0.0,-0.0,0.0,0.0,0.0,-0.0057,-0.3153,-0.6022,-0.6014,0.0,-0.4859,-0.4994,0.0,0.0,-0.5045,-0.5537,-0.5854,-0.6006,-0.5895,-0.6154,-0.7007,-0.7743,-0.856,-0.9426,-0.9869,-1.0107,-1.0107,-0.984,-0.9679,-0.9679,-0.9392,-0.9372,-0.9666,-0.9789,-0.9971,-1.0307,-1.0641,-1.1166,-1.1814,-1.1814,-1.1814,-1.1814,-1.2559,-1.2881,-1.2881,-1.2881,-1.2881,-1.2968,-1.4201,-1.5433,-1.6479,-1.6522,-1.6522,-1.6584,-1.7162,-1.7375,-1.7526,0.0,0.0,0.0,0.0,0.0,0.0,0.0,0.0,0.0,0.0,0.0,0.0,0.0,0.0,0.0,0.0,0.0,0.0,0.1185,0.1393,0.1474,0.1365,0.1241,0.1156,0.111,0.0808,0.0725,0.0801,0.0666,0.0612,0.0642,0.0642,0.0631,0.0647,0.0591,0.0547,0.0508,0.0379,0.0206,-0.0,-0.0,-0.0,-0.0,0.0,0.0,0.0,0.0,0.0,0.0,0.0,0.0,0.0,-0.0,-0.0,-0.0,-0.0,-0.0,-0.0,-0.0,-0.0,0.0,-0.0,0.0,0.0,0.0,-0.534,0.0,0.0,-0.59,-0.5528,-0.5222,0.0,0.0,-0.5176,-0.5537,-0.5817,-0.5864,-0.6331,-0.675,-0.6969,-0.8056,-0.8835,-0.8977,-0.9294,-0.9442,-0.9442,-0.9232,-0.9065,-0.9065,-0.8985,-0.9179,-0.9739,-0.9814,-1.0058,-1.0669,-1.0769,-1.1166,-1.1814,-1.1814,-1.208,-1.2559,-1.2774,-1.2881,-1.2881,-1.2881,-1.2881,-1.2968,-1.3882,-1.5152,-1.6492,-1.6485,-1.6522,-1.6534,-1.671,-1.6773,-1.6936,0.0,0.0,0.0,0.0,0.0,0.0,0.0,0.0,0.0,0.0,0.0,0.0,0.0,0.0,0.0,0.0,0.0,0.0,0.0,0.1078,0.113,0.1042,0.0927,0.0875,0.0875,0.0653,0.0559,0.0565,0.0577,0.0599,0.0589,0.0589,0.0625,0.0657,0.0594,0.059,0.0561,0.0521,0.0377,0.0177,0.0036,-0.0,-0.0,0.0,0.0,0.0,0.0,0.0,0.0,0.0,0.0,0.0,-0.0,-0.0,-0.0,-0.0,-0.0,-0.0,-0.0,-0.0,0.0,-0.0,-0.0,-0.1131,-0.531,0.0,0.0,0.0,0.0,-0.5902,-0.5528,-0.5589,0.0,-0.5473,-0.5567,-0.5718,-0.5718,-0.6425,-0.7022,-0.731,-0.828,-0.9033,-0.9309,-0.9227,-0.9183,-0.9183,-0.8971,-0.8804,-0.8804,-0.9061,-0.9361,-0.9762,-1.0312,-1.0762,-1.1216,-1.1484,-1.1841,-1.2236,-1.2236,-1.2452,-1.2881,-1.2881,-1.2881,-1.2881,-1.2881,-1.289,-1.299,-1.3921,-1.5197,-1.6511,-1.6516,-1.6522,-1.6547,-1.6773,-1.6861,-1.6986,0.0,0.0,0.0,0.0,0.0,0.0,0.0,0.0,0.0,0.0,0.0,0.0,0.0,0.0,0.0,0.0,0.0,0.0,0.0,0.0,0.0463,0.0491,0.0489,0.0505,0.0508,0.0566,0.0568,0.0512,0.0571,0.0596,0.0582,0.0582,0.0635,0.07,0.0604,0.0632,0.0655,0.0526,0.0471,0.0439,0.0142,-0.0,-0.0,-0.0,0.0,0.0,0.0,0.0,0.0,0.0,0.0,0.0,-0.0,-0.0,-0.0,-0.0,-0.0,-0.0,-0.0,-0.0,0.0,-0.0,-0.0,0.0,-0.4842,-0.4372,-0.3605,-0.5541,0.0,-0.5951,-0.5854,-0.5734,-0.5709,-0.5742,-0.5674,-0.5652,-0.5707,-0.6372,-0.7102,-0.7996,-0.8544,-0.9187,-0.992,-0.9469,-0.9143,-0.9143,-0.8958,-0.8804,-0.891,-0.9465,-0.9865,-0.9961,-1.1166,-1.1814,-1.1913,-1.2559,-1.2881,-1.2881,-1.2881,-1.2881,-1.2881,-1.2881,-1.2881,-1.2881,-1.291,-1.2895,-1.2966,-1.4211,-1.5421,-1.6504,-1.6479,-1.6522,-1.6584,-1.7112,-1.73,-1.7388,0.0,0.0,0.0,0.0,0.0,0.0,0.0,0.0,0.0,0.0,0.0,0.0,0.0,0.0,0.0,0.0,0.0,0.0,0.0,0.0,0.0663,0.0491,0.0489,0.0514,0.0573,0.0556,0.0532,0.0571,0.0592,0.0575,0.0523,0.0523,0.0561,0.0602,0.0553,0.0516,0.0521,0.0407,0.0336,0.0337,0.0102,-0.0,-0.0,-0.0,-0.0,0.0,0.0,0.0,0.0,0.0,0.0,0.0,-0.0,-0.0,-0.0,-0.0,-0.0,-0.0,-0.0,-0.0,0.0,0.0,-0.0,-0.0256,-0.1123,-0.2099,-0.3403,-0.5444,-0.587,-0.584,-0.5796,-0.5752,-0.5765,-0.5644,-0.561,-0.5816,-0.641,-0.7204,-0.7955,-0.8527,-0.9149,-0.9505,-0.9396,-0.9105,-0.8898,-0.8898,-0.8844,-0.9008,-0.9562,-0.971,-1.0261,-1.1366,-1.1665,-1.208,-1.2666,-1.2822,-1.2881,-1.2881,-1.2881,-1.2881,-1.2881,-1.2881,-1.2881,-1.292,-1.2907,-1.2882,-1.3,-1.4192,-1.5407,-1.6516,-1.6485,-1.6522,-1.6534,-1.666,-1.671,-1.6785,0.0,0.0,0.0,0.0,0.0,0.0,0.0,0.0,0.0,0.0,0.0,0.0,0.0,0.0,0.0,0.0,0.0,0.0,0.0,0.0,0.0603,0.0513,0.0497,0.0511,0.0561,0.056,0.0575,0.0607,0.0605,0.059,0.056,0.0539,0.0581,0.0582,0.0596,0.0595,0.0544,0.0424,0.031,0.0134,0.0034,-0.0,-0.0,-0.0,-0.0,-0.0,-0.0,0.0,0.0,0.0,0.0,0.0,0.0,0.0,-0.0,-0.0,-0.0,-0.0,-0.0,0.0,0.0,-0.0,0.0,-0.0374,-0.1794,-0.2463,-0.3197,-0.5107,-0.5573,-0.5701,-0.5701,-0.564,-0.5589,-0.5589,-0.573,-0.6083,-0.6588,-0.758,-0.8315,-0.8734,-0.9187,-0.9412,-0.9196,-0.8978,-0.8804,-0.8804,-0.9113,-0.9413,-0.9762,-1.0415,-1.1065,-1.1765,-1.2138,-1.2501,-1.2881,-1.2881,-1.2881,-1.2881,-1.2881,-1.2881,-1.2881,-1.2881,-1.288,-1.2926,-1.2912,-1.3543,-1.4653,-1.4687,-1.5413,-1.6486,-1.6516,-1.6522,-1.6522,-1.6522,-1.6522,-1.6559,0.0,0.0,0.0,0.0,0.0,0.0,0.0,0.0,0.0,0.0,0.0,0.0,0.0,0.0,0.0,0.0,0.0,0.0,0.0,0.0,0.0,0.0503,0.0504,0.0506,0.0511,0.0565,0.0583,0.0599,0.0613,0.0,0.0,0.0,0.0587,0.0583,0.0647,0.0644,0.0542,0.0515,0.035,0.0067,0.0034,-0.0,-0.0,-0.0,-0.0,-0.0,-0.0,-0.0,-0.0,-0.0,0.0,0.0,0.0,0.0,-0.0,-0.0,-0.0183,-0.0379,-0.038,0.0,-0.0143,-0.0674,-0.0762,0.0,-0.36,-0.3568,-0.3434,-0.4756,-0.5328,-0.5542,-0.5515,-0.5406,-0.5418,-0.5656,-0.5963,-0.6383,-0.6916,-0.7822,-0.8534,-0.883,-0.9061,-0.9163,-0.9117,-0.8945,-0.8857,-0.8956,-0.9465,-0.9917,-1.0115,-1.1216,-1.1864,-1.1972,-1.2559,-1.2881,-1.2881,-1.2881,-1.2881,-1.2881,-1.2881,-1.2978,-1.3065,-1.2939,-1.3004,-1.3101,-1.2953,-1.4279,-1.6421,-1.5437,-1.562,-1.6522,-1.6522,-1.6522,-1.6522,-1.6522,-1.6522,-1.6522,0.0,0.0,0.0,0.0,0.0,0.0,0.0,0.0,0.0,0.0,0.0,0.0,0.0,0.0,0.0,0.0,0.0,0.0,0.0,0.0,0.0,0.0504,0.0504,0.0516,0.0577,0.0556,0.0583,0.0703,0.0,0.0,0.0,0.0,0.0,0.0516,0.0,0.0519,0.033,0.0452,0.0474,0.0403,0.0101,-0.0,-0.0,-0.0,-0.0,-0.0,-0.0,-0.0,-0.0,-0.0,-0.0,0.0,0.0,0.0,-0.0,-0.0,-0.0865,-0.1825,0.0,0.0,-0.0633,0.0,-0.388,-0.3664,0.0,0.0,-0.4555,0.0,-0.5164,-0.5352,-0.5216,-0.5176,-0.5315,-0.5879,-0.6002,-0.6513,-0.7974,-0.828,-0.8585,-0.9091,-0.9174,-0.909,-0.8891,-0.8831,-0.9061,-0.9614,-0.9769,-1.032,-1.1458,-1.1715,-1.208,-1.2715,-1.2832,-1.2881,-1.2881,-1.2881,-1.2881,-1.2881,-1.2881,-1.3152,-1.3674,-1.3152,-1.3277,-1.3873,-1.3188,-1.4283,-1.649,-1.6343,-1.6355,-1.6522,-1.6522,-1.6522,-1.6522,-1.6522,-1.6522,-1.6522,0.0,0.0,0.0,0.0,0.0,0.0,0.0,0.0,0.0,0.0,0.0,0.0,0.0,0.0,0.0,0.0,0.0,0.0,0.0,0.0,0.0,0.0504,0.0504,0.051,0.0558,0.0561,0.0591,0.0648,0.0,0.0,0.0,0.0678,0.0622,0.0,0.0,0.0,0.0493,0.0324,0.0208,0.0202,0.0067,-0.0,-0.0,-0.0,-0.0,-0.0,-0.0,-0.0,-0.0,-0.0,-0.0,-0.0,-0.0,0.0,0.0,0.0,-0.0453,-0.1102,-0.1905,-0.2058,-0.2422,0.0,-0.4494,-0.433,-0.3645,0.0,-0.4789,-0.4773,-0.4921,-0.5091,-0.5026,-0.5315,-0.5716,-0.5944,-0.6606,-0.738,-0.8276,-0.8519,-0.8743,-0.9176,-0.9044,-0.8945,-0.8818,-0.9159,-0.9393,-0.9459,-1.0178,-1.0717,-1.1136,-1.1491,-1.1834,-1.2139,-1.2184,-1.2184,-1.2184,-1.2184,-1.2184,-1.2184,-1.2735,-1.2924,-1.2802,-1.3573,-1.4213,-1.4801,-1.4867,-1.5536,-1.6517,-1.6504,-1.6522,-1.6522,-1.6522,-1.6522,-1.6522,-1.6522,-1.6522,-1.6522,0.0,0.0,0.0,0.0,0.0,0.0,0.0,0.0,0.0,0.0,0.0,0.0,0.0,0.0,0.0,0.0,0.0,0.0,0.0,0.0,0.0,0.0504,0.0511,0.0515,0.0515,0.0579,0.0609,0.0,0.0,0.0,0.0686,0.0709,0.0707,0.0,0.0551,0.0,0.0,0.0,0.0,0.0,-0.0,-0.0,-0.0,0.0,-0.0,-0.0,-0.0,-0.0,-0.0,-0.0,-0.0,-0.0,-0.0,-0.0327,0.0,0.0,0.0,0.0,0.0,0.0,-0.3283,-0.4103,-0.4299,-0.4376,0.0,0.0,-0.47,0.0,-0.4838,-0.5033,-0.5033,-0.5537,-0.6083,-0.6384,-0.7213,-0.8008,-0.8429,-0.8841,-0.9037,-0.9105,-0.9245,-0.9263,-0.9061,-0.9592,-0.9872,-0.9852,-1.0586,-1.1058,-1.1003,-1.1391,-1.1606,-1.1606,-1.1606,-1.1606,-1.1606,-1.1606,-1.1606,-1.1606,-1.2645,-1.2903,-1.259,-1.4027,-1.5043,-1.566,-1.6242,-1.6486,-1.6522,-1.6522,-1.6522,-1.6522,-1.6522,-1.6522,-1.6522,-1.6522,-1.6522,-1.6522,0.0,0.0,0.0,0.0,0.0,0.0,0.0,0.0,0.0,0.0,0.0,0.0,0.0,0.0,0.1321,0.1397,0.0,0.0,0.0,0.0,0.0,0.0504,0.0565,0.0,0.0581,0.0611,0.0,0.0,0.0,0.0,0.0717,0.0718,0.0718,0.0716,0.0687,0.0452,0.0039,0.0,0.0,0.0,-0.0,-0.0,-0.0,0.0,0.0,0.0,0.0,0.0,-0.0,-0.0,-0.0,-0.0,-0.0,-0.1257,-0.2768,0.0,0.0,0.0,0.0,-0.1907,0.0,-0.3392,-0.3843,0.0,0.0,0.0,-0.4529,-0.4529,-0.5022,-0.5462,-0.5462,-0.5663,-0.6181,-0.7421,-0.7645,-0.7961,-0.8685,-0.933,-0.9517,-0.8877,-0.9925,-1.0466,-0.9814,-1.0021,-1.0588,-1.1612,-1.1009,-1.1076,-1.2076,-1.1787,-1.1606,-1.1606,-1.1606,-1.1606,-1.1606,-1.1606,-1.1606,-1.1606,-1.2645,-1.3432,-1.4024,-1.4471,-1.5342,-1.6423,-1.6479,-1.6479,-1.6522,-1.6522,-1.6522,-1.6522,-1.6522,-1.6522,-1.6522,-1.6522,-1.6522,-1.6522,0.0,0.0,0.0,0.0,0.0,0.0,0.0,0.0,0.0,0.0,0.0,0.0,0.0,0.1892,0.1493,0.1523,0.0911,0.0,0.0,0.0,0.0,0.0504,0.0566,0.0583,0.0583,0.0632,0.0,0.0,0.0,0.0699,0.069,0.0577,0.0487,0.0517,0.0636,0.0452,-0.0,-0.0,0.0,0.0,-0.0,-0.0,-0.0,0.0,0.0,0.0,0.0,0.0,0.0,-0.0,-0.0,-0.0,-0.0,-0.1317,-0.2915,-0.291,0.0,0.0,0.0,0.0,0.0,-0.3379,-0.3751,-0.4026,-0.428,-0.4395,-0.4625,-0.5054,-0.5324,-0.581,-0.674,-0.697,-0.7171,-0.7628,-0.8103,-0.8633,-0.9361,-0.9666,-0.9865,-1.0064,-1.0517,-1.072,-1.0466,-1.0687,-1.0901,-1.1028,-1.0888,-1.0832,-1.0986,-1.082,-1.0783,-1.0783,-1.0783,-1.0783,-1.0783,-1.0783,-1.1074,-1.1758,-1.2795,-1.3665,-1.4394,-1.5384,-1.6077,-1.6522,-1.6522,-1.6522,-1.6522,-1.6522,-1.6522,-1.6522,-1.6522,-1.6522,-1.6522,-1.6522,-1.6522,-1.6522,0.0,0.0,0.0,0.0,0.0,0.0,0.0,0.0,0.0,0.0,0.0,0.0,0.0,0.0,0.1509,0.1241,0.0772,0.0504,0.0504,0.0504,0.0509,0.0518,0.0582,0.0603,0.0652,0.0,0.0,0.0,0.0,0.0,0.0,0.0568,0.048,0.0387,0.0466,0.0288,0.0,0.0,0.0,-0.0,-0.0,-0.0,-0.0,0.0,0.0,0.0,0.0,0.0,0.0,0.0,-0.0,-0.0135,-0.0764,-0.162,0.0,0.0,0.0,0.0,-0.2282,0.0,0.0,0.0,0.0,-0.3938,-0.4137,0.0,-0.4884,-0.542,-0.5869,-0.6519,-0.7444,-0.7877,-0.8049,-0.8049,-0.848,-0.8956,-0.9413,-0.974,-0.9974,-1.0105,-1.0781,-1.1068,-1.0747,-1.0942,-1.1056,-1.0936,-1.0807,0.0,-1.0498,-1.0352,-1.0283,-1.0283,-1.0283,-1.0283,-1.0283,-1.0467,-1.095,-1.1821,-1.3065,-1.3994,-1.4732,-1.5966,-1.6522,-1.6522,-1.6522,-1.6522,-1.6522,-1.6522,-1.6522,-1.6522,-1.6522,-1.6522,-1.6522,-1.6522,-1.6522,-1.6522,0.0,0.0,0.0,0.0,0.0,0.0,0.0,0.0,0.0,0.0,0.0,0.0,0.0,0.0,0.0,0.0574,0.0541,0.0507,0.0507,0.0507,0.0519,0.0583,0.0,0.0,0.0,0.0,0.0,0.0,0.0,0.0,0.0,0.0,0.0604,0.0403,0.0129,-0.0,-0.0,0.0,-0.0,-0.0,0.0,-0.0,-0.0,0.0,0.0,0.0,-0.0051,-0.0101,0.0,-0.0049,0.0,0.0,0.0,0.0,0.0,0.0,0.0,0.0,0.0,0.0,0.0,0.0,0.0,0.0,-0.4083,0.0,-0.5326,-0.55,-0.6681,-0.7664,-0.7486,-0.8196,-0.8804,-0.8804,-0.8804,-0.8804,-0.8804,-0.96,-0.9883,-0.9013,-1.0757,-1.1621,-1.0745,-1.0786,-1.1084,-1.1557,-1.0802,-1.0459,-1.0869,-1.0508,-1.0283,-1.0283,-1.0283,-1.0322,-1.0322,-1.0774,-1.1309,-1.1882,-1.3385,-1.4449,-1.5085,-1.6046,-1.6522,-1.6522,-1.6522,-1.6522,-1.6522,-1.6522,-1.6522,-1.6522,-1.6522,-1.6522,-1.6522,-1.6522,-1.6522,-1.6522,0.0,0.0,0.0,0.0,0.0,0.0,0.2845,0.2816,0.2768,0.0,0.0,0.0,0.0,0.0,0.199,0.1165,0.109,0.094,0.0603,0.0566,0.0569,0.0616,0.0646,0.0665,0.0716,0.0,0.0,0.0,0.0,0.0,0.0,0.0,0.0,0.0,0.0169,-0.0,-0.0,-0.0,0.0,-0.0,-0.0,-0.0,0.0,0.0,0.0,0.0,0.0,-0.2122,-0.1978,0.0,-0.1036,-0.1108,0.0,0.0,0.0,0.0,0.0,0.0,-0.295,0.0,0.0,0.0,0.0,0.0,0.0,0.0,-0.5444,-0.6015,-0.7003,-0.783,-0.8315,-0.8639,-0.8804,-0.8804,-0.8804,-0.8784,-0.8808,-0.9595,-1.0582,-1.1628,-1.1921,-1.1949,-1.1779,-1.1233,-1.0957,0.0,-1.0586,-1.0332,-1.0449,-1.0342,-1.0283,-1.0283,-1.0283,-1.0467,-1.0791,-1.1365,-1.2261,-1.3488,-1.4351,-1.5222,-1.6113,-1.6361,-1.6522,-1.6522,-1.6522,-1.6522,-1.6522,-1.6522,-1.6522,-1.6522,-1.6522,-1.6522,-1.6522,-1.6522,-1.6522,-1.6522,0.0,0.0,0.0,0.0,0.0,0.283,0.2897,0.2821,0.2794,0.0,0.0,0.0,0.0,0.0,0.2345,0.168,0.1446,0.1175,0.0902,0.0706,0.0594,0.0647,0.0665,0.068,0.0693,0.0,0.0,0.0,0.0,0.0,0.0,0.0,0.0,0.0,0.0,0.0,0.0,0.0,0.0,0.0,-0.0,0.0,0.0,-0.0,-0.0803,0.0,0.0,0.0,-0.3131,-0.2583,-0.2199,0.0,0.0,0.0,0.0,0.0,0.0,0.0,0.0,0.0,0.0,0.0,0.0,0.0,-0.4234,-0.505,-0.5913,0.0,-0.7617,-0.8268,-0.8699,-0.8804,-0.8804,-0.8804,-0.9127,-0.9368,-0.9408,-0.9612,-1.027,-1.1456,-1.1438,-1.1334,-1.1416,-1.0942,-1.0645,-1.0645,-1.042,-1.0283,-1.0283,-1.0283,-1.04,-1.0582,-1.0572,-1.0922,-1.1648,-1.2202,-1.3168,-1.4485,-1.5016,-1.5719,-1.6522,-1.6522,-1.6522,-1.6522,-1.6522,-1.6522,-1.6522,-1.6522,-1.6522,-1.6522,-1.6522,-1.6522,-1.6522,-1.6522,-1.6522,-1.6522,0.0,0.0,0.29,0.29,0.2823,0.2785,0.2886,0.2805,0.2822,0.0,0.0,0.0,0.0,0.0,0.0,0.0,0.1747,0.143,0.1312,0.0956,0.0732,0.072,0.0764,0.0734,0.0718,0.0693,0.069,0.0,0.0,0.0,0.0,0.0,0.0,0.0,0.0,0.0,0.0,0.0,0.0,-0.0,-0.0232,-0.0192,0.0,0.0,-0.1994,-0.447,-0.4323,-0.4031,-0.3711,-0.3684,-0.3414,0.0,0.0,0.0,0.0,0.0,-0.3135,0.0,0.0,0.0,0.0,0.0,0.0,0.0,-0.4718,-0.5524,-0.6335,0.0,-0.8097,-0.8659,-0.8717,-0.8711,-0.8697,-0.8605,-0.9416,-1.0092,-1.0236,-0.9795,-0.9605,-0.9976,-1.0205,-1.0315,-1.0362,-1.032,-1.0283,-1.0283,-1.0283,-1.0283,-1.0283,-1.0351,-1.0582,-1.0981,-1.1109,-1.1627,-1.2546,-1.3135,-1.3978,-1.5012,-1.5525,-1.6045,-1.6522,-1.6522,-1.6522,-1.6522,-1.6522,-1.6522,-1.6522,-1.6522,-1.6522,-1.6522,-1.6522,-1.6522,-1.6522,-1.6522,-1.6522,-1.6522,0.0,0.0,0.3039,0.2933,0.2908,0.2933,0.2965,0.3011,0.3056,0.0,0.0,0.0,0.0,0.0,0.0,0.0,0.2654,0.2264,0.1441,0.1658,0.1491,0.0755,0.1063,0.1067,0.0719,0.0714,0.0701,0.0683,0.0,0.0,0.0,0.0,0.0,0.0,0.0,0.0,0.0,0.0,0.0,-0.014,-0.1707,0.0,-0.015,-0.1307,-0.2918,-0.432,-0.3097,-0.3157,-0.3825,-0.3737,-0.3694,-0.3652,0.0,0.0,0.0,-0.3375,0.0,0.0,0.0,0.0,0.0,0.0,0.0,0.0,-0.3913,-0.4663,-0.5499,0.0,-0.6912,-0.7658,-0.822,-0.8324,-0.8126,-0.745,-0.828,-0.9399,-1.0538,-1.0502,-1.0648,-1.1453,-1.0804,-1.0428,-1.0767,-1.0478,-1.0283,-1.0283,-1.0283,-1.0283,-1.0283,-1.0649,-1.0905,-1.1019,-1.1839,-1.2273,-1.2287,-1.3581,-1.4499,-1.4943,-1.5889,-1.6409,-1.6522,-1.6522,-1.6522,-1.6522,-1.6522,-1.6522,-1.6522,-1.6522,-1.6522,-1.6522,-1.6522,-1.6522,-1.6522,-1.6522,-1.6522,-1.6522,0.0,0.318,0.317,0.3098,0.3126,0.3186,0.3229,0.3162,0.0,0.0,0.0,0.0,0.0,0.0,0.0,0.0,0.0,0.0,0.0,0.1878,0.1523,0.1077,0.1033,0.0943,0.0719,0.0719,0.0712,0.0697,0.0,0.0,0.0,0.0,0.0,0.0,0.0,0.0,0.0,0.0,-0.0,-0.0093,-0.1065,0.0,-0.1562,-0.2866,-0.3831,-0.4396,-0.3644,-0.3707,-0.4186,-0.4118,-0.3994,0.0,-0.3796,-0.3726,-0.3646,0.0,-0.3599,-0.3671,0.0,0.0,0.0,-0.3581,0.0,0.0,0.0,-0.4746,-0.5399,-0.6357,-0.702,-0.7513,-0.799,-0.7983,-0.7775,-0.7309,-0.833,-0.9267,-0.9461,-0.9939,-1.054,-1.1382,-1.0748,-1.0371,-1.0576,-1.041,-1.0283,-1.0283,-1.0283,-1.039,-1.0649,-1.0867,-1.1341,-1.2121,-1.2686,-1.3267,-1.3942,-1.4614,-1.5203,-1.5694,-1.6248,-1.6522,-1.6522,-1.6522,-1.6522,-1.6522,-1.6522,-1.6522,-1.6522,-1.6522,-1.6522,-1.6522,-1.6522,-1.6522,-1.6522,-1.6522,-1.6522,-1.6522,0.3282,0.0,0.3337,0.3337,0.3354,0.341,0.354,0.3354,0.0,0.0,0.0,0.0,0.0,0.0,0.0,0.0,0.0,0.0,0.0,0.226,0.1766,0.1587,0.1172,0.0946,0.0909,0.0768,0.0719,0.0719,0.0,0.0,0.0,0.0,0.0,0.0,0.0,0.0,0.0,0.0,0.0,-0.0,0.0,-0.1128,-0.2894,-0.3767,-0.4055,-0.407,-0.4369,-0.4477,-0.4515,-0.444,-0.4214,-0.3919,-0.3984,-0.3883,0.0,0.0,0.0,0.0,0.0,0.0,0.0,0.0,0.0,-0.3828,0.0,0.0,0.0,-0.6666,-0.7154,0.0,0.0,0.0,0.0,0.0,0.0,0.0,0.0,-0.8819,0.0,-1.0483,-1.04,-1.0244,-1.0166,-1.0156,-1.0195,-1.0273,-1.0321,-1.053,-1.0981,-1.1159,-1.1912,-1.3269,-1.3428,-1.4152,-1.5536,-1.5595,-1.5923,-1.6522,-1.6522,-1.6522,-1.6522,-1.6522,-1.6522,-1.6522,-1.6522,-1.6522,-1.6522,-1.6522,-1.6522,-1.6522,-1.6522,-1.6522,-1.6522,-1.6522,-1.6522,-1.6522,0.3307,0.3358,0.0,0.3484,0.3563,0.3656,0.3675,0.362,0.0,0.0,0.0,0.0,0.0,0.0,0.0,0.0,0.0,0.0,0.3116,0.0,0.0,0.2313,0.2052,0.1821,0.1608,0.1006,0.0719,0.0719,0.0719,0.0,0.0,0.0,0.0,0.0,0.0656,0.0,0.0,0.0,-0.0,0.0,-0.0,-0.0993,0.0,-0.2616,-0.2542,-0.2624,-0.403,-0.4519,-0.4498,0.0,-0.42,-0.4127,0.0,-0.3956,-0.4066,-0.3721,0.0,0.0,0.0,0.0,0.0,0.0,-0.37,0.0,0.0,0.0,-0.5013,-0.5733,0.0,0.0,0.0,0.0,0.0,0.0,0.0,0.0,-0.6543,-0.7449,-0.8522,-0.9319,-0.9925,-1.0127,-0.9709,-0.967,-0.9863,-1.0254,-1.0368,-1.0563,-1.0998,-1.1836,-1.2637,-1.3269,-1.3883,-1.4438,-1.5,-1.5902,-1.6403,-1.6522,-1.6522,-1.6522,-1.6522,-1.6522,-1.6522,-1.6522,-1.6522,-1.6522,-1.6522,-1.6522,-1.6522,-1.6522,-1.6522,-1.6522,-1.6522,-1.6522,-1.6522,-1.6522,0.3565,0.3667,0.0,0.0,0.3749,0.3777,0.373,0.3665,0.0,0.0,0.0,0.0,0.0,0.0,0.0,0.0,0.0,0.3144,0.0,0.0,0.0,0.1884,0.1761,0.1536,0.1105,0.0861,0.0719,0.0719,0.0719,0.0719,0.0,0.0,0.0,0.0,0.0664,0.0,0.029,0.0,-0.0,0.0,0.0,0.0,0.0,-0.3611,-0.3573,-0.3615,-0.4275,-0.4519,-0.4508,0.0,-0.4256,0.0,0.0,0.0,0.0,-0.3866,0.0,0.0,0.0,0.0,0.0,0.0,0.0,0.0,-0.4428,0.0,-0.5058,0.0,0.0,0.0,0.0,0.0,0.0,0.0,-0.6724,0.0,0.0,0.0,-0.8351,0.0,0.0,0.0,-0.9592,-0.9863,-1.0088,-1.0273,-1.059,-1.0862,-1.1148,-1.2307,-1.3053,-1.325,-1.4335,-1.5212,-1.5823,-1.6273,-1.6522,-1.6522,-1.6522,-1.6522,-1.6522,-1.6522,-1.6522,-1.6522,-1.6522,-1.6522,-1.6522,-1.6522,-1.6522,-1.6522,-1.6522,-1.6522,-1.6522,-1.6522,-1.6522,-1.6522,0.3838,0.0,0.0,0.0,0.3812,0.3792,0.37,0.3619,0.0,0.0,0.0,0.0,0.3456,0.3324,0.0,0.0,0.2866,0.257,0.0,0.0,0.2836,0.2029,0.1597,0.1314,0.1067,0.0818,0.0719,0.0719,0.0719,0.0719,0.0,0.0,0.0,0.0,0.0,0.034,-0.0,0.0,-0.0,-0.0198,-0.2389,-0.3524,-0.3912,-0.4341,-0.4515,-0.4473,-0.4522,-0.4519,-0.4512,-0.4419,-0.426,0.0,-0.4287,-0.4144,-0.3979,0.0,0.0,0.0,-0.4005,0.0,0.0,0.0,0.0,0.0,0.0,0.0,0.0,0.0,0.0,0.0,0.0,0.0,0.0,0.0,0.0,-0.6552,0.0,-0.6965,0.0,0.0,0.0,0.0,0.0,-0.9746,-1.0056,-1.0316,-1.0756,-1.1172,-1.1519,-1.2656,-1.3392,-1.3641,-1.4397,-1.5335,-1.6509,-1.6522,-1.6522,-1.6522,-1.6522,-1.6522,-1.6522,-1.6522,-1.6522,-1.6522,-1.6522,-1.6522,-1.6522,-1.6522,-1.6522,-1.6522,-1.6522,-1.6522,-1.6522,-1.6522,-1.6522,-1.6522,0.4061,0.3871,0.0,0.0,0.0,0.37,0.3622,0.0,0.0,0.0,0.0,0.0,0.0,0.0,0.0,0.0,0.0,0.2241,0.2225,0.0,0.2503,0.35,0.215,0.1579,0.0,0.1121,0.0719,0.0719,0.0719,0.0719,0.0,0.0,0.0,0.0,0.0235,-0.0,-0.0,-0.0,-0.0,-0.0,-0.0106,-0.0973,-0.2435,0.0,-0.452,-0.4519,-0.4519,0.0,0.0,-0.43,-0.4197,0.0,0.0,0.0,0.0,0.0,0.0,0.0,0.0,0.0,0.0,-0.4184,0.0,0.0,0.0,0.0,-0.6246,0.0,0.0,0.0,0.0,0.0,0.0,0.0,0.0,0.0,0.0,0.0,0.0,0.0,0.0,0.0,0.0,-0.9043,-0.9417,0.0,-1.0849,-1.1411,-1.2118,-1.283,-1.3717,-1.4827,-1.3823,-1.4328,-1.6466,-1.6522,-1.6522,-1.6522,-1.6522,-1.6522,-1.6522,-1.6522,-1.6522,-1.6522,-1.6522,-1.6522,-1.6522,-1.6522,-1.6522,-1.6522,-1.6522,-1.6522,-1.6522,-1.6522,-1.6522,-1.6522,0.0,0.0,0.0,0.0,0.0,0.0,0.0,0.3581,0.0,0.0,0.3914,0.0,0.0,0.3721,0.3212,0.0,0.0,0.1102,0.0785,0.0697,0.0,0.1644,0.151,0.1334,0.0,0.0832,0.0719,0.0719,0.0719,0.0719,0.0,0.0,0.0,0.0,0.0,-0.0,0.0,0.0,0.0,0.0,0.0,-0.0428,-0.1242,0.0,-0.4488,-0.4519,-0.4519,-0.4519,0.0,-0.4406,-0.4328,-0.4204,-0.43,-0.4521,-0.4855,-0.5166,-0.554,-0.5898,0.0,0.0,-0.6622,-0.5387,0.0,0.0,0.0,0.0,0.0,0.0,0.0,0.0,0.0,0.0,0.0,0.0,0.0,0.0,0.0,0.0,0.0,0.0,0.0,0.0,0.0,0.0,0.0,0.0,-1.0916,-1.1425,-1.1906,-1.274,-1.4034,-1.5918,-1.5558,-1.5758,-1.6466,-1.6522,-1.6522,-1.6522,-1.6522,-1.6522,-1.6522,-1.6522,-1.6522,-1.6522,-1.6522,-1.6522,-1.6522,-1.6522,-1.6522,-1.6522,-1.6522,-1.6522,-1.6522,-1.6522,-1.6522,-1.6572,0.4104,0.0,0.0,0.0,0.0,0.0,0.0,0.0,0.0,0.0,0.3939,0.0,0.4126,0.0,0.3078,0.0,0.0846,0.0299,-0.0,-0.0,0.0,0.0464,0.0823,0.0954,0.0,0.0,0.069,0.069,0.0679,0.0719,0.0719,0.0,0.0,0.0,0.0,-0.0,-0.0,-0.0,-0.0637,0.0,0.0,-0.1678,0.0,0.0,-0.4326,-0.4168,0.0,-0.4519,-0.4519,-0.4519,-0.4402,-0.4391,-0.4754,-0.5014,-0.5366,-0.5963,-0.6422,-0.674,-0.6652,-0.7256,0.0,-0.6276,-0.6683,0.0,-0.6591,0.0,-0.6866,0.0,0.0,0.0,0.0,0.0,0.0,0.0,0.0,0.0,0.0,-0.753,0.0,0.0,0.0,0.0,0.0,0.0,-0.967,-1.0692,-1.1211,-1.1741,-1.227,-1.2878,-1.4228,-1.6415,-1.6485,-1.6522,-1.6522,-1.6522,-1.6522,-1.6522,-1.6522,-1.6522,-1.6522,-1.6522,-1.6522,-1.6522,-1.6522,-1.6522,-1.6522,-1.6522,-1.6522,-1.6522,-1.6522,-1.6522,-1.6522,-1.6522,-1.651,-1.6629,0.424,0.0,0.0,0.0,0.3581,0.0,0.0,0.0,0.3277,0.0,0.3896,0.364,0.3597,0.4063,0.3453,0.0994,0.0318,-0.0,-0.0,-0.0,0.0,0.0,0.0257,0.0462,0.0639,0.0,0.0,0.0669,0.0688,0.0719,0.0719,0.0,0.0,0.0,-0.0,0.0,-0.0,-0.0152,-0.1902,-0.4472,-0.4518,-0.4494,-0.4467,-0.4477,-0.4104,-0.3564,-0.4242,-0.4519,-0.4519,-0.4519,-0.4519,-0.4625,-0.5269,-0.5542,-0.5814,-0.7283,-0.7723,-0.7723,-0.7623,-0.7974,-0.8117,-0.6841,-0.7218,0.0,0.0,0.0,-0.7712,0.0,0.0,0.0,0.0,0.0,0.0,0.0,0.0,0.0,0.0,0.0,0.0,0.0,0.0,0.0,0.0,-0.8787,-0.9329,-1.1077,-1.1557,-1.2153,-1.3156,-1.3317,-1.4335,-1.6447,-1.6515,-1.6522,-1.6522,-1.6522,-1.6522,-1.6522,-1.6522,-1.6522,-1.6522,-1.6522,-1.6522,-1.6522,-1.6522,-1.6522,-1.6522,-1.6522,-1.6522,-1.6522,-1.6522,-1.6522,-1.6522,-1.6522,-1.6504,-1.6679,0.424,0.3928,0.3748,0.0,0.3581,0.3581,0.0,0.0,0.0,0.0,0.4521,0.4655,0.4903,0.3878,0.2909,0.2232,0.0861,0.0,0.0,0.0,0.0,-0.0,0.0052,0.0103,0.016,0.0397,0.0478,0.0478,0.0642,0.0,0.0674,0.0,0.0,0.0,0.0,0.0,-0.0151,-0.2379,-0.3816,-0.4518,-0.4504,-0.4091,-0.3616,0.0,-0.4104,-0.3564,-0.4242,-0.4519,-0.4519,-0.4519,-0.4519,-0.4625,-0.5269,-0.5869,-0.6475,-0.745,-0.8103,-0.8521,-0.8495,-0.8586,-0.8572,-0.8023,-0.8108,-0.8134,0.0,0.0,0.0,0.0,0.0,0.0,0.0,0.0,0.0,0.0,0.0,0.0,0.0,0.0,0.0,-0.9004,0.0,0.0,0.0,-0.8654,-0.8652,-0.8773,-0.9957,-1.1428,-1.3126,-1.475,-1.5929,-1.6473,-1.6515,-1.6522,-1.6522,-1.6522,-1.6522,-1.6522,-1.6522,-1.6522,-1.6522,-1.6522,-1.6522,-1.6522,-1.6522,-1.6522,-1.6522,-1.6522,-1.6522,-1.6522,-1.6522,-1.6522,-1.6522,-1.6522,-1.6504,-1.6671,0.4276,0.0,0.0,0.3766,0.0,0.0,0.3782,0.3617,0.0,0.4504,0.4532,0.0,0.5445,0.4648,0.3398,0.1675,0.0598,0.0,-0.0,0.0,0.0,-0.0,-0.0,-0.0,-0.0,0.0155,0.0,0.0245,0.0,0.0,0.0405,0.0,0.0,0.0,0.0,-0.0093,-0.0493,-0.3329,-0.426,-0.3963,-0.4353,-0.4207,0.0,-0.4326,-0.4249,-0.3965,-0.4375,-0.4519,-0.4519,-0.4519,-0.4519,-0.468,-0.5655,-0.6258,-0.6804,-0.7883,-0.848,-0.8804,-0.8804,-0.8804,-0.8764,-0.8604,-0.8564,-0.8585,-0.8567,-0.8545,-0.882,0.0,-0.9709,-0.969,0.0,0.0,0.0,0.0,0.0,0.0,0.0,0.0,0.0,0.0,-0.9416,0.0,-0.9342,-0.8665,-0.8771,-1.0124,-1.027,-1.0855,-1.2127,-1.4941,-1.6505,-1.6481,-1.6498,-1.6522,-1.6522,-1.6522,-1.6522,-1.6522,-1.6522,-1.6522,-1.6522,-1.6522,-1.6522,-1.6522,-1.6522,-1.6522,-1.6522,-1.6522,-1.6522,-1.6522,-1.6522,-1.6522,-1.6522,-1.6522,-1.6504,-1.6589,0.4364,0.0,0.0,0.0,0.0,0.0,0.0,0.355,0.0,0.4592,0.0,0.459,0.5559,0.5688,0.4259,0.0667,0.0,-0.0,-0.0,-0.0,-0.0,-0.0,-0.0,-0.0,-0.0,-0.0,-0.0,0.0,0.0,0.0,0.0,0.0,0.0,0.0,0.0,0.0,0.0,-0.343,-0.3959,-0.3433,-0.42,-0.4525,-0.4519,-0.4519,-0.4519,-0.4519,-0.4519,-0.4519,-0.4519,-0.4519,-0.457,-0.4846,-0.6209,-0.6642,-0.702,-0.8374,-0.8804,-0.8804,-0.8804,-0.8804,-0.8804,-0.8804,-0.8857,-0.9044,-0.9363,-0.9543,-0.9921,-1.1167,-1.0844,-1.0809,-1.2416,0.0,0.0,0.0,0.0,0.0,0.0,0.0,0.0,0.0,0.0,0.0,0.0,-0.8727,-0.9239,-1.2904,-1.1226,-1.0267,-1.0871,0.0,-1.649,-1.651,-1.6519,-1.6522,-1.6522,-1.6522,-1.6522,-1.6522,-1.6522,-1.6522,-1.6522,-1.6522,-1.6522,-1.6522,-1.6522,-1.6522,-1.6522,-1.6522,-1.6522,-1.6522,-1.6522,-1.6522,-1.6522,-1.6522,-1.6479,-1.6512,0.4196,0.0,0.0,0.0,0.0,0.4134,0.4351,0.4519,0.4641,0.4867,0.5051,0.5229,0.5456,0.548,0.4573,0.2392,0.0839,0.0,0.0,0.0,0.0,-0.0,-0.0,-0.0,-0.0,-0.0,-0.0,0.0,0.0,0.0,0.0,0.0,0.0,0.0,0.0,0.0,-0.3839,-0.3562,0.0,-0.4275,-0.4457,-0.4519,-0.4519,-0.4519,-0.4519,-0.4519,-0.4519,-0.4519,-0.4519,-0.4519,-0.4842,-0.5487,-0.6312,-0.702,-0.767,-0.8533,-0.8804,-0.8804,-0.8804,-0.8804,-0.8804,-0.8804,-0.9211,-0.9651,-0.9695,-1.0183,-1.0772,-1.1567,-1.1612,-1.1562,-1.1798,0.0,0.0,0.0,0.0,0.0,0.0,0.0,0.0,0.0,0.0,-1.0316,0.0,-0.8711,-0.9244,-1.2906,-1.0312,-0.9272,-1.0815,0.0,-1.6481,0.0,-1.6497,-1.6522,0.0,0.0,-1.6522,-1.6522,-1.6522,-1.6522,-1.6522,-1.6522,-1.6522,-1.6522,-1.6522,-1.6522,-1.6522,-1.6522,-1.6522,-1.6522,-1.6522,-1.6522,-1.6522,-1.6522,-1.6504,-1.651,0.0,0.0,0.0,0.0,0.0,0.0,0.0,0.4955,0.5064,0.483,0.4925,0.4982,0.4965,0.5192,0.4686,0.2829,0.107,-0.0,-0.0,-0.0,-0.0,-0.0,-0.0,-0.0,-0.0,-0.0,-0.0,-0.0,0.0,0.0,0.0,0.0,0.0,0.0,0.0,-0.2997,0.0,0.0,0.0,-0.4031,-0.4375,-0.4519,-0.4519,-0.4519,-0.4519,-0.4519,-0.4519,-0.4732,-0.5003,-0.5003,-0.5218,-0.5706,-0.6799,-0.7396,-0.783,-0.8593,-0.8804,-0.8804,-0.8804,-0.8804,-0.8857,-0.9211,-0.9562,-0.9961,-1.0661,-1.1065,-1.1525,-1.2236,-1.2344,-1.228,-1.1968,-1.154,0.0,0.0,0.0,0.0,0.0,0.0,-1.0624,0.0,0.0,0.0,0.0,0.0,0.0,0.0,0.0,0.0,0.0,0.0,-1.6509,0.0,0.0,0.0,-1.6522,0.0,-1.6522,-1.6522,-1.6522,-1.6522,-1.6522,-1.6522,-1.6522,-1.6522,-1.6522,-1.6522,-1.6522,-1.6522,-1.6522,-1.6522,-1.6522,-1.6522,-1.6522,-1.6522,-1.6522,-1.6522,0.0,0.4347,0.0,0.0,0.4594,0.4779,0.4901,0.5169,0.5223,0.4836,0.4782,0.4728,0.4639,0.5001,0.4718,0.3364,0.1282,-0.0,-0.0,-0.0,-0.0,-0.0,-0.0,-0.0,-0.0,-0.0,-0.0,0.0,0.0,0.0,0.0,0.0,0.0,0.0,0.0,0.0,0.0,0.0,-0.4049,-0.3759,-0.4303,-0.4519,-0.4519,-0.4519,-0.4519,-0.4515,-0.468,-0.5054,-0.5542,-0.5869,-0.5973,-0.6195,-0.7337,-0.783,-0.8049,-0.8646,-0.8804,-0.8804,-0.8804,-0.891,-0.9159,-0.9666,-1.0012,-1.0517,-1.1566,-1.1922,-1.2187,-1.2774,-1.2881,-1.2744,-1.2314,-1.2012,0.0,0.0,0.0,0.0,0.0,0.0,-1.1547,0.0,0.0,0.0,-1.2061,0.0,0.0,0.0,0.0,0.0,-1.3653,0.0,0.0,0.0,0.0,-1.6206,-1.6206,0.0,-1.6522,-1.6522,-1.6522,-1.6522,-1.6522,-1.6522,-1.6522,-1.6522,-1.6522,-1.6522,-1.6522,-1.6522,-1.6522,-1.6522,-1.6522,-1.6522,-1.6522,-1.6522,-1.6522,-1.6479,0.0,0.0,0.0,0.0,0.0,0.4904,0.4918,0.5169,0.5294,0.5114,0.5091,0.504,0.5032,0.5002,0.5011,0.5129,0.2012,-0.0,-0.0,-0.0,-0.0,-0.0,-0.0,-0.0,-0.0,-0.0,-0.0,0.0,0.0,-0.0198,0.0,0.0,0.0,0.0,0.0,0.0,0.0,-0.3807,-0.3883,-0.4385,-0.4457,-0.4519,-0.4519,-0.4519,-0.4519,-0.457,-0.5164,-0.5433,-0.5701,-0.7069,-0.7503,-0.7503,-0.767,-0.8156,-0.8699,-0.8758,-0.8804,-0.8804,-0.8804,-0.9263,-0.971,-0.9762,-1.0712,-1.1665,-1.1765,-1.2344,-1.2822,-1.2881,-1.2881,-1.2744,-1.2314,-1.252,-1.2617,0.0,0.0,0.0,0.0,0.0,-1.3549,-1.5872,0.0,0.0,-1.597,-1.4943,0.0,0.0,-1.5556,0.0,0.0,0.0,0.0,-1.4857,-1.509,-1.5235,-1.5235,-1.6088,-1.6522,-1.6522,-1.6522,-1.6522,-1.6522,-1.6522,-1.6522,-1.6522,-1.6522,-1.6522,-1.6522,-1.6522,-1.6522,-1.6522,-1.6522,-1.6522,-1.6522,-1.6522,-1.6522,-1.6516,0.0,0.0,0.0,0.0,0.0,0.0,0.0,0.5284,0.5382,0.53,0.5147,0.5023,0.4939,0.4762,0.4701,0.4848,0.1864,-0.0,-0.0,-0.0,-0.0,-0.0,-0.0,-0.0,-0.0,-0.0,-0.0,0.0,0.0,0.0,0.0,0.0,0.0,0.0,0.0,-0.3936,-0.4474,-0.423,-0.4242,-0.4519,-0.4519,-0.4519,-0.4519,-0.4519,-0.4732,-0.5109,-0.5378,-0.6086,-0.6902,-0.7503,-0.7723,-0.7777,-0.8209,-0.8586,-0.8804,-0.8804,-0.8804,-0.8804,-0.8804,-0.9008,-0.9309,-0.971,-1.0517,-1.1316,-1.1715,-1.2344,-1.2881,-1.2881,-1.2881,-1.2832,-1.2646,-1.2482,-1.2396,-1.254,0.0,0.0,0.0,0.0,0.0,-1.4426,0.0,-1.6016,-1.4773,-1.4605,0.0,0.0,0.0,0.0,0.0,0.0,0.0,-1.4976,0.0,-1.5959,-1.5959,-1.6311,-1.6522,-1.6522,-1.6522,-1.6522,-1.6522,-1.6522,-1.6522,-1.6522,-1.6522,-1.6522,-1.6522,-1.6522,-1.6522,-1.6522,-1.6522,-1.6522,-1.6522,-1.6522,-1.6522,-1.6491,0.4972,0.0,0.4901,0.0,0.5114,0.5125,0.5345,0.5422,0.5233,0.465,0.4975,0.5058,0.4731,0.4606,0.4161,0.3266,0.1203,-0.0,-0.0,-0.0,-0.0,-0.0,-0.0,0.0,-0.0,-0.0,-0.0499,-0.157,-0.1585,0.0,0.0,0.0,0.0,0.0,-0.3958,-0.4492,-0.4485,-0.4477,-0.4543,-0.458,-0.4536,-0.4653,-0.486,-0.4912,-0.5321,-0.5878,-0.6211,-0.6905,-0.7723,-0.7937,-0.8049,-0.8103,-0.8646,-0.8804,-0.8804,-0.8804,-0.8804,-0.8804,-0.8804,-0.8962,-0.9263,-0.9917,-1.0618,-1.1266,-1.1981,-1.251,-1.2881,-1.2881,-1.2881,-1.2881,-1.2881,-1.256,-1.2396,-1.2832,0.0,0.0,0.0,-1.4371,0.0,-1.2573,-1.4239,-1.5109,-1.3919,-1.4334,0.0,0.0,0.0,0.0,0.0,0.0,0.0,0.0,0.0,0.0,-1.6088,-1.6348,-1.6522,-1.6522,-1.6522,-1.6522,-1.6522,-1.6522,-1.6522,-1.6522,-1.6522,-1.6522,-1.6522,-1.6522,-1.6522,-1.6522,-1.6522,-1.6522,-1.6522,-1.6522,-1.6522,-1.6572,0.5101,0.5128,0.5176,0.5332,0.5425,0.5428,0.5376,0.5376,0.4782,0.2959,0.4281,0.5168,0.4551,0.4514,0.3319,0.0336,-0.0,-0.0,-0.0,-0.0,-0.0,0.0,0.0,-0.0,-0.0,-0.0,-0.174,-0.5342,0.0,0.0,-0.5369,0.0,-0.4227,-0.3785,-0.4261,-0.4492,-0.4515,-0.4519,-0.4551,-0.4674,-0.458,-0.4998,-0.5825,-0.5931,-0.6211,-0.6727,-0.7789,-0.794,-0.783,-0.8533,-0.8804,-0.8804,-0.8804,-0.8804,-0.8804,-0.8804,-0.8804,-0.8804,-0.8804,-0.9263,-0.9969,-1.0618,-1.1316,-1.1972,-1.2725,-1.2881,-1.2881,-1.2881,-1.2881,-1.2881,-1.2881,-1.2871,-1.2871,-1.2881,0.0,0.0,0.0,-1.2956,0.0,-1.1098,-1.2412,-1.3773,-1.46,-1.4923,0.0,0.0,0.0,0.0,0.0,0.0,0.0,-1.512,-1.512,0.0,-1.5132,-1.6063,-1.6522,-1.6522,-1.6522,-1.6522,-1.6522,-1.6522,-1.6522,-1.6522,-1.6522,-1.6522,-1.6522,-1.6522,-1.6522,-1.6522,-1.6522,-1.6522,-1.6522,-1.6522,-1.6522,-1.6672,0.5281,0.5287,0.5304,0.5418,0.5415,0.539,0.5372,0.5399,0.4778,0.2939,0.4276,0.5346,0.5117,0.2925,0.1065,0.0,-0.0,-0.0,0.0,-0.0,-0.0,-0.0,-0.0,-0.0,-0.0,-0.2414,-0.4265,-0.5397,0.0,0.0,0.0,-0.4776,-0.4601,-0.4444,-0.4572,-0.4635,-0.4619,-0.4619,-0.5046,-0.5719,-0.5659,-0.6062,-0.6687,-0.6744,-0.6996,-0.7408,-0.7763,-0.8123,-0.848,-0.8699,-0.8804,-0.8804,-0.8804,-0.8804,-0.8804,-0.8804,-0.8804,-0.8804,-0.8804,-0.8956,-0.9263,-0.9961,-1.0618,-1.1316,-1.1981,-1.2559,-1.2881,-1.2881,-1.2881,-1.2881,-1.2881,-1.2881,-1.2881,-1.2881,-1.2881,0.0,-1.289,0.0,-1.3072,-1.3453,-1.3573,-1.406,-1.5191,-1.577,0.0,0.0,0.0,0.0,0.0,0.0,0.0,0.0,-1.5696,0.0,-1.6063,-1.6336,-1.6522,-1.6522,-1.6522,-1.6522,-1.6522,-1.6522,-1.6522,-1.6522,-1.6522,-1.6522,-1.6522,-1.6522,-1.6522,-1.6522,-1.6522,-1.6522,-1.6522,-1.6522,-1.6522,-1.6572,0.5428,0.5428,0.5428,0.5432,0.5429,0.539,0.5384,0.5416,0.4476,0.2006,0.2646,0.3372,0.3388,0.1347,0.0,-0.0,-0.0,-0.0,-0.0,-0.0,-0.0,-0.0,-0.0,-0.0617,-0.2023,-0.4262,0.0,-0.5412,-0.5052,-0.4893,-0.5054,-0.4931,-0.4893,-0.4853,-0.4799,-0.4775,-0.4772,-0.4714,-0.524,-0.6092,-0.6006,-0.6554,-0.7424,-0.7486,-0.7781,-0.8115,-0.8213,-0.8517,-0.8804,-0.8804,-0.8804,-0.8804,-0.8804,-0.8804,-0.8804,-0.8804,-0.8804,-0.8857,-0.9113,-0.9159,-0.9413,-1.0312,-1.0864,-1.1366,-1.203,-1.2559,-1.2881,-1.2881,-1.2881,-1.2881,-1.2881,-1.2881,-1.2881,-1.2881,-1.2881,-1.2881,-1.2881,-1.3308,-1.371,-1.4171,-1.4023,-1.4317,-1.5322,-1.5746,-1.5879,0.0,0.0,0.0,0.0,0.0,-1.5867,-1.5647,-1.6193,-1.6522,-1.6522,-1.6522,-1.6522,-1.6522,-1.6522,-1.6522,-1.6522,-1.6522,-1.6522,-1.6522,-1.6522,-1.6522,-1.6522,-1.6522,-1.6522,-1.6522,-1.6522,-1.6522,-1.6522,-1.6522,-1.6522,-1.6547,0.5428,0.5428,0.5432,0.0,0.5372,0.5397,0.542,0.5186,0.3788,0.0415,-0.0,-0.0,-0.0,-0.0,-0.0,-0.0,0.0,0.0,-0.0,-0.0,-0.0,-0.0,-0.0225,-0.1973,-0.5305,-0.542,-0.5384,-0.5384,-0.5406,-0.5349,-0.5342,-0.5186,-0.5121,-0.5125,-0.4982,-0.4918,-0.4911,-0.4824,-0.5314,-0.6079,-0.5776,-0.6613,-0.8031,-0.8217,-0.8507,-0.8844,-0.9057,-0.9038,-0.8804,-0.8804,-0.8804,-0.8804,-0.8804,-0.8804,-0.8804,-0.8804,-0.8857,-0.9008,-0.9614,-0.9814,-1.0167,-1.1466,-1.1814,-1.208,-1.2725,-1.2881,-1.2881,-1.2881,-1.2881,-1.2881,-1.2881,-1.2881,-1.2881,-1.2881,-1.2881,-1.2881,-1.2881,-1.4015,-1.451,-1.3649,0.0,0.0,-1.5127,-1.521,-1.5543,0.0,0.0,0.0,0.0,0.0,-1.5543,-1.6454,-1.6522,-1.6522,-1.6522,-1.6522,-1.6522,-1.6522,-1.6522,-1.6522,-1.6522,-1.6522,-1.6522,-1.6522,-1.6522,-1.6522,-1.6522,-1.6522,-1.6522,-1.6522,-1.6522,-1.6522,-1.6522,-1.6522,-1.6522,-1.6597,0.0,0.0,0.5376,0.5379,0.5373,0.537,0.5406,0.3049,0.0958,0.0118,-0.0,-0.0,-0.0,-0.0,-0.0,-0.0,-0.0,-0.0,-0.0,-0.0,-0.0,-0.0,-0.2651,-0.4523,-0.5358,-0.5402,-0.5339,-0.5182,-0.5174,-0.5152,-0.5182,-0.5036,-0.5026,-0.5125,-0.4982,-0.4918,-0.4918,-0.5475,-0.6186,-0.7047,-0.7523,-0.8217,-0.8893,-0.8955,-0.8895,-0.8818,-0.8884,-0.8864,-0.8804,-0.8804,-0.8804,-0.8804,-0.8804,-0.8804,-0.8804,-0.8804,-0.9159,-0.9614,-0.9762,-1.0167,-1.0762,-1.1616,-1.2236,-1.2666,-1.2871,-1.2881,-1.2881,-1.2881,-1.2881,-1.2881,-1.2881,-1.2881,-1.2881,-1.2881,-1.2881,-1.2881,-1.2881,-1.4707,-1.5776,0.0,-1.549,-1.5996,-1.615,-1.6181,-1.5971,0.0,0.0,-1.544,-1.544,-1.5222,-1.5543,-1.6454,-1.6522,-1.6522,-1.6522,-1.6522,-1.6522,-1.6522,-1.6522,-1.6522,-1.6522,-1.6522,-1.6522,-1.6522,-1.6522,-1.6522,-1.6522,-1.6522,-1.6522,-1.6522,-1.6522,-1.6522,-1.6522,-1.6522,-1.6522,-1.6534,0.5386,0.5376,0.5382,0.5393,0.5408,0.4872,0.3176,0.1242,-0.0,-0.0,-0.0,-0.0,-0.0,-0.0,-0.0,-0.0,-0.0,-0.0,-0.0,-0.0,-0.0729,-0.2419,-0.4375,-0.542,-0.5412,-0.5414,-0.5335,-0.5247,-0.524,-0.5237,-0.5233,-0.5159,-0.5162,-0.5233,-0.5155,-0.5266,-0.5497,-0.5848,-0.6588,-0.7591,-0.7943,-0.8447,-0.9038,-0.9038,-0.8945,-0.8804,-0.8804,-0.8804,-0.8804,-0.8804,-0.8804,-0.8804,-0.8804,-0.8804,-0.8857,-0.9159,-0.951,-0.9865,-1.0167,-1.0771,-1.1416,-1.2138,-1.2608,-1.2881,-1.2881,-1.2881,-1.2881,-1.2881,-1.2881,-1.2881,-1.2881,-1.2881,-1.2881,-1.2881,-1.2908,-1.2907,-1.291,-1.4482,-1.552,-1.5097,-1.5888,-1.6504,-1.6479,-1.6522,-1.6298,-1.5775,-1.5751,0.0,-1.5751,-1.5751,-1.5971,-1.6466,-1.6522,-1.6522,-1.6522,-1.6522,-1.6522,-1.6522,-1.6522,-1.6522,-1.6522,-1.6522,-1.6522,-1.6522,-1.6522,-1.6522,-1.6522,-1.6522,-1.6522,-1.6522,-1.6522,-1.6522,-1.6522,-1.6522,-1.6522,-1.6522,0.5379,0.5382,0.5389,0.541,0.4919,0.3522,0.0454,-0.0,-0.0,-0.0,-0.0,-0.0,-0.0,-0.0,-0.0,-0.0,-0.0,-0.0,-0.0,-0.0,-0.1628,-0.523,-0.5413,-0.5388,-0.5388,-0.5428,-0.5377,-0.5428,-0.5428,-0.5428,-0.5428,-0.5338,-0.5338,-0.5425,-0.5533,-0.5754,-0.6204,-0.6293,-0.6973,-0.7845,-0.7859,-0.8262,-0.8804,-0.8804,-0.8804,-0.8804,-0.8804,-0.8804,-0.8804,-0.8804,-0.8804,-0.8804,-0.8804,-0.8804,-0.8956,-0.9614,-0.9865,-1.0115,-1.0771,-1.1466,-1.2129,-1.2725,-1.2881,-1.2881,-1.2881,-1.2881,-1.2881,-1.2881,-1.2881,-1.2881,-1.2881,-1.2881,-1.291,-1.2909,-1.2912,-1.2822,-1.2541,0.0,-1.4741,-1.4789,-1.58,-1.6522,-1.6522,-1.6522,-1.6522,-1.6522,-1.6522,-1.6522,-1.6522,-1.6522,-1.6522,-1.6522,-1.6522,-1.6522,-1.6522,-1.6522,-1.6522,-1.6522,-1.6522,-1.6522,-1.6522,-1.6522,-1.6522,-1.6522,-1.6522,-1.6522,-1.6522,-1.6522,-1.6522,-1.6522,-1.6522,-1.6522,-1.6522,-1.6522,-1.6522,-1.6522,0.5403,0.5393,0.541,0.5413,0.2839,0.0649,0.0065,-0.0,-0.0,-0.0,-0.0,-0.0,-0.0,-0.0,-0.0,-0.0,-0.0,-0.0,-0.0,-0.0,-0.1628,-0.523,-0.5407,-0.5376,-0.5422,-0.5385,-0.5404,-0.5428,-0.5428,-0.5428,-0.5425,-0.5226,-0.5237,-0.5422,-0.5993,-0.6141,-0.609,-0.7488,-0.792,-0.7776,-0.8394,-0.8699,-0.8804,-0.8804,-0.8804,-0.8804,-0.8804,-0.8804,-0.8804,-0.8804,-0.8804,-0.8804,-0.8804,-0.8804,-0.8956,-0.9614,-1.0218,-1.0813,-1.1466,-1.2187,-1.2774,-1.2881,-1.2881,-1.2881,-1.2881,-1.2881,-1.2881,-1.2881,-1.2881,-1.2881,-1.2881,-1.2881,-1.289,-1.2896,-1.2905,-1.2416,-1.0924,0.0,-1.4824,-1.5177,-1.5961,-1.6522,-1.6522,-1.6522,-1.6522,-1.6522,-1.6522,-1.6522,-1.6522,-1.6522,-1.6522,-1.6522,-1.6522,-1.6522,-1.6522,-1.6522,-1.6522,-1.6522,-1.6522,-1.6522,-1.6522,-1.6522,-1.6522,-1.6522,-1.6522,-1.6522,-1.6522,-1.6522,-1.6522,-1.6522,-1.6522,-1.6522,-1.6522,-1.6522,-1.6522,-1.6522,0.5423,0.5406,0.4797,0.2831,0.1114,-0.0,-0.0,-0.0,-0.0,-0.0,-0.0,-0.0,-0.0,-0.0,-0.0,-0.0,-0.0,-0.0,-0.0,-0.1515,-0.3154,-0.4867,-0.4314,-0.4391,-0.5368,-0.5284,-0.5277,-0.5428,-0.5428,-0.5428,-0.5425,-0.5287,-0.5291,-0.5425,-0.6185,-0.6559,-0.6644,-0.7887,-0.8357,-0.8321,-0.8646,-0.8804,-0.8804,-0.8804,-0.8804,-0.8804,-0.8804,-0.8804,-0.8804,-0.8804,-0.8804,-0.8804,-0.8804,-0.9061,-0.9458,-1.0167,-1.0813,-1.1466,-1.2197,-1.2657,-1.2881,-1.2881,-1.2881,-1.2881,-1.2881,-1.2881,-1.2881,-1.2881,-1.2881,-1.2881,-1.2881,-1.2881,-1.288,-1.2877,-1.2875,-1.2616,-1.1826,-1.3627,-1.5004,-1.5006,-1.5881,-1.6522,-1.6522,-1.6522,-1.6522,-1.6522,-1.6522,-1.6522,-1.6522,-1.6522,-1.666,-1.6974,-1.6685,-1.6522,-1.6522,-1.6522,-1.6522,-1.6522,-1.6522,-1.6522,-1.6522,-1.6522,-1.6522,-1.6522,-1.6522,-1.6522,-1.6522,-1.6522,-1.6522,-1.6522,-1.6522,-1.6522,-1.6522,-1.6522,-1.6522,-1.6522,0.5433,0.473,0.3297,0.0468,-0.0,-0.0,-0.0,-0.0,-0.0,-0.0,-0.0,-0.0,-0.0,-0.0,-0.0,-0.0,-0.0,-0.028,-0.1009,-0.321,-0.4521,-0.4514,-0.37,-0.3909,-0.5301,-0.5226,-0.5243,-0.5428,-0.5428,-0.5428,-0.5428,-0.5428,-0.5474,-0.5632,-0.653,-0.701,-0.7336,-0.8213,-0.8646,-0.8804,-0.8804,-0.8804,-0.8804,-0.8804,-0.8804,-0.8804,-0.8804,-0.8804,-0.8804,-0.8804,-0.8804,-0.8804,-0.8804,-0.9159,-0.9718,-1.0568,-1.1425,-1.2187,-1.2774,-1.2881,-1.2881,-1.2881,-1.2881,-1.2881,-1.2881,-1.2881,-1.2881,-1.2881,-1.2881,-1.2881,-1.2881,-1.2881,-1.29,-1.288,0.0,-1.3017,-1.3417,-1.4695,-1.5494,-1.5336,-1.6146,-1.6722,-1.6722,-1.6597,-1.6522,-1.6522,-1.6635,-1.666,-1.6522,-1.6647,-1.6861,-1.7174,-1.6886,-1.666,-1.6522,-1.6522,-1.6522,-1.6522,-1.6522,-1.6584,-1.671,-1.6572,-1.6597,-1.671,-1.6572,-1.6522,-1.6522,-1.6522,-1.6522,-1.6522,-1.6522,-1.6522,-1.6522,-1.6522,-1.6522,-1.6522,0.5416,0.2695,0.0334,0.0065,-0.0,-0.0,-0.0,-0.0,-0.0,-0.0,-0.0,-0.0,-0.0,-0.0,-0.0,-0.0,-0.0,-0.1177,-0.3999,-0.4399,-0.4514,-0.4514,-0.4785,-0.5003,-0.5145,-0.5277,-0.5418,-0.5428,-0.5428,-0.5428,-0.5428,-0.5428,-0.5672,-0.6211,-0.7024,-0.7581,-0.7886,-0.8757,-0.9037,-0.8804,-0.8804,-0.8804,-0.8804,-0.8804,-0.8804,-0.8804,-0.8804,-0.8804,-0.8804,-0.8804,-0.8804,-0.8804,-0.8804,-0.8857,-0.9113,-1.0415,-1.1742,-1.2832,-1.2881,-1.2881,-1.2881,-1.2881,-1.2881,-1.2881,-1.2881,-1.2881,-1.2881,-1.2881,-1.2881,-1.2881,-1.2881,-1.2881,-1.288,-1.2913,0.0,0.0,-1.5028,-1.5861,-1.6524,-1.7062,-1.7239,-1.7313,-1.7313,-1.6835,-1.6522,-1.6522,-1.7024,-1.7087,-1.6547,-1.7024,-1.7087,-1.6597,-1.7061,-1.7061,-1.6522,-1.6522,-1.6522,-1.6522,-1.6522,-1.6798,-1.73,-1.676,-1.681,-1.7287,-1.6748,-1.6522,-1.6522,-1.6522,-1.6522,-1.6522,-1.6522,-1.6522,-1.6522,-1.6522,-1.6522,-1.6522,0.2568,0.0943,-0.0,-0.0,-0.0,-0.0,-0.0,-0.0,-0.0,-0.0,-0.0,-0.0,-0.0,-0.0,-0.0,-0.0,-0.1685,-0.3266,-0.4399,-0.4507,-0.4541,-0.469,-0.47,-0.4858,-0.5125,-0.5101,-0.5179,-0.5428,-0.5428,-0.5428,-0.5428,-0.5428,-0.5782,-0.6544,-0.7182,-0.7754,-0.8259,-0.8914,-0.9017,-0.8804,-0.8804,-0.8804,-0.8804,-0.8804,-0.8804,-0.8804,-0.8804,-0.8804,-0.8804,-0.8804,-0.8804,-0.8804,-0.8804,-0.9361,-1.032,-1.1692,-1.2461,-1.2881,-1.2881,-1.2881,-1.2881,-1.2881,-1.2881,-1.2881,-1.2881,-1.2881,-1.2881,-1.2881,-1.2881,-1.2881,-1.2881,-1.2881,-1.3233,-1.4286,0.0,-1.3963,-1.4811,-1.5324,-1.5846,-1.6553,-1.6965,-1.725,-1.7413,-1.7488,-1.7426,-1.7074,-1.7576,-1.7652,-1.7087,-1.6923,-1.6911,-1.7049,-1.6923,-1.6735,-1.6522,-1.6522,-1.6697,-1.7049,-1.7049,-1.735,-1.789,-1.7664,-1.7501,-1.7375,-1.7149,-1.6848,-1.6522,-1.6522,-1.6522,-1.6522,-1.6522,-1.6522,-1.6522,-1.6522,-1.6522,-1.6522,0.0541,-0.0,-0.0,-0.0,-0.0,-0.0,-0.0,-0.0,-0.0,-0.0,-0.0,-0.0,-0.0,-0.0,-0.0,-0.0,-0.2757,-0.4294,-0.3822,-0.4209,-0.4584,-0.4687,-0.4625,-0.4677,-0.4986,-0.4989,-0.5084,-0.5287,-0.5338,-0.5338,-0.5287,-0.5287,-0.5902,-0.6913,-0.721,-0.7812,-0.8691,-0.8942,-0.8985,-0.8804,-0.8804,-0.8804,-0.8804,-0.8804,-0.8804,-0.8804,-0.8804,-0.8804,-0.8804,-0.8804,-0.8962,-0.9106,-0.9106,-1.0012,-1.1316,-1.2246,-1.2725,-1.2881,-1.2881,-1.2881,-1.2881,-1.2881,-1.2881,-1.2881,-1.2881,-1.291,-1.2889,-1.2889,-1.2916,-1.2884,-1.2884,-1.3341,-1.4053,-1.5215,-1.4769,-1.4415,-1.4794,-1.5139,-1.5595,-1.6208,-1.6899,-1.7423,-1.7515,-1.7937,-1.8053,-1.7664,-1.8154,-1.8292,-1.7915,-1.7187,-1.7049,-1.7614,-1.6911,-1.6609,-1.6785,-1.6609,-1.681,-1.7388,-1.7388,-1.7765,-1.8455,-1.8292,-1.8091,-1.789,-1.7714,-1.7313,-1.681,-1.6974,-1.6835,-1.6534,-1.6722,-1.6685,-1.6522,-1.6522,-1.6522,-1.6522,-0.0,-0.0,-0.0,-0.0,-0.0,-0.0,-0.0,-0.0,-0.0,-0.0,-0.0,-0.0,-0.0,-0.0,-0.0,-0.0,-0.2757,-0.3831,-0.2343,-0.3622,-0.4519,-0.4519,-0.4609,-0.4691,-0.4691,-0.4979,-0.5128,-0.5128,-0.5284,-0.5281,-0.5128,-0.5128,-0.5906,-0.7279,-0.7004,-0.7757,-0.9163,-0.8931,-0.8804,-0.8804,-0.8804,-0.8804,-0.8804,-0.8804,-0.8804,-0.8804,-0.8804,-0.8804,-0.8804,-0.8804,-0.9263,-0.9814,-0.9814,-1.072,-1.1814,-1.1814,-1.2344,-1.2881,-1.2881,-1.2881,-1.2881,-1.2881,-1.2881,-1.2881,-1.2881,-1.2876,-1.2902,-1.2902,-1.2896,-1.2895,-1.2895,-1.4287,-1.5392,-1.5392,-1.4948,-1.4804,-1.532,-1.5711,-1.6069,-1.643,-1.7303,-1.7891,-1.7879,-1.8105,-1.8216,-1.8216,-1.8719,-1.8983,-1.8983,-1.799,-1.7639,-1.8191,-1.7124,-1.681,-1.7375,-1.681,-1.681,-1.7388,-1.7388,-1.7965,-1.8958,-1.8468,-1.8518,-1.8945,-1.8455,-1.7903,-1.7438,-1.7978,-1.7539,-1.6584,-1.7162,-1.7036,-1.6491,-1.6522,-1.6522,-1.6522,-0.0,-0.0,-0.0,-0.0,-0.0,-0.0,-0.0,-0.0,-0.0,-0.0,-0.0,-0.0,-0.0,-0.0,-0.0,-0.0,-0.1797,-0.3149,-0.3755,-0.4245,-0.4519,-0.4519,-0.4563,-0.4579,-0.4687,-0.4775,-0.4874,-0.4982,-0.503,-0.5026,-0.4982,-0.4982,-0.5799,-0.7279,-0.7004,-0.7757,-0.9163,-0.8931,-0.8804,-0.8804,-0.8804,-0.8804,-0.8804,-0.8804,-0.8804,-0.8804,-0.8804,-0.8804,-0.8804,-0.8804,-0.9263,-0.9969,-1.0914,-1.1466,-1.1913,-1.2403,-1.2715,-1.2939,-1.3242,-1.3121,-1.2915,-1.289,-1.2881,-1.2881,-1.2881,-1.2876,-1.2902,-1.2902,-1.3848,-1.4653,-1.4653,-1.5075,-1.5411,-1.543,-1.5265,-1.5199,-1.5397,-1.5521,-1.577,-1.6415,-1.7181,-1.7756,-1.7863,-1.8769,-1.9183,-1.8807,-1.8883,-1.9183,-1.9547,-1.8543,-1.8216,-1.8769,-1.8078,-1.7601,-1.7388,-1.681,-1.681,-1.7388,-1.7777,-1.8342,-1.8983,-1.9233,-1.9208,-1.897,-1.8857,-1.8468,-1.7978,-1.8141,-1.8003,-1.7714,-1.789,-1.7852,-1.7652,-1.7275,-1.7124,-1.7061,-0.0,-0.0,-0.0,-0.0,-0.0,-0.0,-0.0,-0.0,-0.0,-0.0,-0.0,-0.0,-0.0,-0.1066,-0.1796,-0.1794,-0.2579,-0.3477,-0.4435,-0.4473,-0.4519,-0.4519,-0.4519,-0.4563,-0.4599,-0.466,-0.4735,-0.483,-0.4891,-0.4887,-0.483,-0.483,-0.5707,-0.7211,-0.6936,-0.7672,-0.9163,-0.8931,-0.8804,-0.8804,-0.8804,-0.8804,-0.8804,-0.8804,-0.8804,-0.8804,-0.8804,-0.8804,-0.8804,-0.8804,-0.9413,-1.0415,-1.1783,-1.2236,-1.2323,-1.2968,-1.3135,-1.3223,-1.3643,-1.3555,-1.3365,-1.3377,-1.3123,-1.2907,-1.2881,-1.2898,-1.3114,-1.3768,-1.4705,-1.5401,-1.5401,-1.5401,-1.5406,-1.5372,-1.5412,-1.5424,-1.5381,-1.541,-1.5584,-1.6036,-1.6698,-1.7357,-1.7739,-1.8746,-1.9352,-1.9309,-1.9334,-1.9472,-1.9786,-1.8995,-1.8781,-1.9321,-1.8593,-1.8154,-1.8028,-1.7476,-1.7363,-1.7714,-1.8267,-1.8807,-1.9346,-1.966,-1.9623,-1.9334,-1.9334,-1.9032,-1.8543,-1.8756,-1.8581,-1.8229,-1.8442,-1.8392,-1.8141,-1.7589,-1.7388,-1.73,-0.0,-0.0,-0.0,-0.0,-0.0,-0.0,-0.0,-0.0,-0.0,-0.0,-0.0,-0.0,-0.0,-0.2701,-0.4524,-0.4514,-0.4494,-0.448,-0.448,-0.4525,-0.4519,-0.4519,-0.4519,-0.4519,-0.4519,-0.4599,-0.467,-0.467,-0.4809,-0.4806,-0.4786,-0.4786,-0.5641,-0.7161,-0.6843,-0.7635,-0.913,-0.8918,-0.8804,-0.8804,-0.8804,-0.8804,-0.8804,-0.8804,-0.8804,-0.8804,-0.8804,-0.8804,-0.8804,-0.8956,-0.9814,-1.1074,-1.2461,-1.2881,-1.2959,-1.3379,-1.3506,-1.3613,-1.4009,-1.4136,-1.4145,-1.4184,-1.3657,-1.3101,-1.2947,-1.3048,-1.3549,-1.5113,-1.5407,-1.54,-1.5381,-1.5381,-1.5449,-1.5527,-1.5537,-1.5527,-1.5645,-1.5645,-1.5645,-1.5751,-1.6378,-1.7108,-1.7767,-1.8487,-1.917,-1.9822,-1.9823,-1.9798,-1.9798,-1.9359,-1.9309,-1.9786,-1.8857,-1.8568,-1.902,-1.8581,-1.8292,-1.8216,-1.8769,-1.9284,-1.9736,-1.9786,-1.9798,-1.9798,-1.9798,-1.9535,-1.9133,-1.961,-1.9233,-1.8392,-1.8844,-1.8719,-1.8204,-1.7555,-1.733,-1.7255,-0.0,-0.0,-0.0,-0.0,-0.0,-0.0,-0.0,-0.0,-0.0,-0.0,-0.0,-0.0,-0.0,-0.2701,-0.4524,-0.4514,-0.4494,-0.448,-0.448,-0.4525,-0.4519,-0.4519,-0.4519,-0.4519,-0.4519,-0.4553,-0.4567,-0.4567,-0.4545,-0.4818,-0.5329,-0.5329,-0.6156,-0.7589,-0.7478,-0.7973,-0.8898,-0.8831,-0.8804,-0.8804,-0.8804,-0.8804,-0.8804,-0.8804,-0.8804,-0.8804,-0.8804,-0.8804,-0.8956,-1.0012,-1.0568,-1.1074,-1.2461,-1.2881,-1.2959,-1.3379,-1.3506,-1.3672,-1.4434,-1.4564,-1.4576,-1.4992,-1.4975,-1.4508,-1.321,-1.3908,-1.4982,-1.5339,-1.539,-1.5387,-1.5414,-1.5399,-1.5632,-1.6292,-1.6445,-1.6683,-1.7327,-1.7449,-1.768,-1.8386,-1.909,-1.9621,-1.9792,-2.0104,-2.0304,-2.0476,-2.0062,-1.9798,-1.9798,-1.9698,-1.9685,-1.9798,-1.9572,-1.9321,-1.8983,-1.9309,-1.9032,-1.8216,-1.8769,-1.9033,-1.9208,-1.961,-1.9798,-1.9798,-1.9798,-1.9736,-1.9648,-1.9761,-1.966,-1.9422,-1.9145,-1.8908,-1.8634,-1.7166,-1.6974,-1.73,-0.0,-0.0,-0.0,-0.0,-0.0,-0.0,-0.0,-0.0,-0.0,-0.0,-0.0,-0.0561,-0.1967,-0.3551,-0.4514,-0.4497,-0.448,-0.4525,-0.4525,-0.4522,-0.4519,-0.4519,-0.4519,-0.4519,-0.4519,-0.4519,-0.4519,-0.4519,-0.4519,-0.4842,-0.5487,-0.5487,-0.6303,-0.7723,-0.7723,-0.8103,-0.8804,-0.8804,-0.8804,-0.8804,-0.8804,-0.8804,-0.8804,-0.8804,-0.8804,-0.8804,-0.8804,-0.8804,-0.9008,-1.0364,-1.0813,-1.1074,-1.2461,-1.3018,-1.3262,-1.3682,-1.3955,-1.4258,-1.4912,-1.5011,-1.506,-1.5352,-1.5399,-1.5172,-1.4288,-1.477,-1.5426,-1.5399,-1.6074,-1.6628,-1.6617,-1.6655,-1.6821,-1.7256,-1.7329,-1.7362,-1.7522,-1.7832,-1.8169,-1.8654,-1.9361,-2.0018,-2.0366,-2.0816,-2.1008,-2.0743,-2.0627,-2.0489,-2.0225,-2.0213,-2.0213,-2.0213,-1.9949,-1.9673,-1.9397,-1.966,-1.9522,-1.897,-1.9258,-1.9547,-1.9811,-1.9798,-1.9798,-1.9798,-1.9798,-1.9798,-1.9798,-1.9798,-1.9798,-1.9748,-1.9233,-1.8983,-1.8845,-1.7414,-1.6712,-1.65,-0.0,-0.0,-0.0,-0.0,-0.0,-0.0,-0.0,-0.0,-0.0,-0.0,-0.0,-0.1122,-0.4185,-0.4518,-0.4501,-0.448,-0.4525,-0.4519,-0.4519,-0.4519,-0.4519,-0.4519,-0.4519,-0.4519,-0.4519,-0.4519,-0.4519,-0.4519,-0.4519,-0.4897,-0.5706,-0.5706,-0.6465,-0.7883,-0.7883,-0.8209,-0.8804,-0.8804,-0.8804,-0.8804,-0.8804,-0.8804,-0.8804,-0.8804,-0.8804,-0.8804,-0.8804,-0.8857,-0.9159,-1.0517,-1.0965,-1.1225,-1.251,-1.3125,-1.3496,-1.3941,-1.4394,-1.4785,-1.5283,-1.541,-1.542,-1.542,-1.5381,-1.539,-1.539,-1.542,-1.5507,-1.577,-1.6994,-1.8004,-1.7991,-1.8002,-1.8002,-1.8002,-1.8224,-1.8173,-1.7376,-1.8062,-1.8588,-1.8465,-1.9199,-2.0039,-2.0815,-2.1329,-2.1443,-2.1033,-2.128,-2.1292,-2.0882,-2.0857,-2.0857,-2.0857,-2.0338,-2.0087,-2.0087,-2.0087,-2.0137,-2.0225,-2.0137,-2.0238,-2.0555,-2.0024,-1.9798,-1.9798,-1.9798,-1.9798,-1.9798,-1.9798,-1.9798,-1.9748,-1.9133,-1.8833,-1.8756,-1.7639,-1.6544,-1.5632,-0.0,-0.0,-0.0,-0.0,-0.0,-0.0,-0.0,-0.0,-0.0,-0.0,-0.0,-0.1122,-0.4185,-0.4511,-0.4494,-0.448,-0.4525,-0.4519,-0.4519,-0.4519,-0.4519,-0.4519,-0.4519,-0.4519,-0.4519,-0.4519,-0.4519,-0.4519,-0.4519,-0.5171,-0.648,-0.648,-0.7235,-0.8646,-0.8646,-0.8699,-0.8804,-0.8804,-0.8804,-0.8804,-0.8804,-0.8804,-0.8804,-0.8804,-0.8804,-0.8804,-0.8804,-0.9159,-0.9865,-1.1216,-1.1665,-1.1823,-1.2618,-1.292,-1.3125,-1.3906,-1.4116,-1.4394,-1.5195,-1.541,-1.542,-1.5393,-1.54,-1.5425,-1.5408,-1.5373,-1.5808,-1.7367,-1.7861,-1.8021,-1.8034,-1.8016,-1.8016,-1.8016,-1.9229,-1.966,-1.8097,-1.9874,-2.1093,-2.0325,-2.1031,-2.1848,-2.266,-2.2426,-2.2171,-2.2096,-2.1719,-2.1455,-2.138,-2.138,-2.138,-2.138,-2.1305,-2.1255,-2.1255,-2.1255,-2.1493,-2.197,-2.1493,-2.079,-1.9911,-1.9836,-1.9798,-1.9798,-1.9798,-1.9798,-1.9798,-1.9798,-1.9798,-1.9698,-1.8706,-1.8317,-1.8179,-1.7049,-1.6212,-1.5676,-0.0,-0.0,-0.0,-0.0,-0.0,-0.0,-0.0,-0.0,-0.0,-0.0,-0.0,-0.0802,-0.299,-0.3993,-0.449,-0.4525,-0.4522,-0.4519,-0.4519,-0.4519,-0.4519,-0.4519,-0.4519,-0.4519,-0.4519,-0.4519,-0.4519,-0.4519,-0.4519,-0.5226,-0.6588,-0.6588,-0.7402,-0.8804,-0.8804,-0.8804,-0.8804,-0.8804,-0.8804,-0.8804,-0.8804,-0.8804,-0.8804,-0.8804,-0.8804,-0.8804,-0.8804,-0.9211,-0.9991,-1.1207,-1.1701,-1.1995,-1.3205,-1.3418,-1.3398,-1.4248,-1.4492,-1.4629,-1.5244,-1.541,-1.5371,-1.539,-1.6135,-1.6818,-1.685,-1.685,-1.7071,-1.7825,-1.8009,-1.7976,-1.7988,-1.8017,-1.7995,-1.7995,-1.8634,-1.9588,-2.066,-2.0756,-2.0977,-2.1892,-2.231,-2.2689,-2.3078,-2.2912,-2.2636,-2.2334,-2.2372,-2.2272,-2.197,-2.1945,-2.1945,-2.1945,-2.1656,-2.1493,-2.1493,-2.1493,-2.1606,-2.1845,-2.1606,-2.1393,-2.1192,-2.0891,-2.0577,-2.0288,-2.0288,-2.01,-1.9798,-1.9798,-1.9798,-1.9723,-1.8957,-1.8292,-1.7593,-1.6446,-1.6051,-1.6095]},{"header":{"parameterUnit":"m.s-1","parameterCategory":1,"la1":30.6,"la2":28.766,"lo1":-90.7593,"lo2":-88.6598,"dy":0.0162,"dx":0.0183,"nx":116,"ny":114,"refTime":"2023-05-14T06:00:00:Z","depth":0,"parameterNumber":3,"parameterNumberName":"V-component_of_WINDS"},"data":[0.0,0.0,0.0,0.0,0.0,0.0,0.0,0.0,0.0,0.0,0.0,0.0,0.0,0.0,0.0,0.0,0.0,0.0,0.0,0.0,0.0,0.0,0.0,0.0,0.0,0.0,0.0,0.0,0.0,0.0,0.0,0.0,0.0,0.0,0.0,0.0,0.0,0.0,0.0,0.0,0.0,0.0,0.0,0.0,0.0,0.0,0.0,0.0,0.0,0.0,0.0,0.0,0.0,0.0,0.0,0.0,0.0,0.0,0.0,0.0,0.0,0.0,0.0,0.0,0.0,0.0,0.0,0.0,0.0,0.0,0.0,0.0,0.0,0.0,0.0,0.0,0.0,0.0,0.0,0.0,0.0,0.0,0.0,0.0,0.0,0.0,0.0,0.0,0.0,0.0,0.0,0.0,0.0,0.0,0.0,0.0,0.0,0.0,0.0,0.0,0.0,0.0,0.0,0.0,0.0,0.0,0.0,0.0,0.0,0.0,0.0,0.0,0.0,0.0,0.0,0.0,0.0,0.0,0.0,0.0,0.0,0.0,0.0,0.0,0.0,0.0,0.0,0.0,0.0,0.0,0.0,0.0,0.0,0.0,0.0,0.0,0.0,0.0,0.0,0.0,0.0,0.0,0.0,0.0,0.0,0.0,0.0,0.0,0.0,0.0,0.0,0.0,0.0,0.0,0.0,0.0,0.0,0.0,0.0,0.0,0.0,0.0,0.0,0.0,0.0,0.0,0.0,0.0,0.0,0.0,0.0,0.0,0.0,0.0,0.0,0.0,0.0,0.0,0.0,0.0,0.0,0.0,0.0,0.0,0.0,0.0,0.0,0.0,0.0,0.0,0.0,0.0,0.0,0.0,0.0,0.0,0.0,0.0,0.0,0.0,0.0,0.0,0.0,0.0,0.0,0.0,0.0,0.0,0.0,0.0,0.0,0.0,0.0,0.0,0.0,0.0,0.0,0.0,0.0,0.0,0.0,0.0,0.0,0.0,0.0,0.0,0.0,0.0,0.0,0.0,0.0,0.0,0.0,0.0,0.0,0.0,0.0,0.0,0.0,0.0,0.0,0.0,0.0,0.0,0.0,0.0,0.0,0.0,0.0,0.0,0.0,0.0,0.0,0.0,0.0,0.0,0.0,0.0,0.0,0.0,0.0,0.0,0.0,0.0,0.0,0.0,0.0,0.0,0.0,0.0,0.0,0.0,0.0,0.0,0.0,0.0,0.0,0.0,0.0,0.0,0.0,0.0,0.0,0.0,0.0,0.0,0.0,0.0,0.0,0.0,0.0,0.0,0.0,0.0,0.0,0.0,0.0,0.0,0.0,0.0,0.0,0.0,0.0,0.0,0.0,0.0,0.0,0.0,0.0,0.0,0.0,0.0,0.0,0.0,0.0,0.0,0.0,0.0,0.0,0.0,0.0,0.0,0.0,0.0,0.0,0.0,0.0,0.0,0.0,0.0,0.0,0.0,0.0,0.0,0.0,0.0,0.0,0.0,0.0,0.0,0.0,0.0,0.0,0.0,0.0,0.0,0.0,0.0,0.0,0.0,0.0,0.0,0.0,0.0,0.0,0.0,0.0,0.0,0.0,0.0,0.0,0.0,0.0,0.0,0.0,0.0,0.0,0.0,0.0,0.0,0.0,0.0,0.0,0.0,0.0,0.0,0.0,0.0,0.0,0.0,0.0,0.0,0.0,0.0,0.0,0.0,0.0,0.0,0.0,0.0,0.0,0.0,0.0,0.0,0.0,0.0,0.0,0.0,0.0,0.0,0.0,0.0,0.0,0.0,0.0,0.0,0.0,0.0,0.0,0.0,0.0,0.0,0.0,0.0,0.0,0.0,0.0,0.0,0.0,0.0,0.0,0.0,0.0,0.0,0.0,0.0,0.0,0.0,0.0,0.0,0.0,0.0,0.0,0.0,0.0,0.0,0.0,0.0,0.0,0.0,0.0,0.0,0.0,0.0,0.0,0.0,0.0,0.0,0.0,0.0,0.0,0.0,0.0,0.0,0.0,0.0,0.0,0.0,0.0,0.0,0.0,0.0,0.0,0.0,0.0,0.0,0.0,0.0,0.0,0.0,0.0,0.0,0.0,0.0,0.0,0.0,0.0,0.0,0.0,0.0,0.0,0.0,0.0,0.0,0.0,0.0,0.0,0.0,0.0,0.0,0.0,0.0,0.0,0.0,0.0,0.0,0.0,0.0,0.0,0.0,0.0,0.0,0.0,0.0,0.0,0.0,0.0,0.0,0.0,0.0,0.0,0.0,0.0,0.0,0.0,0.0,0.0,0.0,0.0,0.0,0.0,0.0,0.0,0.0,0.0,0.0,0.0,0.0,0.0,0.0,0.0,0.0,0.0,0.0,0.0,0.0,0.0,0.0,0.0,0.0,0.0,0.0,0.0,0.0,0.0,0.0,0.0,0.0,0.0,0.0,0.0,0.0,0.0,0.0,0.0,0.0,0.0,0.0,0.0,0.0,0.0,0.0,0.0,0.0,0.0,0.0,0.0,0.0,0.0,0.0,0.0,0.0,0.0,0.0,0.0,0.0,0.0,0.0,0.0,0.0,0.0,0.0,0.0,0.0,0.0,0.0,0.0,0.0,0.0,0.0,0.0,0.0,0.0,0.0,0.0,0.0,0.0,0.0,0.0,0.0,0.0,0.0,0.0,0.0,0.0,0.0,0.0,0.0,0.0,0.0,0.0,0.0,0.0,0.0,0.0,0.0,0.0,0.0,0.0,0.0,0.0,0.0,0.0,0.0,0.0,0.0,0.0,0.0,0.0,0.0,0.0,0.0,0.0,0.0,0.0,0.0,0.0,0.0,0.0,0.0,0.0,0.0,0.0,0.0,0.0,0.0,0.0,0.0,0.0,0.0,0.0,0.0,0.0,0.0,0.0,0.0,0.0,0.0,0.0,0.0,0.0,0.0,0.0,0.0,0.0,0.0,0.0,0.0,0.0,0.0,0.0,0.0,0.0,0.0,0.0,0.0,0.0,0.0,0.0,0.0,0.0,0.0,0.0,0.0,0.0,0.0,0.0,0.0,0.0,0.0,0.0,0.0,0.0,0.0,0.0,0.0,0.0,0.0,0.0,0.0,0.0,0.0,0.0,0.0,0.0,0.0,0.0,0.0,0.0,0.0,0.0,0.0,0.0,0.0,0.0,0.0,0.0,0.0,0.0,0.0,0.0,0.0,0.0,0.0,0.0,0.0,0.0,0.0,0.0,0.0,0.0,0.0,0.0,0.0,0.0,0.0,0.0,0.0,0.0,0.0,0.0,0.0,0.0,0.0,0.0,0.0,0.0,0.0,0.0,0.0,0.0,0.0,0.0,0.0,0.0,0.0,0.0,0.0,0.0,0.0,0.0,0.0,0.0,0.0,0.0,0.0,0.0,0.0,0.0,0.0,0.0,0.0,0.0,0.0,0.0,0.0,0.0,0.0,0.0,0.0,0.0,0.0,0.0,0.0,0.0,0.0,0.0,0.0,0.0,0.0,0.0,0.0,0.0,0.0,0.0,0.0,0.0,0.0,0.0,0.0,0.0,0.0,0.0,0.0,0.0,0.0,0.0,0.0,0.0,0.0,0.0,0.0,0.0,0.0,0.0,0.0,0.0,0.0,0.0,0.0,0.0,0.0,0.0,0.0,0.0,0.0,0.0,0.0,0.0,0.0,0.0,0.0,0.0,0.0,0.0,0.0,0.0,0.0,0.0,0.0,0.0,0.0,0.0,0.0,0.0,0.0,0.0,0.0,0.0,0.0,0.0,0.0,0.0,0.0,0.0,0.0,0.0,0.0,0.0,0.0,0.0,0.0,0.0,0.0,0.0,0.0,0.0,0.0,0.0,0.0,0.0,0.0,0.0,0.0,0.0,0.0,0.0,0.0,0.0,0.0,0.0,0.0,0.0,0.0,0.0,0.0,0.0,0.0,0.0,0.0,0.0,0.0,0.0,0.0,0.0,0.0,0.0,0.0,0.0,0.0,0.0,0.0,0.0,0.0,0.0,0.0,0.0,0.0,0.0,0.0,0.0,0.0,0.0,0.0,0.0,0.0,0.0,0.0,0.0,0.0,0.0,0.0,0.0,0.0,0.0,0.0,0.0,0.0,0.0,0.0,0.0,0.0,0.0,0.0,0.0,0.0,0.0,0.0,0.0,0.0,0.0,0.0,0.0,0.0,0.0,0.0,0.0,0.0,0.0,0.0,0.0,0.0,0.0,0.0,0.0,0.0,0.0,0.0,0.0,0.0,0.0,0.0,0.0,0.0,0.0,0.0,0.0,0.0,0.0,0.0,0.0,0.0,0.0,0.0,0.0,0.0,0.0,0.0,0.0,0.0,0.0,0.0,0.0,0.0,0.0,0.0,0.0,0.0,0.0,0.0,0.0,0.0,0.0,0.0,0.0,0.0,0.0,0.0,0.0,0.0,0.0,0.0,0.0,0.0,0.0,0.0,0.0,0.0,0.0,0.0,0.0,0.0,0.0,0.0,0.0,0.0,0.0,0.0,0.0,0.0,0.0,0.0,0.0,0.0,0.0,0.0,0.0,0.0,0.0,0.0,0.0,0.0,0.0,0.0,0.0,0.0,0.0,0.0,0.0,0.0,0.0,0.0,0.0,0.0,0.0,0.0,0.0,0.0,0.0,0.0,0.0,0.0,0.0,0.0,0.0,0.0,0.0,0.0,0.0,0.0,0.0,0.0,0.0,0.0,0.0,0.0,0.0,0.0,0.0,0.0,0.0,0.0,0.0,0.0,0.0,0.0,0.0,0.0,0.0,0.0,0.0,0.0,0.0,0.0,0.0,0.0,0.0,0.0,0.0,0.0,0.0,0.0,0.0,0.0,0.0,0.0,0.0,0.0,0.0,0.0,0.0,0.0,0.0,0.0,0.0,0.0,0.0,0.0,0.0,0.0,0.0,0.0,0.0,0.0,0.0,0.0,0.0,0.0,0.0,0.0,0.0,0.0,0.0,0.0,0.0,0.0,0.0,0.0,0.0,0.0,0.0,0.0,0.0,0.0,0.0,0.0,0.0,0.0,0.0,0.0,0.0,0.0,0.0,0.0,0.0,0.0,0.0,0.0,0.0,0.0,0.0,0.0,0.0,0.0,0.0,0.0,0.0,0.0,0.0,0.0,0.0,0.0,0.0,0.0,0.0,0.0,0.0,0.0,0.0,0.0,0.0,0.0,0.0,0.0,0.0,0.0,0.0,0.0,0.0,0.0,0.0,0.0,0.0,0.0,0.0,0.0,0.0,0.0,0.0,0.0,0.0,0.0,0.0,0.0,0.0,0.0,0.0,0.0,0.0,0.0,0.0,0.0,0.0,0.0,0.0,0.0,0.0,0.0,0.0,0.0,0.0,0.0,0.0,0.0,0.0,0.0,0.0,0.0,0.0,0.0,0.0,0.0,0.0,0.0,0.0,0.0,0.0,0.0,0.0,0.0,0.0,0.0,0.0,0.0,0.0,0.0,0.0,0.0,0.0,0.0,0.0,0.0,0.0,0.0,0.0,0.0,0.0,0.0,0.0,0.0,0.0,0.0,0.0,0.0,0.0,0.0,0.0,0.0,0.0,0.0,0.0,0.0,0.0,0.0,0.0,0.0,0.0,0.0,0.0,0.0,0.0,0.0,0.0,0.0,0.0,0.0,0.0,0.0,0.0,0.0,0.0,0.0,0.0,0.0,0.0,0.0,0.0,0.0,0.0,0.0,0.0,0.0,0.0,0.0,0.0,0.0,0.0,0.0,0.0,0.0,0.0,0.0,0.0,0.0,0.0,0.0,0.0,0.0,0.0,0.0,0.0,0.0,0.0,0.0,0.0,0.0,0.0,0.0,0.0,0.0,0.0,0.0,0.0,0.0,0.0,0.0,0.0,0.0,0.0,0.0,0.0,0.0,0.0,0.0,0.0,0.0,0.0,0.0,0.0,0.0,0.0,0.0,0.0,0.0,0.0,0.0,0.0,0.0,0.0,0.0,0.0,0.0,0.0,0.0,0.0,0.0,0.0,0.0,0.0,0.0,0.0,0.0,0.0,0.0,0.0,0.0,0.0,0.0,0.0,0.0,0.0,0.0,0.0,0.0,0.0,0.0,0.0,0.0,0.0,0.0,-1.1597,0.0,0.0,0.0,0.0,0.0,0.0,0.0,0.0,0.0,0.0,0.0,0.0,0.0,0.0,0.0,0.0,0.0,0.0,0.0,0.0,0.0,0.0,0.0,0.0,0.0,0.0,0.0,0.0,0.0,0.0,0.0,0.0,0.0,0.0,0.0,0.0,0.0,0.0,0.0,0.0,0.0,0.0,0.0,0.0,0.0,0.0,0.0,0.0,0.0,0.0,0.0,0.0,0.0,0.0,0.0,0.0,0.0,0.0,0.0,0.0,0.0,0.0,0.0,0.0,0.0,0.0,0.0,0.0,0.0,0.0,0.0,0.0,0.0,0.0,0.0,0.0,0.0,0.0,0.0,0.0,0.0,0.0,0.0,0.0,0.0,0.0,0.0,0.0,0.0,0.0,0.0,0.0,0.0,0.0,0.0,0.0,0.0,0.0,0.0,0.0,0.0,0.0,0.0,0.0,0.0,0.0,0.0,0.0,0.0,0.0,0.0,0.0,0.0,0.0,0.0,0.0,-1.1733,0.0,0.0,0.0,0.0,0.0,0.0,0.0,0.0,0.0,0.0,0.0,0.0,0.0,0.0,0.0,0.0,0.0,0.0,0.0,0.0,0.0,0.0,0.0,0.0,0.0,0.0,0.0,0.0,0.0,0.0,0.0,0.0,0.0,0.0,0.0,0.0,0.0,0.0,0.0,0.0,0.0,0.0,0.0,0.0,0.0,0.0,0.0,0.0,0.0,0.0,0.0,0.0,0.0,0.0,0.0,0.0,0.0,0.0,0.0,0.0,0.0,0.0,0.0,0.0,0.0,0.0,0.0,0.0,0.0,0.0,0.0,0.0,0.0,0.0,0.0,0.0,0.0,0.0,0.0,0.0,0.0,0.0,0.0,0.0,0.0,0.0,0.0,0.0,0.0,0.0,0.0,0.0,0.0,0.0,0.0,0.0,0.0,0.0,0.0,0.0,0.0,0.0,0.0,0.0,0.0,0.0,0.0,0.0,-1.6479,-1.5891,-1.5554,-1.495,-1.5116,-1.5802,-1.3742,-1.3149,-1.3523,-1.2207,0.0,0.0,0.0,0.0,0.0,0.0,0.0,0.0,0.0,0.0,0.0,0.0,0.0,0.0,0.0,0.0,0.0,0.0,0.0,0.0,0.0,0.0,0.0,0.0,0.0,0.0,0.0,0.0,0.0,0.0,0.0,0.0,0.0,0.0,0.0,0.0,0.0,0.0,-1.6606,-1.6651,-1.7815,-1.9791,-1.7674,0.0,0.0,0.0,0.0,0.0,0.0,0.0,0.0,0.0,0.0,0.0,0.0,0.0,0.0,0.0,0.0,0.0,0.0,0.0,0.0,0.0,0.0,0.0,0.0,0.0,0.0,0.0,0.0,0.0,0.0,0.0,0.0,0.0,0.0,0.0,0.0,0.0,0.0,0.0,0.0,0.0,0.0,0.0,-1.6578,-1.6578,0.0,0.0,0.0,0.0,0.0,0.0,0.0,0.0,0.0,0.0,0.0,0.0,0.0,-1.4095,-1.3886,-1.4719,-1.6426,-1.8959,-1.7481,-1.6735,-1.6684,-1.6593,-1.662,-1.672,-1.6395,0.0,-1.4532,-1.4606,0.0,0.0,0.0,0.0,0.0,0.0,0.0,0.0,0.0,0.0,0.0,0.0,0.0,0.0,0.0,0.0,0.0,0.0,0.0,0.0,0.0,0.0,0.0,0.0,0.0,0.0,0.0,0.0,0.0,0.0,0.0,0.0,0.0,0.0,0.0,0.0,-1.4892,-1.5512,-1.6443,-1.6818,-1.7787,-1.9131,-1.8176,-1.8172,-1.8864,-1.8364,0.0,0.0,0.0,0.0,0.0,0.0,0.0,0.0,0.0,0.0,0.0,0.0,0.0,0.0,0.0,0.0,0.0,0.0,0.0,0.0,0.0,0.0,0.0,0.0,0.0,0.0,0.0,0.0,0.0,0.0,0.0,0.0,0.0,0.0,0.0,0.0,0.0,0.0,0.0,-1.6,-1.5936,-1.5594,-1.5574,-1.5459,0.0,0.0,0.0,0.0,0.0,0.0,0.0,0.0,0.0,-1.558,-1.5747,-1.6266,-1.7197,-1.7197,-1.8831,-2.2024,-2.0427,-1.9656,-1.9656,-1.9656,-1.9656,-1.9601,-1.8665,-1.8525,-1.8771,-1.6235,-1.5191,-1.5034,0.0,0.0,0.0,0.0,-1.4145,-1.7168,0.0,0.0,0.0,0.0,0.0,0.0,0.0,0.0,0.0,0.0,0.0,0.0,0.0,0.0,0.0,-1.4961,0.0,0.0,0.0,0.0,0.0,0.0,0.0,0.0,0.0,0.0,0.0,0.0,-1.5273,-1.593,-1.6753,-1.7586,-1.8473,-1.9356,-1.9269,-1.9161,-1.9029,-1.8239,-1.8004,0.0,0.0,0.0,0.0,0.0,0.0,0.0,0.0,0.0,0.0,0.0,0.0,0.0,0.0,0.0,0.0,0.0,0.0,0.0,0.0,0.0,0.0,0.0,0.0,0.0,0.0,0.0,0.0,0.0,0.0,0.0,0.0,0.0,0.0,0.0,0.0,0.0,0.0,-1.6423,-1.6114,-1.5221,-1.5731,-1.5822,0.0,0.0,0.0,0.0,0.0,0.0,-1.6836,-1.761,-1.7822,-1.7348,-1.713,-1.826,-2.0807,-2.0844,-2.2062,-2.4458,-2.3279,-2.27,-2.27,-2.2494,-2.2511,-2.2626,-2.1386,-2.1719,-2.2863,-1.8819,-1.7388,-1.7567,-1.5558,-1.5097,-1.5419,-1.4278,-1.5792,-1.8886,0.0,0.0,0.0,0.0,0.0,0.0,0.0,0.0,0.0,0.0,0.0,0.0,0.0,0.0,-1.5651,-1.5647,-1.5695,-1.5686,0.0,0.0,0.0,0.0,0.0,0.0,0.0,0.0,0.0,-1.4811,-1.6025,-1.7339,-1.879,-1.985,-2.1094,-2.2452,-2.1752,-2.047,-1.8764,-1.7956,-1.7625,-1.7664,0.0,0.0,0.0,0.0,0.0,0.0,0.0,0.0,0.0,0.0,0.0,0.0,0.0,0.0,0.0,0.0,0.0,0.0,0.0,0.0,0.0,0.0,0.0,0.0,0.0,0.0,0.0,0.0,0.0,0.0,0.0,0.0,0.0,0.0,0.0,0.0,0.0,0.0,0.0,-1.6977,-1.7477,0.0,0.0,0.0,0.0,-1.6898,-1.7776,-1.8609,-1.9369,-1.9639,-1.9789,-1.9821,-1.8232,-1.9821,-2.4946,-2.5004,-2.5081,-2.5243,-2.5157,-2.5119,-2.5098,-2.4396,-2.4457,-2.5119,-2.5023,-2.5206,-2.538,-2.3274,-2.1504,-2.0035,-1.9085,-1.9843,-2.1205,-1.9064,-1.9087,-2.0496,0.0,0.0,0.0,0.0,0.0,0.0,0.0,0.0,0.0,0.0,0.0,0.0,0.0,-1.5573,-1.5922,-1.6432,-1.6476,-1.6255,-1.5735,0.0,0.0,0.0,0.0,0.0,0.0,0.0,-1.5843,-1.6025,-1.7139,-1.828,-1.9473,-1.9646,-2.0622,-2.2235,-2.1788,-2.1137,-2.0229,-1.8768,-1.7626,-1.6884,-1.6961,-1.7379,0.0,0.0,0.0,0.0,0.0,0.0,0.0,0.0,0.0,0.0,0.0,0.0,0.0,0.0,0.0,0.0,0.0,0.0,0.0,0.0,0.0,0.0,0.0,0.0,0.0,0.0,0.0,0.0,0.0,0.0,0.0,0.0,0.0,0.0,0.0,0.0,0.0,-1.7748,-1.8834,0.0,-1.8186,-1.8151,-1.836,-1.8677,-1.9719,-2.0465,-2.0739,-2.1397,-2.1771,-2.1798,-2.1205,-2.1779,-2.3678,-2.4774,-2.5303,-2.5303,-2.5303,-2.5303,-2.5303,-2.5037,-2.5049,-2.5303,-2.5303,-2.5409,-2.5524,-2.4812,-2.3784,-2.2584,-2.2277,-2.2559,-2.3035,-2.2246,-2.2603,-2.3624,0.0,0.0,0.0,0.0,0.0,0.0,0.0,0.0,0.0,0.0,0.0,-1.5048,-1.5699,-1.5735,-1.6028,-1.6835,-1.6646,-1.6258,-1.5727,0.0,0.0,0.0,0.0,0.0,0.0,-1.6304,-1.7064,-1.7786,-1.8412,-1.9366,-2.0575,-2.0453,-2.1185,-2.2558,-2.2399,-2.2071,-2.1593,-2.0208,-1.8677,-1.7104,-1.6834,-1.7268,-1.8001,0.0,0.0,0.0,0.0,0.0,0.0,0.0,0.0,0.0,0.0,0.0,0.0,0.0,0.0,0.0,0.0,0.0,0.0,0.0,0.0,0.0,0.0,0.0,0.0,0.0,0.0,0.0,0.0,0.0,0.0,0.0,0.0,0.0,0.0,0.0,-1.8882,-1.8633,-2.0037,-2.0622,-1.9597,-1.9862,-2.022,-2.0489,-2.1567,-2.2324,-2.2611,-2.3266,-2.3639,-2.3639,-2.3639,-2.3639,-2.3639,-2.4755,-2.5303,-2.5303,-2.5303,-2.5303,-2.5303,-2.5303,-2.5322,-2.537,-2.537,-2.5447,-2.5572,-2.5542,-2.5113,-2.4463,-2.4455,-2.4417,-2.4372,-2.4355,-2.4788,-2.537,0.0,0.0,0.0,0.0,0.0,0.0,0.0,0.0,0.0,0.0,-1.4269,-1.5072,-1.5818,-1.5769,-1.6031,-1.6817,-1.6151,-1.5659,-1.5658,-1.4226,0.0,0.0,0.0,0.0,-1.6642,-1.7421,-1.8501,-1.9929,-1.9888,-2.0628,-2.2123,-2.2437,-2.2973,-2.3692,-2.3692,-2.3298,-2.2594,-2.2285,-2.0743,-1.8419,-1.7437,-1.7761,-1.8739,0.0,0.0,0.0,0.0,0.0,0.0,0.0,0.0,0.0,0.0,0.0,0.0,0.0,0.0,0.0,0.0,0.0,0.0,0.0,0.0,0.0,0.0,0.0,0.0,0.0,0.0,0.0,0.0,0.0,0.0,0.0,0.0,0.0,-1.9737,-2.0313,-2.0499,-1.9798,-2.1125,-2.155,-2.0191,-2.0751,-2.1536,-2.2332,-2.3305,-2.4194,-2.4972,-2.5184,-2.5303,-2.5303,-2.5303,-2.5303,-2.5303,-2.5303,-2.5303,-2.5303,-2.5303,-2.5303,-2.5303,-2.5303,-2.537,-2.5505,-2.5505,-2.5572,-2.5683,-2.5628,-2.5601,-2.5591,-2.5537,-2.5508,-2.5483,-2.5418,-2.5418,-2.5457,0.0,0.0,0.0,0.0,0.0,0.0,0.0,0.0,0.0,0.0,-1.4663,-1.5035,-1.5695,-1.5714,-1.6009,-1.6829,-1.563,-1.4858,-1.4897,0.0,0.0,0.0,0.0,0.0,-1.8301,-1.9633,-2.0439,-2.071,-2.1199,-2.18,-2.2458,-2.2314,-2.2747,-2.3692,-2.3692,-2.344,-2.3048,-2.3199,-2.2434,-2.0917,-1.8999,-1.8516,-1.8858,0.0,0.0,0.0,0.0,0.0,0.0,0.0,0.0,0.0,0.0,0.0,0.0,0.0,0.0,0.0,0.0,0.0,0.0,0.0,0.0,0.0,0.0,0.0,0.0,0.0,0.0,0.0,0.0,0.0,0.0,0.0,0.0,-2.1155,-2.1688,-2.1815,-2.2002,-2.2373,-2.339,-2.3875,-2.3477,-2.3739,-2.401,-2.4245,-2.4651,-2.4974,-2.5214,-2.5264,-2.5303,-2.5303,-2.5303,-2.5303,-2.5303,-2.5303,-2.5303,-2.5303,-2.5303,-2.5303,-2.5303,-2.5303,-2.537,-2.5505,-2.5447,-2.5478,-2.5542,-2.5541,-2.554,-2.5534,-2.5517,-2.5464,-2.5425,-2.5418,-2.5269,-2.5031,0.0,0.0,0.0,0.0,0.0,0.0,0.0,0.0,0.0,0.0,-1.4865,-1.5113,-1.5718,-1.5475,-1.5473,-1.5936,-1.4794,-1.3915,-1.3616,0.0,0.0,0.0,0.0,-1.7824,-2.0116,-2.1043,-2.1768,-2.2341,-2.2445,-2.2783,-2.34,-2.3109,-2.3363,-2.404,-2.3939,-2.3795,-2.3631,-2.3816,-2.3562,-2.2821,-2.1166,-2.0407,-2.0187,-1.9163,-1.9557,-2.0607,-2.0363,-2.0083,-1.9806,-1.9893,0.0,0.0,0.0,0.0,0.0,0.0,0.0,0.0,0.0,0.0,0.0,0.0,0.0,0.0,0.0,0.0,0.0,0.0,0.0,0.0,0.0,0.0,0.0,0.0,-2.2747,-2.3149,-2.3658,-2.3194,-2.3139,-2.4024,-2.4574,-2.4923,-2.4987,-2.5084,-2.5141,-2.5141,-2.5224,-2.5303,-2.5303,-2.5303,-2.5303,-2.5303,-2.5303,-2.5303,-2.5303,-2.5303,-2.5303,-2.5303,-2.5303,-2.5303,-2.5341,-2.537,-2.5447,-2.5534,-2.5466,-2.5473,-2.5535,-2.5477,-2.546,0.0,0.0,0.0,0.0,0.0,-2.5012,-2.4689,0.0,0.0,0.0,0.0,0.0,0.0,0.0,0.0,0.0,0.0,0.0,-1.5212,-1.5735,-1.5047,-1.4574,-1.4581,-1.3699,-1.2839,0.0,0.0,0.0,-1.5889,-1.7562,-1.9549,-2.1926,-2.209,-2.2829,-2.4284,-2.3548,-2.3672,-2.4528,-2.4339,-2.4357,-2.4528,-2.4339,-2.4321,-2.4395,-2.4395,-2.445,-2.4487,-2.3768,-2.2972,-2.2068,-2.0877,-2.126,-2.2343,-2.1917,-2.1273,-2.0631,-2.0678,0.0,0.0,0.0,0.0,0.0,0.0,0.0,0.0,0.0,0.0,0.0,0.0,0.0,0.0,0.0,0.0,0.0,0.0,0.0,0.0,0.0,0.0,0.0,0.0,-2.4928,-2.5476,-2.5572,-2.4591,-2.4145,-2.4946,-2.5034,-2.5099,-2.5274,-2.5303,-2.5303,-2.5303,-2.5303,-2.5303,-2.5303,0.0,0.0,0.0,0.0,-2.5303,-2.5303,-2.5303,-2.5303,-2.5322,-2.5303,-2.5341,-2.5409,-2.5476,-2.5523,-2.5595,-2.552,-2.5527,-2.5563,-2.5447,-2.538,-2.534,-2.534,-2.534,-2.533,-2.5061,-2.4733,-2.4389,0.0,0.0,0.0,0.0,0.0,0.0,0.0,0.0,0.0,-1.4903,-1.5076,-1.5082,-1.5099,-1.4327,-1.3809,-1.3822,-1.2429,-1.1472,0.0,0.0,-1.532,-1.6939,-1.9273,-2.1349,-2.3121,-2.3855,-2.4366,-2.4685,-2.4535,-2.455,-2.4746,-2.47,-2.47,-2.4746,-2.47,-2.5042,-2.5643,-2.5643,-2.6054,-2.6688,-2.6537,-2.5016,-2.272,-2.1606,-2.1498,-2.1899,-2.1589,-2.148,-2.151,-2.1782,-2.1674,-2.1392,-2.1026,0.0,0.0,0.0,0.0,0.0,0.0,0.0,0.0,0.0,0.0,0.0,0.0,0.0,0.0,0.0,0.0,0.0,0.0,0.0,0.0,-2.4889,-2.5793,-2.6601,-2.7294,-2.6598,-2.5808,-2.5311,-2.5234,-2.5264,-2.5303,-2.5303,-2.5303,-2.5303,-2.5303,-2.5303,-2.5303,-2.5303,-2.5322,-2.539,-2.5322,-2.5303,-2.5303,-2.5303,-2.5341,-2.5466,0.0,0.0,-2.5476,-2.5485,-2.5507,-2.5514,-2.5506,-2.5488,-2.5447,-2.5409,-2.5271,-2.5084,-2.5084,-2.5084,-2.503,-2.4727,-2.4386,-2.4044,0.0,0.0,0.0,0.0,0.0,0.0,0.0,0.0,0.0,0.0,-1.5158,-1.5151,-1.5005,-1.4612,-1.4188,-1.3787,-1.2596,0.0,0.0,-1.4793,-1.7103,-1.9114,-2.1192,-2.2873,-2.4124,-2.4577,-2.4804,-2.4804,-2.4804,-2.4828,-2.4904,-2.4828,-2.4828,-2.4891,-2.4828,-2.5257,-2.5993,-2.5993,-2.6499,-2.7289,-2.7289,-2.6443,-2.5051,-2.4072,-2.3791,-2.3838,-2.3293,-2.2885,-2.2644,-2.2797,-2.252,-2.2009,-2.1553,-2.1023,-2.0307,0.0,0.0,0.0,0.0,0.0,0.0,0.0,0.0,0.0,0.0,0.0,0.0,0.0,0.0,-2.1177,0.0,0.0,-2.4706,-2.6381,-2.7411,-2.8007,-2.7997,-2.7995,-2.7495,-2.611,-2.5572,-2.5303,-2.5303,-2.5322,-2.5341,-2.5341,-2.539,-2.5409,-2.5409,-2.5409,-2.562,-2.6102,-2.5642,-2.5611,-2.6044,-2.562,-2.5428,-2.5505,-2.5476,-2.5487,-2.5553,-2.5553,-2.5554,-2.5547,-2.5508,-2.5453,-2.538,-2.5261,-2.5091,-2.4891,-2.4795,-2.4747,-2.4704,-2.4368,-2.4081,-2.3806,0.0,0.0,0.0,0.0,0.0,0.0,0.0,0.0,0.0,0.0,-1.4999,-1.5094,-1.5131,-1.4985,-1.456,0.0,0.0,0.0,0.0,-1.6375,-1.8774,-2.1055,-2.2735,-2.4024,-2.4883,-2.4902,-2.4902,-2.4902,-2.4902,-2.4962,-2.5065,-2.4949,-2.4943,-2.5065,-2.512,-2.5598,-2.6375,-2.6527,-2.711,-2.7903,-2.7903,-2.7903,-2.7789,-2.6769,-2.6218,-2.5918,-2.5276,-2.4257,-2.3294,-2.3655,-2.3126,-2.2218,-2.1937,-2.111,-1.9945,-1.848,-1.7773,0.0,0.0,0.0,0.0,0.0,0.0,0.0,0.0,0.0,-2.0405,-2.154,-2.1908,-2.2628,-2.4514,-2.5177,-2.6081,-2.7981,-2.9043,-2.939,-2.8676,-2.8916,-2.8597,-2.7075,-2.6111,-2.5524,-2.537,-2.5543,-2.5601,-2.5436,-2.5637,-2.5676,-2.5502,-2.5502,-2.5831,-2.6535,-2.5861,-2.584,-2.6552,-2.5857,-2.5514,-2.5524,-2.5517,-2.5543,-2.5595,-2.5595,-2.5586,-2.5563,-2.5486,-2.5408,-2.5301,-2.5061,-2.4877,-2.4716,-2.4528,-2.4409,-2.4319,-2.41,-2.3846,-2.3522,0.0,0.0,0.0,0.0,0.0,0.0,0.0,0.0,0.0,0.0,0.0,0.0,0.0,0.0,0.0,0.0,0.0,0.0,-1.4908,-1.7275,-1.9467,-2.1282,-2.3093,-2.4408,-2.5224,-2.5243,-2.5243,-2.5243,-2.5243,-2.5253,-2.5264,-2.5253,-2.5253,-2.5302,-2.606,-2.6886,-2.7731,-2.8441,-2.9267,-3.0054,-3.0054,-3.0054,-2.9882,-2.8288,-2.6988,-2.5993,-2.5899,-2.4341,-2.2593,-2.4277,-2.3664,-2.2388,-2.3447,-2.2537,-2.0794,-1.9367,0.0,-1.6693,-1.658,-1.783,-1.9542,-2.1047,-2.0831,-2.1223,0.0,0.0,-2.4218,-2.6564,-2.771,-2.8144,-2.7642,-2.8886,-2.9815,-2.9324,-2.9932,-3.0426,-3.0328,-2.9123,-2.8165,-2.7951,-2.7166,-2.6333,-2.5543,-2.6179,-2.6329,-2.5554,-2.6212,-2.631,-2.5546,-2.5507,-2.5576,-2.5726,-2.5583,-2.557,-2.5737,-2.5582,-2.5531,-2.5582,-2.5592,-2.56,-2.5604,-2.5604,-2.5548,-2.5428,-2.5341,-2.5222,-2.5041,-2.4883,-2.4716,-2.4512,-2.4321,-2.4037,-2.3819,-2.4075,-2.3777,-2.3253,0.0,0.0,0.0,0.0,0.0,0.0,0.0,0.0,0.0,0.0,0.0,0.0,0.0,0.0,0.0,0.0,0.0,0.0,-1.5914,-1.8306,-2.0436,-2.2133,-2.3871,-2.4966,-2.5284,-2.5303,-2.5303,-2.5303,-2.5303,-2.5303,-2.5303,-2.5303,-2.5303,-2.5322,-2.5668,-2.6621,-2.7909,-2.8255,-2.9179,-3.0398,-3.0398,-3.0102,-2.9563,-2.8871,-2.6741,-2.4075,-2.3616,-2.2755,0.0,0.0,-2.1321,-2.1178,-2.1721,-2.1336,-2.0273,-1.8244,-1.7849,0.0,-1.9905,-2.0813,-2.1878,-2.4063,-2.4687,-2.534,-2.7605,-2.7576,-2.7499,-2.9036,-2.9286,-2.9278,-2.944,-2.9753,-3.0028,0.0,-3.0492,-3.0604,-3.0096,-2.9401,-2.841,-2.6876,-2.6825,-2.6533,-2.5589,-2.632,-2.6718,-2.6339,-2.716,-2.729,-2.6429,-2.6371,-2.6398,-2.642,-2.5908,-2.5871,-2.6406,-2.5871,-2.5623,-2.5654,-2.5615,-2.56,-2.5601,-2.5563,-2.5435,-2.5229,-2.5138,-2.4981,-2.4708,-2.4654,-2.4389,-2.404,-2.3939,-2.3692,-2.3414,-2.3566,-2.3323,-2.2848,0.0,0.0,0.0,0.0,0.0,0.0,0.0,0.0,0.0,0.0,0.0,0.0,0.0,0.0,0.0,0.0,0.0,0.0,0.0,-1.8362,-2.0465,-2.235,-2.3832,-2.4832,-2.5284,-2.5303,-2.5303,-2.5303,-2.5303,-2.5303,-2.5303,-2.5303,-2.5303,-2.5303,-2.5553,-2.6486,-2.789,-2.789,-2.8736,-3.0025,-2.9794,-2.9333,-2.8659,-2.7717,-2.5457,-2.2709,-2.2138,-2.1034,0.0,0.0,-1.8783,-1.904,-1.9748,-1.9484,-1.8705,-1.7622,-1.8192,-1.9666,-2.1986,-2.3125,-2.4245,-2.679,-2.8193,-2.9196,-3.0074,-3.0278,-3.0449,-3.1056,-3.0537,-3.0083,-3.0489,-2.9979,-2.9729,-3.0303,-3.0478,-3.0312,-2.9687,-2.9391,-2.845,-2.6314,-2.6408,-2.6357,-2.5636,-2.6396,-2.6934,-2.6934,-2.7786,-2.8027,-2.7383,-2.7363,-2.7363,-2.7363,-2.6504,-2.6367,-2.6992,-2.6121,-2.5673,-2.5669,-2.5599,-2.5551,-2.5543,-2.5407,-2.5264,-2.5063,-2.4993,-2.479,-2.4495,-2.4528,-2.4266,-2.3816,-2.3753,-2.35,-2.3189,-2.3093,-2.283,-2.2468,0.0,0.0,0.0,0.0,0.0,0.0,0.0,0.0,0.0,0.0,0.0,0.0,0.0,0.0,0.0,0.0,0.0,0.0,0.0,-1.692,-1.896,-2.1427,-2.2389,-2.3639,-2.5264,-2.5303,-2.5303,-2.5303,-2.5303,-2.5303,-2.5303,-2.5303,-2.5303,-2.5341,-2.6178,-2.7063,-2.789,-2.789,-2.8371,-2.9063,-2.8294,-2.7948,-2.7563,-2.4255,-2.2915,-2.2805,-2.2766,0.0,0.0,-1.7307,-1.6772,-1.5884,-1.8352,-1.7446,0.0,-1.8405,-1.9195,-1.9684,-2.145,-2.3696,-2.6111,-2.8589,-3.0463,-3.1898,-3.2788,-3.2974,-3.3012,-3.3096,-3.2473,-3.166,-3.0841,-3.0095,-2.9609,-2.9629,-2.9648,-2.9629,-2.9609,-2.8867,-2.8008,-2.707,-2.623,-2.5723,0.0,-2.6484,-2.6992,-2.6992,-2.7812,-2.8281,-2.8262,-2.8262,-2.8262,-2.8262,-2.7422,-2.6973,-2.6992,-2.6068,-2.5601,-2.5611,-2.5551,-2.546,-2.5399,-2.5138,-2.501,-2.4998,-2.493,-2.4747,-2.4512,-2.4561,-2.4428,-2.4151,-2.3816,-2.35,-2.3165,-2.2848,-2.2451,-2.2124,0.0,0.0,0.0,0.0,0.0,0.0,0.0,0.0,0.0,0.0,0.0,0.0,0.0,0.0,0.0,0.0,0.0,0.0,0.0,-1.7195,-1.8436,-1.9848,-2.1213,-2.2197,-2.2774,-2.3351,-2.3928,-2.4505,-2.4505,-2.4774,-2.5303,-2.5303,-2.5303,-2.5303,-2.561,-2.6217,-2.7044,-2.7044,-2.7832,-2.8929,-2.6967,-2.6198,-2.5879,-2.2439,-1.9767,-1.7747,0.0,0.0,0.0,-1.3792,-1.4,-1.4659,-1.5509,-1.5954,-1.6452,-1.7958,-1.9617,-2.1465,-2.3748,-2.7031,-3.0316,-3.2263,-3.3616,-3.4686,-3.5493,-3.482,-3.3865,-3.3313,-3.121,-2.9199,-2.8335,-2.755,-2.7012,-2.7012,-2.8476,-2.9199,-2.8047,-2.8125,-2.7559,-2.5527,-2.5527,0.0,0.0,0.0,0.0,-2.7812,-2.8672,-2.916,-2.916,-2.916,-2.8906,-2.832,-2.8017,-2.7557,-2.6942,-2.6618,-2.616,-2.5524,-2.5473,-2.5331,-2.5138,-2.5034,-2.4885,-2.4663,-2.4632,-2.451,-2.4303,-2.4321,-2.4096,-2.3714,-2.3459,-2.3038,-2.2554,-2.2136,-2.1728,-2.1366,0.0,0.0,0.0,0.0,0.0,0.0,0.0,0.0,0.0,0.0,0.0,0.0,0.0,0.0,0.0,0.0,0.0,0.0,0.0,0.0,-1.7456,-1.859,-1.9636,-2.0473,-2.1095,-2.1355,-2.1758,-2.2315,-2.2286,-2.2546,-2.3064,-2.3371,-2.3515,-2.3534,-2.3803,-2.4428,-2.5197,-2.4601,-2.4966,-2.5765,-2.3522,-2.2458,-2.1917,-1.9104,-1.6706,0.0,0.0,0.0,0.0,-1.1902,-1.2495,-1.3781,-1.4389,-1.5942,-1.7743,-1.8665,-2.0722,-2.3437,-2.6621,-2.9938,-3.2965,-3.4947,-3.6086,-3.6716,-3.6636,-3.5534,-3.404,-3.2279,-2.9467,-2.6947,-2.5801,-2.4892,-2.4336,-2.4336,-2.6016,-2.7129,-2.6602,-2.6758,-2.6621,-2.5879,-2.6016,-2.6074,0.0,0.0,0.0,-2.8262,-2.9101,-2.9863,-3.0508,-3.0801,-3.0541,-2.9648,-2.9326,-2.856,-2.7334,-2.7306,-2.6823,-2.589,-2.5851,-2.5529,-2.501,-2.4949,-2.4766,-2.4495,-2.4409,-2.4266,-2.4016,-2.3976,-2.3714,-2.3369,-2.3117,-2.2764,-2.2381,-2.2015,-2.1477,-2.0959,0.0,0.0,0.0,0.0,0.0,0.0,0.0,0.0,0.0,0.0,0.0,0.0,0.0,0.0,0.0,0.0,0.0,0.0,0.0,0.0,0.0,-1.762,-1.7719,-1.8506,-2.0167,-1.9443,-1.9063,-1.9101,-1.8994,-1.8956,-1.9024,-1.9819,-2.0169,-2.0208,-2.0977,-2.1773,-2.2436,-2.085,-2.0204,-2.0092,-1.8358,-1.72,-1.6309,-1.4536,0.0,0.0,0.0,0.0,0.0,-1.1696,-1.236,-1.3452,-1.5191,-1.7479,-1.9687,-2.0586,-2.2734,-2.5703,-2.9883,-3.2324,-3.4238,-3.6582,-3.7734,-3.7853,-3.6209,-3.5062,-3.3407,-3.0084,-2.7324,-2.498,0.0,0.0,-2.1894,-2.1894,-2.2734,-2.3945,-2.5547,-2.5098,-2.5527,0.0,0.0,0.0,0.0,0.0,0.0,-2.8437,0.0,-3.043,-3.2168,-3.2987,-3.2974,-3.2027,-3.1191,-2.9931,-2.8165,-2.8048,-2.7522,-2.6601,-2.6591,-2.6017,-2.4986,-2.4855,-2.467,-2.4478,-2.4266,-2.3996,-2.3671,-2.3544,-2.3346,-2.3117,-2.2822,-2.2669,-2.2617,-2.2343,-2.1691,-2.0894,0.0,0.0,0.0,0.0,0.0,0.0,0.0,0.0,0.0,0.0,0.0,0.0,0.0,0.0,0.0,0.0,0.0,0.0,0.0,0.0,0.0,0.0,0.0,0.0,0.0,0.0,0.0,0.0,0.0,-1.8441,-1.9065,-1.8636,-1.8444,-1.8444,-1.8655,-1.8866,-1.9046,-1.8622,-1.882,-1.9203,0.0,-1.6187,-1.6245,0.0,0.0,0.0,0.0,0.0,0.0,0.0,0.0,-1.7109,-1.9492,-2.1152,-2.248,-2.3965,-2.7168,-3.0586,-3.2305,-3.4961,-3.7422,-3.8066,-3.7402,-3.6327,-3.5259,-3.2861,-3.0082,-2.7265,-2.4648,-2.2344,0.0,0.0,0.0,-2.1894,-2.4219,0.0,-2.6602,-2.7031,0.0,-2.8223,0.0,-2.8769,-2.834,-2.9473,0.0,0.0,-3.0449,-3.1309,-3.3008,-3.3245,-3.2916,-3.2035,-3.1734,-3.0736,-2.8946,-2.8259,-2.7486,-2.6601,-2.6454,-2.5844,-2.4842,-2.467,-2.4461,-2.4266,-2.3958,-2.3714,-2.3544,-2.3346,-2.2982,-2.2544,-2.2678,-2.2361,-2.1832,-2.1477,-2.0959,-2.0416,0.0,0.0,0.0,0.0,0.0,0.0,0.0,0.0,0.0,0.0,0.0,0.0,0.0,0.0,0.0,0.0,0.0,0.0,0.0,0.0,0.0,0.0,0.0,0.0,0.0,0.0,0.0,0.0,0.0,0.0,0.0,-1.6584,-1.6692,-1.6692,-1.6692,-1.67,-1.6677,-1.6294,0.0,0.0,0.0,0.0,0.0,0.0,0.0,0.0,0.0,0.0,0.0,0.0,0.0,-2.0625,-2.2852,-2.4434,-2.5859,-2.7949,-3.0527,-3.3164,-3.5137,-3.7383,-3.9082,-3.8691,-3.7285,-3.5468,-3.3459,-3.0333,-2.7255,-2.5019,-2.2539,0.0,-1.9473,-2.0098,0.0,0.0,0.0,0.0,-2.6211,-2.6523,-2.7305,0.0,-2.9863,0.0,-3.0019,-3.1211,-3.2139,0.0,-3.2209,-3.2569,-3.386,-3.424,-3.384,-3.2524,-3.2781,-3.2095,-3.0314,-2.9044,-2.8145,-2.7558,-2.709,-2.6289,-2.5164,-2.4711,-2.4321,-2.3976,0.0,-2.35,-2.3141,-2.3021,-2.2721,-2.2293,-2.2248,-2.196,-2.1552,-2.115,-2.0682,-2.028,0.0,0.0,0.0,0.0,0.0,0.0,0.0,0.0,0.0,0.0,-1.0293,0.0,0.0,0.0,0.0,0.0,0.0,0.0,0.0,0.0,0.0,0.0,0.0,0.0,0.0,0.0,0.0,0.0,0.0,0.0,0.0,0.0,0.0,0.0,0.0,0.0,0.0,0.0,0.0,0.0,0.0,0.0,0.0,0.0,0.0,0.0,0.0,0.0,0.0,0.0,-2.2561,-2.3926,-2.5801,-2.7578,-2.9473,-3.1973,-3.3359,-3.4785,-3.793,-3.9316,-3.9687,-3.8828,-3.7129,-3.4743,-3.1256,-2.7915,-2.497,-2.298,0.0,-1.9394,-1.918,-1.9316,-1.9512,-1.9629,0.0,-2.2148,-2.5566,-2.5391,-2.6445,-3.0586,-3.1172,-3.1523,-3.2285,-3.3199,-3.396,-3.4558,-3.4037,-3.4004,-3.4706,-3.5443,-3.5059,-3.3301,-3.3712,-3.3218,-3.1718,-3.004,-2.9084,-2.8793,-2.8027,-2.6968,-2.567,-2.4945,-2.4284,-2.3692,-2.3649,-2.3277,-2.2695,-2.266,-2.25,-2.2254,-2.1853,-2.1628,-2.1491,-2.1118,-2.0665,-2.0212,0.0,0.0,0.0,0.0,0.0,0.0,0.0,0.0,0.0,0.0,-1.0293,-1.0293,0.0,0.0,0.0,0.0,0.0,0.0,0.0,0.0,0.0,0.0,0.0,0.0,0.0,0.0,0.0,0.0,0.0,0.0,0.0,0.0,0.0,0.0,0.0,0.0,0.0,0.0,0.0,0.0,0.0,0.0,0.0,0.0,0.0,0.0,0.0,0.0,0.0,0.0,-2.3237,-2.668,-2.9199,-3.1152,-3.2891,-3.4785,-3.6465,-3.7988,-3.9316,-3.9785,-3.9687,-3.8828,-3.6211,-3.2947,-2.9531,-2.6601,0.0,0.0,-2.0094,-1.9863,-1.8477,-1.9394,-2.0605,-2.1328,-2.2187,-2.3945,-2.7363,-2.7715,-2.8711,0.0,-3.2559,-3.3027,-3.3184,-3.4561,0.0,0.0,-3.5039,-3.5368,-3.5507,-3.5601,-3.5141,-3.4039,-3.2795,-3.2006,-3.1698,-3.0464,-2.9489,-2.8793,-2.8265,-2.7213,-2.5689,-2.5374,-2.4697,-2.3692,-2.3414,0.0,-2.2669,-2.2463,-2.2349,-2.2282,-2.2209,-2.1751,-2.1103,-2.1039,-2.0499,-1.9803,0.0,0.0,0.0,0.0,0.0,0.0,0.0,-1.0293,-1.0293,-1.0293,-1.0293,-1.0293,-1.0293,-1.0293,-1.0645,0.0,0.0,0.0,0.0,0.0,0.0,0.0,0.0,0.0,0.0,0.0,0.0,0.0,0.0,0.0,0.0,0.0,0.0,0.0,0.0,0.0,0.0,0.0,0.0,0.0,0.0,0.0,0.0,0.0,0.0,0.0,0.0,0.0,0.0,0.0,-2.2435,-2.6091,-2.9234,-3.1699,-3.3828,-3.6035,-3.7266,-3.8301,-4.0098,-4.0586,-4.0254,-3.8926,-3.5976,-3.2499,-2.9045,0.0,0.0,0.0,-1.9826,-1.9719,-1.9374,-2.0019,0.0,-2.1758,-2.2246,-2.3711,-2.7148,-2.8008,0.0,-3.1894,-3.3301,-3.4051,0.0,-3.516,-3.568,-3.5166,-3.5435,-3.565,-3.5648,-3.5155,-3.4872,-3.4872,-3.2814,-3.191,-3.2314,-3.0781,-2.9745,-2.9257,-2.8464,-2.7418,-2.6149,-2.5627,-2.4684,-2.3414,-2.3259,-2.294,-2.2473,-2.2332,-2.231,-2.2237,-2.1781,-2.1446,-2.115,-2.0532,-2.005,-1.969,0.0,0.0,0.0,0.0,0.0,0.0,-1.0293,-1.0293,-1.0293,-1.0293,-1.0293,-1.0293,-1.0293,-1.0293,-1.0586,0.0,0.0,0.0,0.0,0.0,0.0,0.0,0.0,0.0,0.0,0.0,0.0,0.0,0.0,0.0,0.0,0.0,0.0,0.0,0.0,0.0,0.0,0.0,0.0,0.0,0.0,0.0,0.0,0.0,0.0,0.0,0.0,0.0,0.0,0.0,-2.0781,-2.3493,-2.6663,-3.0195,-3.3516,-3.5371,-3.6582,-3.7832,-4.0254,-4.1055,-4.0781,-3.9043,-3.5976,-3.2441,-2.8764,-2.488,0.0,-2.0392,-1.9779,-1.9633,-2.0129,-2.0273,-2.0605,0.0,-2.1621,-2.2812,-2.623,-2.7461,-2.9062,0.0,-3.3506,0.0,-3.4841,-3.5455,0.0,-3.5622,-3.5603,-3.5584,-3.5584,-3.4872,-3.4795,-3.5488,-3.3199,-3.2244,-3.282,-3.0901,-2.9829,-2.9625,-2.8706,-2.7707,-2.6594,-2.5873,-2.4701,-2.3189,-2.3117,-2.2781,-2.231,-2.231,-2.231,-2.2237,-2.1554,-2.1339,-2.1293,-2.0326,-1.9854,-1.969,0.0,0.0,0.0,0.0,0.0,0.0,-1.0293,-1.0293,-1.0293,-1.0293,-1.0293,-1.0293,-1.0293,-1.0293,-1.0332,0.0,0.0,0.0,0.0,0.0,0.0,0.0,0.0,0.0,0.0,0.0,0.0,0.0,0.0,0.0,0.0,0.0,0.0,0.0,0.0,0.0,0.0,0.0,0.0,0.0,0.0,0.0,0.0,0.0,0.0,0.0,0.0,0.0,0.0,0.0,0.0,-1.8903,-2.0837,-2.6445,-3.2207,-3.1641,0.0,0.0,-3.9512,-4.0605,-4.0781,-3.9043,-3.5976,-3.2284,-2.7984,0.0,-2.2184,-1.9734,-1.9844,-2.0156,-1.9455,-1.9366,-1.9707,0.0,0.0,-2.1914,-2.5332,-2.6562,-2.8379,-3.1797,0.0,0.0,-3.5622,-3.5738,-3.5699,-3.5622,-3.5545,-3.5526,-3.5526,-3.543,-3.543,-3.5507,-3.3737,-3.2749,-3.2615,-3.0698,-2.9644,-2.9414,-2.9086,-2.8103,-2.6591,-2.6204,-2.4985,-2.3189,-2.2873,-2.259,0.0,-2.231,-2.231,-2.2282,-2.2209,-2.185,-2.1344,-2.1023,-2.0379,-1.969,0.0,0.0,0.0,0.0,0.0,0.0,-1.0293,-1.0293,-1.0293,-1.0293,-1.0293,-1.0293,-1.029,-1.031,-1.031,-1.031,0.0,0.0,0.0,0.0,0.0,0.0,0.0,0.0,0.0,0.0,0.0,-1.5391,-1.5391,0.0,0.0,0.0,0.0,0.0,0.0,0.0,0.0,0.0,0.0,0.0,0.0,0.0,0.0,0.0,0.0,0.0,0.0,0.0,0.0,0.0,0.0,0.0,-1.6793,-2.0597,0.0,0.0,-3.1621,-3.4883,-3.8223,-3.9746,-4.0,-3.8242,-3.5205,-3.1617,-2.7774,0.0,-2.1765,-2.0211,-2.0205,-2.0383,-2.0055,-2.0049,-2.0195,0.0,0.0,0.0,-2.3867,-2.5352,-2.7483,-3.0894,-3.2501,0.0,0.0,0.0,-3.5622,-3.5545,-3.5526,-3.5493,-3.5493,-3.5493,-3.5493,-3.5493,-3.37,-3.2694,-3.26,-3.0562,-2.9493,-2.9392,-2.9134,-2.8045,-2.6299,-2.6168,-2.4921,-2.2898,-2.2772,-2.2537,0.0,-2.231,-2.231,-2.2248,-2.1703,-2.1387,-2.107,-2.0438,-1.998,-1.969,0.0,0.0,0.0,0.0,0.0,-1.029,-1.0292,-1.0293,-1.0293,-1.0293,-1.0293,-1.0292,-1.0308,-1.0305,-1.0305,-1.0305,-1.0305,0.0,0.0,0.0,0.0,0.0,0.0,0.0,0.0,0.0,-1.5391,-1.5391,-1.5391,-1.5391,0.0,0.0,0.0,0.0,0.0,0.0,0.0,0.0,0.0,0.0,0.0,0.0,0.0,0.0,0.0,0.0,0.0,0.0,0.0,0.0,0.0,0.0,0.0,0.0,0.0,0.0,-2.7987,-3.1426,-3.5254,-3.7305,-3.8008,-3.6523,-3.3718,-3.0483,0.0,0.0,-2.1443,-2.0579,-2.0457,-2.0507,-2.0491,-2.0549,-2.0586,0.0,0.0,-2.1113,-2.2617,-2.4043,-2.6002,0.0,0.0,-3.2242,0.0,-3.5149,-3.5565,-3.5493,-3.5493,-3.5493,-3.5493,-3.5432,-3.5268,-3.5014,-3.3425,-3.2403,-3.2005,-3.0264,-2.9372,-2.9267,-2.9089,-2.8022,-2.6254,-2.6056,-2.4824,-2.2848,-2.266,-2.249,0.0,-2.231,-2.2225,-2.202,-2.1354,-2.1016,-2.0794,-1.9978,-1.969,-1.969,0.0,0.0,0.0,0.0,0.0,0.0,-1.0305,-1.0308,-1.0291,-1.0291,-1.0291,-1.0291,-1.0291,-1.0308,-1.0305,-1.0305,-1.0305,0.0,0.0,0.0,0.0,0.0,0.0,0.0,0.0,0.0,-1.5391,-1.5391,-1.5391,-1.5391,-1.5391,-1.5391,-1.5391,0.0,0.0,0.0,0.0,0.0,0.0,0.0,0.0,0.0,0.0,0.0,0.0,0.0,0.0,0.0,0.0,0.0,0.0,0.0,0.0,0.0,0.0,0.0,-2.302,-2.7617,-3.0176,-3.2773,-3.4531,-3.3652,-3.1471,-2.8838,0.0,-2.3573,-2.1443,-2.0579,-2.0457,-2.0502,-2.0502,-2.0545,-2.0586,-2.0508,0.0,0.0,-2.1797,-2.2614,-2.3778,0.0,0.0,-2.8341,-3.1613,-3.4101,-3.5493,-3.5493,-3.5493,0.0,-3.5493,-3.5258,-3.4721,-3.3837,-3.302,-3.195,-3.063,-2.9824,-2.9267,-2.9017,-2.8994,-2.815,-2.6573,-2.5919,-2.4708,-2.3165,-2.2571,-2.231,0.0,-2.231,-2.2024,-2.1577,-2.1439,-2.1093,-2.0533,-1.9918,-1.969,-1.969,0.0,0.0,0.0,0.0,0.0,0.0,-1.0305,-1.0306,-1.0307,-1.0307,-1.0256,-1.0226,-1.0235,-1.0233,-1.0227,-1.0236,-1.0276,0.0,0.0,0.0,0.0,0.0,0.0,0.0,0.0,0.0,-1.5406,-1.5406,-1.5994,-1.5975,-1.5409,-1.6015,-1.5974,-1.5404,-1.5408,0.0,0.0,0.0,0.0,0.0,0.0,0.0,0.0,0.0,0.0,0.0,0.0,0.0,0.0,0.0,0.0,0.0,0.0,0.0,0.0,0.0,0.0,0.0,-2.654,-2.8288,-2.9443,-2.9771,-2.7425,-2.4844,-2.4012,-2.181,-2.0005,-2.0321,-2.0427,-2.0425,-2.0425,-2.0497,-2.0529,-2.0507,-2.052,0.0,0.0,0.0,0.0,-2.6994,-3.0558,-3.3222,0.0,0.0,-3.5493,-3.5493,-3.5493,-3.5432,-3.5239,-3.5157,-3.4702,-3.3821,-3.3186,-3.2158,-3.0609,-3.0169,-2.9642,-2.8994,-2.8994,-2.7911,-2.5919,-2.5704,-2.4515,-2.2571,-2.2377,-2.231,-2.231,-2.231,-2.2024,-2.1578,-2.1252,-2.0895,-2.0548,-1.9918,-1.969,-1.969,0.0,0.0,0.0,0.0,0.0,0.0,-1.026,-1.0283,-1.0305,-1.0305,-1.0248,-1.0195,-1.0205,-1.0199,-1.0209,-1.0195,-1.024,0.0,0.0,0.0,0.0,0.0,0.0,0.0,0.0,-1.5408,-1.5562,-1.5889,-1.6107,-1.6108,-1.5893,-1.6113,-1.5917,-1.5406,-1.5391,0.0,0.0,0.0,0.0,0.0,0.0,0.0,-1.5391,0.0,0.0,0.0,0.0,0.0,0.0,0.0,0.0,0.0,0.0,0.0,0.0,0.0,-1.6987,-1.9935,0.0,-2.4546,-2.5605,-2.6139,-2.4384,0.0,0.0,-2.0288,-1.9258,-1.9832,-2.0189,-2.04,-2.04,-2.046,-2.0491,-2.0467,-2.0464,0.0,0.0,0.0,0.0,-2.7702,0.0,0.0,0.0,-3.4943,-3.5493,-3.5493,-3.5417,-3.5273,-3.5105,-3.487,-3.4245,-3.307,-3.302,-3.218,-3.0476,-3.0268,-2.9806,-2.8994,-2.8705,-2.7578,-2.5761,-2.5333,-2.4156,-2.2453,-2.2349,-2.231,0.0,-2.2106,-2.1768,-2.1326,-2.0905,-2.0564,-2.0207,-1.9837,-1.969,-1.969,0.0,0.0,0.0,0.0,0.0,0.0,0.0,-1.0259,-1.0284,-1.0284,-1.0236,-1.0208,-1.0206,-1.0207,-1.019,-1.019,-1.019,0.0,0.0,0.0,0.0,0.0,0.0,0.0,-1.5368,-1.541,-1.5799,-1.6611,-1.5929,-1.5968,-1.6689,-1.6007,-1.5617,-1.5499,-1.5499,-1.546,0.0,0.0,0.0,0.0,0.0,0.0,0.0,0.0,0.0,0.0,0.0,0.0,0.0,0.0,0.0,0.0,0.0,0.0,0.0,0.0,0.0,0.0,0.0,-2.1402,-2.259,-2.278,-2.2022,-2.0864,0.0,0.0,0.0,-1.9162,-1.9793,-2.0321,-2.0379,-2.0457,-2.0476,-2.0399,-2.0395,0.0,0.0,-2.335,0.0,0.0,-3.0424,0.0,-3.1725,-3.4007,-3.5493,-3.5493,-3.5239,-3.5049,-3.4992,-3.4475,-3.3455,-3.1815,-3.2538,-3.2048,-3.0136,-3.0173,-2.9806,-2.8975,-2.815,-2.7173,-2.6038,-2.4878,-2.3734,0.0,-2.2398,-2.231,-2.2282,-2.1823,-2.1399,-2.0959,-2.055,-2.0089,-1.969,-1.969,-1.969,-1.969,0.0,0.0,0.0,0.0,0.0,0.0,0.0,0.0,0.0,0.0,-1.0219,-1.0198,-1.02,-1.0191,-1.0177,0.0,0.0,0.0,0.0,0.0,0.0,0.0,0.0,0.0,-1.5364,-1.5405,-1.5502,-1.5714,-1.6846,-1.7157,-1.6728,-1.786,-1.7665,-1.6396,-1.6396,-1.6025,0.0,0.0,0.0,0.0,0.0,0.0,0.0,0.0,0.0,0.0,-1.5391,-1.5391,0.0,0.0,0.0,0.0,0.0,0.0,0.0,0.0,-1.5133,-1.66,-1.8037,0.0,-1.7602,-1.9544,-1.8401,-1.7035,0.0,0.0,0.0,0.0,0.0,-1.9606,-2.0283,-2.0399,-2.0418,-2.0399,0.0,0.0,-2.1567,0.0,0.0,-2.9696,-3.2659,-3.384,-3.1896,-3.3987,-3.5493,-3.5493,-3.5239,-3.4731,-3.3847,-3.4049,-3.338,-3.1549,-3.2281,-3.1605,-2.931,-2.9898,-2.9806,-2.8975,-2.7911,-2.6814,-2.5668,-2.4593,-2.3465,-2.2388,-2.2321,-2.231,-2.2282,-2.218,-2.1691,-2.0991,-2.1102,-2.055,-1.969,-1.969,-1.969,-1.969,0.0,0.0,0.0,0.0,0.0,0.0,0.0,0.0,0.0,0.0,-1.0195,-1.0194,-1.0199,-1.0161,-1.014,0.0,0.0,0.0,0.0,0.0,0.0,0.0,0.0,-1.3627,-1.5352,-1.5368,-1.5763,-1.6593,-1.715,-1.7577,-1.7898,-1.8446,-1.8192,-1.7275,-1.6884,-1.6221,-1.5402,0.0,0.0,0.0,-1.5391,0.0,0.0,0.0,0.0,0.0,-1.5391,-1.5391,0.0,-1.4941,-1.4492,-1.4043,0.0,0.0,0.0,0.0,-1.502,-1.631,-1.7518,-1.7446,-1.7368,-1.8761,-1.8065,-1.7175,-1.7678,0.0,0.0,0.0,0.0,-1.9838,-2.0302,-2.0701,-2.0811,0.0,-2.0971,0.0,0.0,0.0,-2.8305,-3.0717,-3.2641,-3.368,0.0,-3.4699,-3.5446,-3.5339,-3.507,-3.4585,-3.3813,-3.3576,-3.2835,-3.1446,-3.1458,-3.087,-2.9567,-2.9989,-2.9806,-2.8975,-2.7476,-2.6357,-2.5549,-2.4095,-2.3003,-2.231,-2.231,-2.231,-2.2282,-2.2077,-2.1584,-2.0991,-2.091,-2.0398,-1.969,-1.969,-1.969,-1.969,0.0,0.0,0.0,0.0,0.0,0.0,0.0,0.0,0.0,0.0,0.0,0.0,0.0,0.0,0.0,0.0,0.0,0.0,0.0,0.0,0.0,0.0,0.0,-1.3609,-1.5346,-1.5338,-1.611,-1.7796,-1.717,-1.764,-1.9085,-1.86,-1.8252,-1.7959,-1.7099,-1.6221,-1.5402,-1.5402,-1.5404,-1.5408,-1.539,0.0,0.0,0.0,0.0,0.0,0.0,0.0,0.0,-1.4355,-1.4023,-1.3769,-1.2969,0.0,0.0,0.0,0.0,0.0,-1.749,-1.8587,-1.9264,-1.9128,-1.8993,-1.8703,-1.7987,0.0,0.0,0.0,0.0,0.0,0.0,-2.1036,0.0,0.0,0.0,0.0,-2.5986,-2.6379,-2.7755,-3.1275,-3.2045,0.0,-3.4697,-3.51,-3.5166,-3.5051,-3.4547,-3.4132,-3.385,-3.2921,-3.199,-3.1054,-3.0485,-3.0081,-2.9843,-2.9953,-2.9599,-2.8727,-2.6897,-2.5799,-2.5295,-2.3484,-2.2527,-2.231,0.0,0.0,-2.2254,-2.1794,-2.1368,-2.0975,-2.0516,-2.007,-1.969,-1.969,-1.9698,-1.9685,0.0,0.0,0.0,0.0,0.0,0.0,0.0,0.0,0.0,0.0,0.0,0.0,0.0,0.0,0.0,0.0,0.0,0.0,0.0,0.0,0.0,-1.2646,-1.2726,-1.3538,-1.5274,-1.5313,-1.5799,-1.6817,-1.7429,-1.785,-1.8145,-1.9552,-1.9404,-1.7959,-1.7099,-1.6221,-1.5402,-1.5402,-1.5404,-1.5408,-1.539,0.0,0.0,0.0,0.0,0.0,0.0,0.0,0.0,-1.4141,-1.3652,-1.293,-1.207,0.0,0.0,0.0,0.0,0.0,-1.7635,-1.9032,-2.0022,-1.9289,-1.8548,-1.7987,0.0,0.0,0.0,0.0,0.0,0.0,0.0,-2.092,-2.0707,0.0,0.0,-2.6333,0.0,0.0,-3.1737,-3.1698,0.0,-3.4131,-3.2138,-3.3242,-3.4268,-3.4736,-3.3193,-3.2219,-3.2154,-3.18,-3.0907,-2.9439,-2.9916,-2.9549,-2.8172,-2.8851,-2.8644,-2.7532,-2.6283,-2.5163,-2.4208,-2.2928,-2.2349,-2.231,0.0,-2.231,-2.2254,-2.1794,-2.1368,-2.0959,-2.0681,-2.0189,-1.969,-1.969,-1.9693,-1.9686,0.0,0.0,0.0,0.0,0.0,0.0,0.0,0.0,0.0,0.0,0.0,0.0,0.0,0.0,0.0,0.0,0.0,0.0,0.0,0.0,0.0,-1.2623,-1.2708,-1.3515,-1.5256,-1.5734,-1.6183,-1.6658,-1.7492,-1.815,-1.8685,-1.9985,-1.9677,-1.7979,-1.7587,-1.6651,-1.5402,-1.5402,-1.5403,-1.5406,0.0,0.0,0.0,0.0,0.0,0.0,0.0,0.0,0.0,0.0,-1.3496,-1.332,-1.2012,0.0,0.0,0.0,0.0,0.0,-1.7131,-1.7791,-1.8591,-1.9599,-2.0254,-2.0539,0.0,0.0,0.0,0.0,0.0,0.0,0.0,0.0,-2.3091,-2.5293,0.0,-2.7574,-2.9948,-3.0237,-3.0564,0.0,0.0,-3.3248,-3.2714,-3.3363,-3.3612,-3.3175,-3.2315,-3.1734,-3.1594,-3.1059,-3.0411,-2.9677,-2.9604,-2.8998,-2.7805,-2.7999,-2.7604,-2.6645,-2.5504,-2.4627,-2.3944,-2.2829,-2.231,-2.231,0.0,-2.231,-2.2282,-2.2077,-2.1584,-2.1007,-2.0878,-2.0345,-1.969,-1.969,-1.999,-2.0323,0.0,0.0,0.0,0.0,0.0,0.0,0.0,0.0,0.0,0.0,0.0,0.0,0.0,0.0,0.0,0.0,0.0,0.0,0.0,0.0,-1.0887,-1.2623,-1.27,-1.361,-1.5536,-1.6006,-1.6459,-1.697,-1.7404,-1.8192,-1.9303,-1.9988,-1.9461,-1.7997,-1.7997,-1.7021,-1.5402,-1.5402,-1.5402,-1.5403,0.0,0.0,0.0,0.0,0.0,0.0,0.0,0.0,0.0,0.0,0.0,0.0,0.0,0.0,0.0,-1.5098,-1.5812,-1.6734,-1.6941,-1.6962,-1.7364,-1.9169,0.0,0.0,0.0,0.0,0.0,0.0,0.0,0.0,0.0,-2.3276,0.0,-2.8296,-2.8632,-2.8986,-3.039,-3.0063,-3.039,-3.2372,-3.2353,-3.2598,-3.362,-3.3306,-3.2675,-3.1775,-3.1359,-3.1135,-3.1115,-3.0173,-2.9732,-2.9916,-2.8962,-2.8154,-2.7512,-2.7073,-2.6517,-2.5809,-2.48,-2.4102,-2.3667,-2.2743,-2.231,-2.231,-2.231,-2.231,-2.2282,-2.2077,-2.1584,-2.0959,-2.0764,-2.0277,-1.969,-1.969,-2.0124,-2.0694,0.0,0.0,0.0,0.0,0.0,0.0,0.0,0.0,0.0,0.0,0.0,0.0,0.0,0.0,0.0,0.0,0.0,0.0,0.0,0.0,-1.0887,-1.2623,-1.27,-1.3873,-1.6356,-1.5738,-1.615,-1.7716,-1.7092,-1.7647,-1.9303,-1.9362,-1.8893,-1.7994,-1.7994,-1.7039,-1.5402,-1.5402,-1.5402,-1.5403,-1.541,0.0,0.0,0.0,0.0,0.0,0.0,0.0,0.0,0.0,0.0,0.0,0.0,0.0,-1.5703,-1.7266,-1.7246,-1.687,-1.7688,-1.7902,-1.7747,-1.7122,-1.8232,0.0,-2.3408,-2.4152,0.0,-2.5005,0.0,0.0,0.0,-2.403,-2.4956,-2.7556,-2.9248,-3.1352,-3.4584,0.0,-3.5026,-3.5199,-3.4289,-3.3584,-3.345,-3.1862,-3.1012,-3.1403,-3.0031,-2.9517,-3.0246,-2.8815,-2.8319,-2.9049,-2.7585,-2.6741,-2.6686,-2.5913,-2.5348,-2.4974,-2.4345,-2.3606,-2.2782,-2.2443,-2.231,-2.231,-2.231,-2.231,-2.2254,-2.1432,-2.1071,-2.0926,-2.012,-1.9747,-1.969,-1.969,-1.9735,-2.0139,0.0,0.0,0.0,0.0,0.0,0.0,0.0,0.0,0.0,0.0,0.0,0.0,0.0,0.0,0.0,0.0,0.0,0.0,0.0,-1.0613,-1.1425,-1.2594,-1.3195,-1.4444,-1.6461,-1.6193,-1.6135,-1.6301,-1.7114,-1.8129,-1.9303,-1.9851,-1.9344,-1.7997,-1.7997,-1.7336,-1.6167,-1.562,-1.572,-1.621,-1.6211,-1.6211,0.0,0.0,0.0,0.0,0.0,0.0,0.0,0.0,-1.3906,-1.3691,-1.4004,-1.4707,-1.5527,-1.6191,-1.6523,-1.666,-1.6433,-1.7167,-1.7926,-1.7592,-1.8802,0.0,0.0,-2.4342,-2.4971,-2.4754,-2.6188,0.0,0.0,0.0,-2.8324,-2.9308,-3.1326,-3.341,-3.5238,-3.5493,-3.5315,-3.4757,-3.4155,-3.3301,-3.2033,-3.0658,-2.9667,-2.9187,-2.8136,-2.764,-2.7952,-2.7383,-2.72,-2.7512,-2.6924,-2.6355,-2.586,-2.5345,-2.4759,-2.4144,-2.3715,-2.3128,-2.2436,-2.2349,-2.231,-2.231,-2.231,-2.231,-2.2237,-2.1645,-2.1213,-2.0894,-2.005,-1.969,-1.969,-1.969,-1.9959,-2.0468,0.0,0.0,0.0,0.0,0.0,0.0,0.0,0.0,0.0,0.0,0.0,0.0,0.0,0.0,0.0,0.0,0.0,0.0,-1.0121,-1.0945,-1.1799,-1.264,-1.3528,-1.4671,-1.6129,-1.6148,-1.6021,-1.5777,-1.7267,-1.8446,-1.9303,-1.991,-1.9558,-1.8387,-1.7841,-1.7258,-1.6637,-1.5779,-1.5742,-1.6309,-1.6582,-1.6543,0.0,0.0,0.0,0.0,0.0,0.0,0.0,0.0,-1.4336,-1.4238,-1.5078,-1.5547,-1.5918,-1.6465,-1.7051,-1.7324,-1.6465,-1.7095,-1.8069,-1.8342,0.0,0.0,-2.377,-2.5403,-2.6447,-2.6622,-2.7351,0.0,0.0,0.0,0.0,0.0,-3.2307,-3.4083,-3.4968,-3.4853,-3.4422,-3.3766,-3.3242,-3.2383,-3.1017,-2.966,-2.8579,-2.7864,-2.7053,-2.6612,-2.6612,-2.6355,-2.6337,-2.6594,-2.5996,-2.5534,-2.5241,-2.4653,-2.4037,-2.3392,-2.3141,-2.2832,-2.2426,-2.2349,-2.231,-2.231,-2.231,-2.231,-2.2237,-2.1675,-2.1086,-2.0532,-1.9909,-1.969,-1.972,-1.9929,-2.0318,-2.0782,0.0,0.0,0.0,0.0,0.0,0.0,0.0,0.0,0.0,0.0,0.0,0.0,0.0,0.0,0.0,0.0,0.0,0.0,-1.0193,-1.1018,-1.1896,-1.2767,-1.3584,-1.4454,-1.537,-1.539,-1.5796,-1.6589,-1.7538,-1.8426,-1.9284,-1.9284,-1.9284,-1.9205,-1.7468,-1.671,-1.6634,-1.5761,-1.5391,-1.5488,-1.6348,-1.6172,-1.5605,0.0,0.0,0.0,0.0,0.0,0.0,0.0,-1.4824,-1.4551,-1.7168,-1.7383,-1.7012,-1.8769,-1.9277,-1.9082,-1.8223,-1.8008,-1.8223,0.0,0.0,0.0,-2.6035,-2.7672,-2.8951,-3.1302,0.0,-2.8277,-2.9066,0.0,0.0,-3.0147,-3.1807,-3.3199,-3.4064,-3.343,-3.2807,-3.2615,-3.1644,-3.0866,-3.0592,-2.8867,-2.7769,-2.7769,-2.7034,-2.6594,-2.6594,-2.5805,-2.575,-2.6557,-2.4693,-2.4071,-2.4883,-2.3761,-2.3021,-2.2695,-2.2695,-2.2695,-2.2695,-2.2426,-2.231,-2.231,-2.231,-2.231,-2.2237,-2.1354,-2.0481,-1.9726,-1.969,-1.969,-1.9765,-2.0453,-2.0707,-2.0887,0.0,0.0,0.0,0.0,0.0,0.0,0.0,0.0,0.0,0.0,0.0,0.0,0.0,0.0,0.0,0.0,0.0,0.0,-1.0205,-1.1557,-1.2452,-1.272,-1.4184,-1.5112,-1.539,-1.5409,-1.5823,-1.668,-1.696,-1.7528,-1.8387,-1.8387,-1.8055,-1.7449,-1.6923,-1.671,-1.6633,-1.5777,-1.5741,-1.6348,-1.6602,-1.6543,-1.6367,0.0,0.0,0.0,0.0,0.0,0.0,0.0,0.0,0.0,-1.6445,-1.6074,-1.5215,-1.6953,-1.7031,-1.6621,-1.6992,-1.7988,0.0,-1.9238,0.0,0.0,0.0,-2.7156,0.0,0.0,-3.0708,-2.9824,-2.9998,0.0,0.0,-3.0521,-3.1807,-3.2987,-3.3256,-3.2952,-3.245,-3.1764,-3.0598,-2.9588,-2.8912,-2.7185,-2.6119,-2.6119,-2.5364,-2.4905,-2.4905,-2.4685,-2.4551,-2.4566,-2.3988,-2.3696,-2.3684,-2.336,-2.3021,-2.2695,-2.2695,-2.2599,-2.2426,-2.2349,-2.231,-2.231,-2.231,-2.231,-2.2237,-2.1376,-2.0665,-2.0095,-1.9822,-1.969,-1.9705,-1.9914,-1.9989,-2.0183,0.0,0.0,0.0,0.0,0.0,0.0,0.0,0.0,0.0,0.0,0.0,0.0,0.0,0.0,0.0,0.0,0.0,0.0,0.0,-1.2022,-1.2919,-1.324,-1.4639,-1.5405,-1.5405,-1.5748,-1.6006,-1.6182,-1.6533,-1.7157,-1.7998,-1.7998,-1.7899,-1.7703,-1.7001,-1.6884,-1.7139,-1.5929,-1.5699,-1.621,-1.6562,-1.6484,-1.6211,0.0,0.0,0.0,0.0,0.0,0.0,0.0,0.0,0.0,-1.668,-1.6269,-1.541,-1.6816,-1.6836,-1.6699,-1.793,-1.9023,0.0,-2.1074,-2.3398,-2.5893,-2.7639,0.0,0.0,0.0,0.0,-3.1085,-3.1352,-3.1698,0.0,-3.1441,-3.198,-3.2429,-3.2429,-3.1938,-3.1352,-3.0744,-2.9606,-2.8649,-2.8025,-2.6423,-2.5403,-2.5403,-2.4649,-2.419,-2.419,-2.4074,-2.3917,-2.3714,-2.3437,-2.3212,-2.2996,-2.2908,-2.2747,-2.2537,-2.2537,-2.2463,-2.231,-2.231,-2.231,-2.231,-2.231,-2.2102,-2.1725,-2.1234,-2.0632,-2.0029,-1.9771,-1.969,-1.972,-1.9989,-2.0094,-2.0243,0.0,0.0,0.0,0.0,0.0,0.0,0.0,0.0,0.0,0.0,0.0,0.0,0.0,0.0,0.0,0.0,0.0,0.0,0.0,0.0,-1.3254,-1.4054,-1.4933,-1.5441,-1.5519,-1.6221,-1.6279,-1.5636,-1.6357,-1.706,-1.7764,-1.7764,-1.8192,-1.8874,-1.7294,-1.7019,-1.7664,-1.6066,-1.5403,-1.5462,-1.6269,-1.6113,-1.5488,-1.6289,0.0,0.0,0.0,0.0,0.0,0.0,0.0,0.0,-1.7363,-1.7285,-1.6758,-1.7637,-1.7871,-1.8242,-1.9902,-2.0488,0.0,-2.3652,-2.5762,0.0,-2.9329,-3.2126,-3.4303,-3.4024,0.0,-3.2109,-3.2782,-3.1712,-3.1181,-3.2564,-3.2179,-3.1648,-3.1558,-3.0633,-2.987,-2.9583,-2.8615,-2.786,-2.7629,-2.6193,-2.5293,-2.5293,-2.4612,-2.419,-2.4151,-2.3876,-2.3671,-2.361,-2.3021,-2.2695,-2.2643,-2.2426,-2.231,-2.231,-2.231,-2.231,-2.231,-2.231,-2.231,-2.231,-2.2248,-2.1782,-2.1055,-2.097,-2.0465,-1.9756,-1.9726,-1.969,-1.9765,-2.0393,-2.0617,-2.0722,0.0,0.0,0.0,0.0,0.0,0.0,0.0,0.0,0.0,0.0,0.0,0.0,0.0,0.0,0.0,0.0,0.0,0.0,0.0,0.0,-1.3206,-1.4054,-1.4933,-1.5714,-1.6416,-1.5928,-1.6261,-1.7432,-1.6943,-1.6455,-1.5968,-1.5968,-1.6064,-1.6219,-1.585,-1.5773,-1.5929,-1.5561,-1.5406,-1.5426,-1.5605,-1.5566,-1.543,-1.5605,-1.5566,0.0,0.0,0.0,0.0,0.0,0.0,0.0,-1.6641,-1.6387,-1.5859,-1.6719,-1.6973,-1.7207,-1.8262,-1.9551,0.0,0.0,-2.623,-2.9296,-3.0253,-3.2021,-3.3068,-3.1684,-3.2065,-3.2705,-3.2872,-3.2622,-3.2282,-3.2006,-3.1814,-3.138,-3.0486,-3.0007,-2.9432,-2.8559,-2.7544,-2.6657,-2.5991,-2.5016,-2.4447,-2.4447,-2.43,-2.4094,-2.3816,-2.3735,-2.3459,-2.2923,-2.2772,-2.2599,-2.2388,-2.2321,-2.231,-2.231,-2.231,-2.231,-2.231,-2.231,-2.231,-2.2265,-2.1911,-2.1653,-2.1423,-2.0747,-2.0353,-2.0125,-1.9822,-1.969,-1.9705,-1.9854,-1.9914,-2.0004,0.0,0.0,0.0,0.0,0.0,0.0,0.0,0.0,0.0,0.0,0.0,0.0,0.0,0.0,0.0,0.0,0.0,0.0,0.0,0.0,-1.3815,-1.4679,-1.5168,-1.5617,-1.6064,-1.6045,-1.6474,-1.7372,-1.7333,-1.6884,-1.6025,-1.6456,-1.663,-1.6669,-1.7079,-1.704,-1.6612,-1.6205,-1.5778,-1.541,-1.5391,-1.5391,-1.5391,-1.5391,-1.5391,-1.5391,-1.5391,0.0,0.0,0.0,0.0,0.0,0.0,0.0,-1.6113,-1.6562,-1.6699,-1.707,-1.8789,0.0,0.0,-2.4238,0.0,-2.8552,-2.934,-3.0447,-3.1066,-3.0117,-3.1205,-3.2333,-3.2333,-3.1987,-3.1698,-3.1698,-3.0919,-3.0234,-3.0028,-2.9047,-2.8296,-2.8128,-2.6871,-2.586,-2.5439,-2.4667,-2.419,-2.419,-2.4054,-2.3896,-2.3714,-2.3392,-2.3069,-2.2721,-2.259,-2.2436,-2.231,-2.231,-2.231,-2.231,-2.231,-2.231,-2.231,-2.231,-2.2198,-2.1945,-2.1703,-2.1361,-2.0927,-2.0496,-2.0177,-1.9999,-1.9771,-1.969,-1.969,-1.969,-1.969,-1.9735,0.0,0.0,0.0,0.0,0.0,0.0,0.0,0.0,0.0,0.0,0.0,0.0,0.0,0.0,0.0,0.0,0.0,0.0,0.0,0.0,0.0,-1.5363,-1.5402,-1.546,-1.5617,-1.6182,-1.6709,-1.7157,-1.7567,0.0,0.0,0.0,-1.792,-1.7803,-1.8524,-1.8446,-1.7726,-1.6848,-1.6051,-1.539,-1.5391,-1.5391,-1.5391,-1.5391,-1.5391,-1.5391,-1.5391,-1.5391,-1.5391,-1.5391,0.0,0.0,0.0,0.0,-1.6894,-1.6738,-1.6815,-1.7359,-1.9371,0.0,-2.1777,-2.5753,-2.6864,0.0,-2.7815,-2.8547,-2.9016,-2.8809,-3.0217,-3.1429,-3.1275,-3.066,-3.034,-3.0893,-2.964,-2.8793,-2.9372,-2.797,-2.7065,-2.7586,-2.6316,-2.5348,-2.5219,-2.4575,-2.417,-2.4113,-2.3876,-2.3649,-2.3544,-2.2996,-2.2669,-2.2634,-2.2426,-2.231,-2.231,-2.231,-2.231,-2.231,-2.231,-2.2254,-2.218,-2.2186,-2.1967,-2.159,-2.1451,-2.0971,-2.0279,-2.0208,-1.9993,-1.969,-1.969,-1.969,-1.969,-1.969,-1.969,-1.969,0.0,0.0,0.0,0.0,0.0,0.0,0.0,0.0,0.0,0.0,0.0,0.0,0.0,0.0,0.0,0.0,0.0,0.0,0.0,0.0,0.0,-1.5382,-1.5402,-1.5753,-1.6513,-1.5908,-1.6689,-1.8952,0.0,0.0,0.0,0.0,0.0,-1.6887,0.0,-1.6984,-1.6813,-1.5931,-1.5501,-1.5405,-1.541,-1.5391,-1.5391,-1.5391,-1.5391,-1.5391,-1.5391,-1.5391,-1.5391,-1.5391,-1.5898,0.0,0.0,0.0,-1.7676,-1.6914,-1.7224,-1.7738,0.0,0.0,-2.2315,0.0,-2.6356,-2.692,0.0,0.0,-2.7971,0.0,-2.8917,-3.0352,-2.9583,-2.9352,-2.9029,-2.8262,-2.7937,-2.7661,-2.7358,-2.7083,-2.6619,-2.585,-2.5551,-2.5146,-2.4428,-2.4263,-2.4074,-2.3795,-2.3732,-2.3455,-2.2855,-2.2746,-2.2599,-2.236,-2.2338,-2.231,-2.231,-2.231,-2.231,-2.231,-2.231,-2.2106,-2.1672,-2.1673,-2.1666,-2.1568,-2.0801,-2.0399,-2.0273,-1.9914,-1.9752,-1.969,-1.969,-1.969,-1.969,-1.969,-1.969,-1.969,0.0,0.0,0.0,0.0,0.0,0.0,0.0,0.0,0.0,0.0,0.0,0.0,0.0,0.0,0.0,0.0,0.0,0.0,0.0,0.0,0.0,-1.5402,-1.5402,-1.5578,-1.5967,-1.6064,-1.6923,-1.8563,0.0,0.0,0.0,-1.9402,-1.8994,0.0,0.0,0.0,-1.7376,-1.6501,-1.5858,-1.5409,-1.539,-1.5684,-1.6133,-1.6133,-1.582,-1.5488,-1.6113,-1.5937,-1.5605,-1.6914,-1.707,-1.6797,-1.7266,0.0,0.0,0.0,-1.7318,-1.8013,-1.8123,-1.958,-2.1681,0.0,-2.5168,-2.5534,-2.5936,0.0,-2.7159,-2.6726,-2.7909,-2.8871,-2.8506,-2.8334,-2.8096,-2.7669,-2.6996,-2.6613,-2.6859,-2.6024,-2.5392,-2.5384,-2.5017,-2.4575,-2.4226,-2.4016,-2.3694,-2.312,-2.2727,-2.2218,-2.1507,-2.1275,-2.1131,-2.1025,-2.0998,-2.0998,-2.0998,-2.0998,-2.0998,-2.0998,-2.1195,-2.1194,-2.0994,-2.0901,-2.0875,-2.0846,-2.0462,-2.0156,-1.9948,-1.9756,-1.969,-1.969,-1.969,-1.969,-1.969,-1.969,-1.969,-1.969,0.0,0.0,0.0,0.0,0.0,0.0,0.0,0.0,0.0,0.0,0.0,0.0,0.0,0.0,0.0,0.0,0.0,0.0,0.0,0.0,0.0,-1.5402,-1.5617,-1.5734,-1.5734,-1.6572,-1.745,0.0,0.0,0.0,-1.9636,-2.03,-2.0242,0.0,-1.9406,0.0,0.0,0.0,0.0,0.0,-1.5644,-1.625,-1.7051,0.0,-1.709,-1.6797,-1.7422,-1.7109,-1.6582,-1.7891,-1.7891,-1.7441,-1.7852,-1.8747,0.0,0.0,0.0,0.0,0.0,0.0,-2.0441,-2.2976,-2.3775,-2.4197,0.0,0.0,-2.6322,0.0,-2.6754,-2.7155,-2.7155,-2.7216,-2.7159,-2.6849,-2.601,-2.5593,-2.6135,-2.4965,-2.4333,-2.5016,-2.4401,-2.3976,-2.4074,-2.3593,-2.3117,-2.2658,-2.1826,-2.1129,-2.0694,-2.0237,-2.0002,-2.0002,-2.0002,-2.0002,-2.0002,-2.0002,-2.0002,-2.0002,-2.0334,-2.0449,-2.0345,-2.0315,-2.0236,-2.0135,-2.0147,-1.9999,-1.969,-1.969,-1.969,-1.969,-1.969,-1.969,-1.969,-1.969,-1.969,-1.969,0.0,0.0,0.0,0.0,0.0,0.0,0.0,0.0,0.0,0.0,0.0,0.0,0.0,0.0,-1.3117,-1.3875,0.0,0.0,0.0,0.0,0.0,-1.5402,-1.6182,0.0,-1.663,-1.7489,0.0,0.0,0.0,0.0,-2.0534,-2.0573,-2.0573,-2.0495,-1.9675,-1.8823,-1.7949,0.0,0.0,0.0,-1.6309,-1.7148,-1.8027,0.0,0.0,0.0,0.0,0.0,-1.8867,-1.7324,-1.7852,-1.9023,-1.8242,-1.9178,-2.034,0.0,0.0,0.0,0.0,-1.7415,0.0,-2.1116,-2.2367,0.0,0.0,0.0,-2.536,-2.536,-2.5248,-2.5156,-2.5156,-2.5812,-2.5994,-2.4853,-2.4622,-2.4501,-2.4357,-2.3992,-2.3855,-2.4225,-2.3667,-2.3369,-2.3692,-2.2775,-2.2323,-2.2667,-2.1375,-2.0722,-2.1128,-2.0416,-2.0002,-2.0002,-2.0002,-2.0002,-2.0002,-2.0002,-2.0002,-2.0002,-2.0334,-2.0293,-1.9936,-2.0194,-2.0084,-1.9747,-1.9726,-1.9726,-1.969,-1.969,-1.969,-1.969,-1.969,-1.969,-1.969,-1.969,-1.969,-1.969,0.0,0.0,0.0,0.0,0.0,0.0,0.0,0.0,0.0,0.0,0.0,0.0,0.0,-1.4368,-1.4513,-1.4805,-1.4894,0.0,0.0,0.0,0.0,-1.5402,-1.6221,-1.6709,-1.6709,-1.8094,0.0,0.0,0.0,-2.0007,-1.9773,-2.0343,-2.0307,-1.9759,-1.9443,-1.8823,-1.7988,-1.7676,0.0,0.0,-1.7793,-1.8887,-1.9707,0.0,0.0,0.0,0.0,0.0,0.0,-2.0059,-1.9707,-1.9336,-1.959,-2.0094,-2.0418,-1.9471,0.0,0.0,0.0,0.0,0.0,-2.0465,-2.1828,-2.3129,-2.4274,-2.4928,-2.5264,-2.5122,-2.5046,-2.4917,-2.4723,-2.4922,-2.5008,-2.4566,-2.4393,-2.421,-2.3917,-2.3774,-2.3671,-2.3566,-2.3346,-2.3253,-2.3369,-2.2406,-2.1627,-2.1298,-2.0158,-1.9341,-1.9029,-1.8741,-1.8582,-1.8582,-1.8582,-1.8582,-1.8582,-1.8582,-1.8706,-1.8908,-1.9239,-1.9425,-1.9453,-1.978,-1.9854,-1.969,-1.969,-1.969,-1.969,-1.969,-1.969,-1.969,-1.969,-1.969,-1.969,-1.969,-1.969,-1.969,0.0,0.0,0.0,0.0,0.0,0.0,0.0,0.0,0.0,0.0,0.0,0.0,0.0,0.0,-1.5316,-1.534,-1.5371,-1.5402,-1.5402,-1.5402,-1.5539,-1.5812,-1.6669,-1.7275,-1.7566,0.0,0.0,0.0,0.0,0.0,0.0,-2.0031,-2.0014,-1.9723,-1.9428,-1.8826,0.0,0.0,0.0,-1.6855,-1.8594,-1.9824,-2.0664,0.0,0.0,0.0,0.0,0.0,0.0,0.0,-2.1309,-2.0585,-2.0591,-2.0581,0.0,0.0,0.0,0.0,-1.7941,0.0,0.0,0.0,0.0,-2.2331,-2.3764,0.0,-2.4837,-2.4965,-2.4924,-2.4762,-2.454,-2.4425,-2.441,-2.441,-2.4284,-2.4113,-2.3896,-2.366,-2.3498,-2.3378,-2.2859,-2.2569,-2.2659,-2.1475,-2.0577,-2.0353,-1.9199,0.0,-1.8183,-1.7929,-1.7811,-1.7811,-1.7811,-1.7811,-1.7811,-1.7681,-1.7869,-1.829,-1.8486,-1.8826,-1.9198,-1.9541,-1.969,-1.969,-1.969,-1.969,-1.969,-1.969,-1.969,-1.969,-1.969,-1.969,-1.969,-1.969,-1.969,-1.969,0.0,0.0,0.0,0.0,0.0,0.0,0.0,0.0,0.0,0.0,0.0,0.0,0.0,0.0,0.0,-1.5478,-1.5479,-1.548,-1.548,-1.548,-1.5851,-1.6709,0.0,0.0,0.0,0.0,0.0,0.0,0.0,0.0,0.0,0.0,-1.9756,-2.0523,-1.9687,-1.8828,-1.7988,0.0,-1.6777,-1.6934,0.0,-1.9922,-2.0859,0.0,0.0,0.0,-2.3223,-2.3222,0.0,-2.2246,0.0,0.0,0.0,0.0,0.0,0.0,0.0,0.0,0.0,0.0,0.0,0.0,0.0,0.0,-2.3456,0.0,-2.4026,-2.4808,-2.4718,-2.4493,-2.4487,-2.432,-2.419,-2.419,-2.419,-2.419,-2.419,-2.3611,-2.3282,-2.3633,-2.2177,-2.1293,-2.1552,-1.9969,-1.9198,-1.9917,-1.8616,-1.8115,-1.8826,-1.82,-1.7811,-1.7811,-1.7811,-1.7789,-1.7789,-1.7496,-1.7667,-1.8297,-1.8255,-1.8577,-1.9221,-1.9552,-1.969,-1.969,-1.969,-1.969,-1.969,-1.969,-1.969,-1.969,-1.969,-1.969,-1.969,-1.969,-1.969,-1.969,0.0,0.0,0.0,0.0,0.0,0.0,-1.4807,-1.5012,-1.512,0.0,0.0,0.0,0.0,0.0,-1.7131,-1.7207,-1.7212,-1.722,-1.7275,-1.7276,-1.7393,-1.7626,-1.8485,-1.9051,-1.9284,0.0,0.0,0.0,0.0,0.0,0.0,0.0,0.0,0.0,-1.9413,-1.918,-1.8926,-1.8672,0.0,-1.8789,-2.1172,-2.2246,0.0,0.0,0.0,0.0,0.0,-2.3655,-2.3197,0.0,-2.2593,-2.1143,0.0,0.0,0.0,0.0,0.0,0.0,-1.8892,0.0,0.0,0.0,0.0,0.0,0.0,0.0,-2.3819,-2.3903,-2.4223,-2.4461,-2.4321,-2.4228,-2.419,-2.419,-2.419,-2.4135,-2.3876,-2.3022,-2.2564,-2.2944,-2.1395,-2.0593,-2.125,-1.9855,-1.8978,0.0,-1.8335,-1.7896,-1.8099,-1.7912,-1.7811,-1.7811,-1.7811,-1.7681,-1.7439,-1.784,-1.8092,-1.8228,-1.8703,-1.9137,-1.9547,-1.9671,-1.969,-1.969,-1.969,-1.969,-1.969,-1.969,-1.969,-1.969,-1.969,-1.969,-1.969,-1.969,-1.969,-1.969,0.0,0.0,0.0,0.0,0.0,-1.5267,-1.5632,-1.5408,-1.5452,0.0,0.0,0.0,0.0,0.0,-1.7815,-1.7851,-1.7871,-1.793,-1.7966,-1.7974,-1.8154,-1.8524,-1.9031,-1.948,-1.9832,0.0,0.0,0.0,0.0,0.0,0.0,0.0,0.0,0.0,0.0,0.0,0.0,0.0,0.0,0.0,-2.1758,0.0,0.0,-2.3945,-2.4518,0.0,0.0,0.0,-2.3779,-2.4572,-2.3373,0.0,0.0,0.0,0.0,0.0,0.0,0.0,0.0,0.0,0.0,0.0,0.0,0.0,-2.178,-2.2547,-2.3284,0.0,-2.416,-2.4358,-2.4228,-2.419,-2.419,-2.419,-2.4091,-2.3935,-2.3731,-2.2782,-2.2149,-2.2243,-2.0636,-1.973,-2.0178,-1.9144,-1.8437,-1.8437,-1.8048,-1.7811,-1.7811,-1.7811,-1.7743,-1.7612,-1.7595,-1.7565,-1.7516,-1.7754,-1.8124,-1.8624,-1.8877,-1.9239,-1.969,-1.969,-1.969,-1.969,-1.969,-1.969,-1.969,-1.969,-1.969,-1.969,-1.969,-1.969,-1.969,-1.969,-1.969,-1.969,0.0,0.0,-1.5095,-1.5095,-1.5229,-1.5593,-1.6369,-1.5907,-1.6003,0.0,0.0,0.0,0.0,0.0,0.0,0.0,-1.8139,-1.8166,-1.8195,-1.8237,-1.8618,-1.9401,-1.9438,-1.9791,-2.0573,-1.9832,-1.9773,0.0,0.0,0.0,0.0,0.0,0.0,0.0,0.0,0.0,0.0,0.0,0.0,-1.9727,-2.1268,-2.1952,0.0,0.0,-2.3999,-2.3544,-2.4207,-2.4416,-2.4466,-2.5023,-2.4292,0.0,0.0,0.0,0.0,0.0,-2.0366,0.0,0.0,0.0,0.0,0.0,0.0,0.0,-2.196,-2.2154,-2.2464,0.0,-2.4024,-2.3952,-2.3951,-2.3933,-2.3896,-2.3805,-2.3601,-2.349,-2.3683,-2.2661,-2.1828,-2.1639,-1.9921,-1.8802,-1.8887,-1.824,-1.7811,-1.7811,-1.7811,-1.7811,-1.7811,-1.7749,-1.7612,-1.732,-1.7354,-1.7483,-1.7752,-1.759,-1.8053,-1.9129,-1.8918,-1.9121,-1.969,-1.969,-1.969,-1.969,-1.969,-1.969,-1.969,-1.969,-1.969,-1.969,-1.969,-1.969,-1.969,-1.969,-1.969,-1.969,0.0,0.0,-1.5107,-1.5089,-1.569,-1.6221,-1.6394,-1.6862,-1.733,0.0,0.0,0.0,0.0,0.0,0.0,0.0,-1.9823,-1.9871,-1.9987,-1.9951,-2.0062,-2.0338,-2.0285,-2.0363,-2.0593,-2.0437,-2.0085,-1.9558,0.0,0.0,0.0,0.0,0.0,0.0,0.0,0.0,0.0,0.0,0.0,-2.1425,-2.1691,0.0,-2.2968,-2.3949,-2.4652,-2.5139,-2.5221,-2.4819,-2.4152,-2.3593,-2.3659,-2.3724,0.0,0.0,0.0,-2.0723,0.0,0.0,0.0,0.0,0.0,0.0,0.0,0.0,-2.0608,-2.1032,-2.1455,0.0,-2.2088,-2.2399,-2.2282,-2.2264,-2.2025,-2.1334,-2.1571,-2.2278,-2.3529,-2.2018,-2.1011,-2.1539,-1.9491,-1.8246,-1.8839,-1.824,-1.7811,-1.7811,-1.7811,-1.7811,-1.7811,-1.7549,-1.7368,-1.7296,-1.7552,-1.761,-1.7385,-1.8354,-1.8811,-1.8786,-1.9275,-1.9555,-1.969,-1.969,-1.969,-1.969,-1.969,-1.969,-1.969,-1.969,-1.969,-1.969,-1.969,-1.969,-1.969,-1.969,-1.969,-1.969,0.0,-1.5457,-1.5758,-1.5753,-1.6464,-1.7188,-1.7636,-1.7708,0.0,0.0,0.0,0.0,0.0,0.0,0.0,0.0,0.0,0.0,0.0,-2.0441,-2.049,-2.0558,-2.056,-2.0564,-2.0593,-2.0593,-2.0398,-1.9949,0.0,0.0,0.0,0.0,0.0,0.0,0.0,0.0,0.0,0.0,-2.0859,-2.1328,-2.2162,0.0,-2.3836,-2.4678,-2.5258,-2.5582,-2.5522,-2.5178,-2.4687,-2.4282,-2.3867,0.0,-2.299,-2.2566,-2.2084,0.0,-2.122,-2.1366,0.0,0.0,0.0,-2.0312,0.0,0.0,0.0,-2.0974,-2.1259,-2.1461,-2.1767,-2.1974,-2.1805,-2.1786,-2.1509,-2.0639,-2.088,-2.1187,-2.1251,-2.049,-2.0033,-2.022,-1.8805,-1.7963,-1.8318,-1.8031,-1.7811,-1.7811,-1.7811,-1.7726,-1.7549,-1.7392,-1.7297,-1.7311,-1.746,-1.7686,-1.8007,-1.8622,-1.9028,-1.9209,-1.9536,-1.969,-1.969,-1.969,-1.969,-1.969,-1.969,-1.969,-1.969,-1.969,-1.969,-1.969,-1.969,-1.969,-1.969,-1.969,-1.969,-1.969,-1.5117,0.0,-1.6402,-1.6402,-1.7255,-1.8179,-1.887,-1.8547,0.0,0.0,0.0,0.0,0.0,0.0,0.0,0.0,0.0,0.0,0.0,-2.0638,-2.0706,-2.074,-2.0631,-2.0642,-2.082,-2.0689,-2.0593,-2.0593,0.0,0.0,0.0,0.0,0.0,0.0,0.0,0.0,0.0,0.0,0.0,-2.1191,0.0,-2.3488,-2.4006,-2.4833,-2.5243,-2.5339,-2.5428,-2.539,-2.5284,-2.5178,-2.4206,-2.3108,-2.3493,-2.2896,0.0,0.0,0.0,0.0,0.0,0.0,0.0,0.0,0.0,-2.0406,0.0,0.0,0.0,-2.1469,-2.1538,0.0,0.0,0.0,0.0,0.0,0.0,0.0,0.0,-1.8385,0.0,-1.8529,-1.8104,-1.7743,-1.7608,-1.7591,-1.7659,-1.7794,-1.7609,-1.7438,-1.732,-1.7183,-1.7171,-1.7293,-1.7343,-1.7792,-1.868,-1.8835,-1.9146,-1.969,-1.969,-1.969,-1.969,-1.969,-1.969,-1.969,-1.969,-1.969,-1.969,-1.969,-1.969,-1.969,-1.969,-1.969,-1.969,-1.969,-1.969,-1.969,-1.5231,-1.5799,0.0,-1.6392,-1.7711,-1.8808,-1.8904,-1.9531,0.0,0.0,0.0,0.0,0.0,0.0,0.0,0.0,0.0,0.0,-2.1494,0.0,0.0,-2.1556,-2.0837,-2.0819,-2.1639,-2.0952,-2.0593,-2.0593,-2.0593,0.0,0.0,0.0,0.0,0.0,-2.1455,0.0,0.0,0.0,-2.2168,0.0,-2.3027,-2.2732,0.0,-2.2957,-2.3692,-2.4449,-2.5089,-2.5303,-2.5187,0.0,-2.4129,-2.3706,0.0,-2.2725,-2.336,-2.11,0.0,0.0,0.0,0.0,0.0,0.0,-2.0211,0.0,0.0,0.0,-2.0107,-1.9995,0.0,0.0,0.0,0.0,0.0,0.0,0.0,0.0,-1.496,-1.5706,-1.6636,-1.7075,-1.7543,-1.754,-1.6902,-1.6834,-1.7084,-1.776,-1.692,-1.666,-1.7263,-1.6747,-1.6694,-1.7293,-1.7532,-1.7989,-1.869,-1.9291,-1.9636,-1.969,-1.969,-1.969,-1.969,-1.969,-1.969,-1.969,-1.969,-1.969,-1.969,-1.969,-1.969,-1.969,-1.969,-1.969,-1.969,-1.969,-1.969,-1.969,-1.6594,-1.7251,0.0,0.0,-1.8849,-1.966,-1.9649,-2.0019,0.0,0.0,0.0,0.0,0.0,0.0,0.0,0.0,0.0,-2.2023,0.0,0.0,0.0,-2.1009,-2.0648,-2.0666,-2.1084,-2.0763,-2.0593,-2.0593,-2.0593,-2.0593,0.0,0.0,0.0,0.0,-2.1748,0.0,-2.2127,0.0,-2.2559,0.0,0.0,0.0,0.0,-2.381,-2.4645,-2.4935,-2.5206,-2.5303,-2.5245,0.0,-2.4139,0.0,0.0,0.0,0.0,-2.1927,0.0,0.0,0.0,0.0,0.0,0.0,0.0,0.0,-2.0184,0.0,-1.9915,0.0,0.0,0.0,0.0,0.0,0.0,0.0,-1.6747,0.0,0.0,0.0,-1.6042,0.0,0.0,0.0,-1.6699,-1.7084,-1.7473,-1.7794,-1.7196,-1.6886,-1.7003,-1.6939,-1.7089,-1.7504,-1.8021,-1.8619,-1.928,-1.9566,-1.969,-1.969,-1.969,-1.969,-1.969,-1.969,-1.969,-1.969,-1.969,-1.969,-1.969,-1.969,-1.969,-1.969,-1.969,-1.969,-1.969,-1.969,-1.969,-1.969,-1.8253,0.0,0.0,0.0,-1.9613,-2.0214,-2.0211,-2.0265,0.0,0.0,0.0,0.0,-2.065,-2.1285,0.0,0.0,-2.2927,-2.3001,0.0,0.0,-2.1907,-2.1565,-2.0876,-2.074,-2.1243,-2.0824,-2.0593,-2.0593,-2.0593,-2.0593,0.0,0.0,0.0,0.0,0.0,-2.2243,-2.2852,0.0,-2.2949,-2.2636,-2.3217,-2.323,-2.3069,-2.462,-2.5284,-2.537,-2.5322,-2.5303,-2.5264,-2.5063,-2.4159,0.0,-2.4312,-2.3505,-2.2284,0.0,0.0,0.0,-2.0849,0.0,0.0,0.0,0.0,0.0,0.0,0.0,0.0,0.0,0.0,0.0,0.0,0.0,0.0,0.0,0.0,-1.5721,0.0,-1.4768,0.0,0.0,0.0,0.0,0.0,-1.6881,-1.7243,-1.7339,-1.7047,-1.68,-1.6683,-1.6948,-1.7296,-1.7697,-1.8345,-1.9022,-1.9675,-1.969,-1.969,-1.969,-1.969,-1.969,-1.969,-1.969,-1.969,-1.969,-1.969,-1.969,-1.969,-1.969,-1.969,-1.969,-1.969,-1.969,-1.969,-1.969,-1.969,-1.969,-1.9962,-1.9462,0.0,0.0,0.0,-2.0211,-2.0285,0.0,0.0,0.0,0.0,0.0,0.0,0.0,0.0,0.0,0.0,-2.6272,-2.543,0.0,-2.3323,-2.4142,-2.1828,-2.125,0.0,-2.1396,-2.0593,-2.0593,-2.0593,-2.0593,0.0,0.0,0.0,0.0,-2.1522,-2.1914,-2.1992,-2.2773,-2.3574,-2.4316,-2.4355,-2.4766,-2.5293,0.0,-2.4687,-2.5303,-2.5303,0.0,0.0,-2.4389,-2.411,0.0,0.0,0.0,0.0,0.0,0.0,0.0,0.0,0.0,0.0,-2.0336,0.0,0.0,0.0,0.0,-1.9513,0.0,0.0,0.0,0.0,0.0,0.0,0.0,0.0,0.0,0.0,0.0,0.0,0.0,0.0,0.0,0.0,-1.5663,-1.5828,0.0,-1.5934,-1.5924,-1.6302,-1.657,-1.7015,-1.767,-1.8344,-1.9014,-1.9711,-1.969,-1.969,-1.969,-1.969,-1.969,-1.969,-1.969,-1.969,-1.969,-1.969,-1.969,-1.969,-1.969,-1.969,-1.969,-1.969,-1.969,-1.969,-1.969,-1.969,-1.969,0.0,0.0,0.0,0.0,0.0,0.0,0.0,-2.0312,0.0,0.0,-2.2197,0.0,0.0,-2.4899,-2.5698,0.0,0.0,-2.6559,-2.5691,-2.456,0.0,-2.3517,-2.1588,-2.1051,0.0,-2.1175,-2.0593,-2.0593,-2.0593,-2.0593,0.0,0.0,0.0,0.0,0.0,-2.2227,0.0,0.0,0.0,0.0,0.0,-2.4527,-2.4734,0.0,-2.513,-2.5303,-2.5303,-2.5303,0.0,-2.4986,-2.4543,-2.4149,-2.4389,-2.3813,-2.3089,-2.3301,-2.3075,-2.2602,0.0,0.0,-2.2177,-2.102,0.0,0.0,0.0,0.0,0.0,0.0,0.0,0.0,0.0,0.0,0.0,0.0,0.0,0.0,0.0,0.0,0.0,0.0,0.0,0.0,0.0,0.0,0.0,0.0,-1.6337,-1.6392,-1.6312,-1.6983,-1.7486,-1.7679,-1.8789,-1.9459,-1.9711,-1.969,-1.969,-1.969,-1.969,-1.969,-1.969,-1.969,-1.969,-1.969,-1.969,-1.969,-1.969,-1.969,-1.969,-1.969,-1.969,-1.969,-1.969,-1.969,-1.969,-1.975,-2.0173,0.0,0.0,0.0,0.0,0.0,0.0,0.0,0.0,0.0,-2.354,0.0,-2.5686,0.0,-2.7013,0.0,-2.7702,-2.742,-2.623,-2.5352,0.0,-2.3609,-2.2192,-2.1854,0.0,0.0,-2.1063,-2.1063,-2.0751,-2.0593,-2.0593,0.0,0.0,0.0,0.0,-2.207,-2.3203,-2.373,-2.4328,0.0,0.0,-2.4767,0.0,0.0,-2.5178,-2.4908,0.0,-2.5303,-2.5303,-2.5303,-2.4966,-2.4591,-2.5041,-2.4372,-2.3477,-2.3916,-2.3554,-2.2936,-2.2637,-2.284,0.0,-2.1709,-2.1689,0.0,-2.0284,0.0,-1.98,0.0,0.0,0.0,0.0,0.0,0.0,0.0,0.0,0.0,0.0,-1.4466,0.0,0.0,0.0,0.0,0.0,0.0,-1.5858,-1.5852,-1.616,-1.6384,-1.6432,-1.7246,-1.7807,-1.8072,-1.9131,-1.969,-1.969,-1.969,-1.969,-1.969,-1.969,-1.969,-1.969,-1.969,-1.969,-1.969,-1.969,-1.969,-1.969,-1.969,-1.969,-1.969,-1.969,-1.969,-1.969,-1.969,-1.9852,-2.0083,-2.0164,0.0,0.0,0.0,-2.0312,0.0,0.0,0.0,-2.226,0.0,-2.4951,-2.5898,-2.687,-2.8461,-2.9171,-2.8479,-2.9178,-2.8926,-2.7187,-2.625,0.0,0.0,-2.3592,-2.3511,-2.4386,0.0,0.0,-2.1904,-2.1024,-2.0593,-2.0593,0.0,0.0,0.0,-2.0605,0.0,-2.3105,-2.3164,-2.4164,-2.5688,-2.562,-2.5486,-2.5332,-2.539,-2.4859,-2.4212,-2.5014,-2.5303,-2.5303,-2.5303,-2.5303,-2.5264,-2.5057,-2.4998,-2.4937,-2.4588,-2.4495,-2.431,-2.3461,-2.3158,-2.2922,-2.2376,-2.2052,0.0,0.0,0.0,-2.0491,0.0,0.0,0.0,0.0,0.0,0.0,0.0,0.0,0.0,0.0,0.0,0.0,0.0,0.0,0.0,0.0,-1.4269,-1.4644,-1.5177,-1.5477,-1.5982,-1.6688,-1.7355,-1.8021,-1.8672,-1.9337,-1.969,-1.969,-1.969,-1.969,-1.969,-1.969,-1.969,-1.969,-1.969,-1.969,-1.969,-1.969,-1.969,-1.969,-1.969,-1.969,-1.969,-1.969,-1.969,-1.969,-1.969,-2.011,-2.0597,-2.0164,-2.0208,-2.0222,0.0,-2.0312,-2.0312,0.0,0.0,0.0,0.0,-2.6314,-2.7816,-2.93,-2.9965,-3.0212,-3.0034,-3.0359,0.0,0.0,0.0,0.0,-2.5391,-2.3906,-2.3515,-2.4374,-2.275,-2.1909,-2.1909,-2.1025,0.0,-2.0594,0.0,0.0,0.0,0.0,0.0,-2.3105,-2.312,-2.4094,-2.562,-2.5543,-2.5118,-2.4559,0.0,-2.4859,-2.4212,-2.5014,-2.5303,-2.5303,-2.5303,-2.5303,-2.5264,-2.5057,-2.4924,-2.4814,-2.4559,-2.4393,-2.4229,-2.3989,-2.3915,-2.3713,-2.2975,-2.2738,-2.2501,0.0,0.0,0.0,0.0,0.0,0.0,0.0,0.0,0.0,0.0,0.0,0.0,0.0,0.0,0.0,-1.5595,0.0,0.0,0.0,-1.4691,-1.4986,-1.5119,-1.5934,-1.6627,-1.7107,-1.7734,-1.8243,-1.8701,-1.9337,-1.969,-1.969,-1.969,-1.969,-1.969,-1.969,-1.969,-1.969,-1.969,-1.969,-1.969,-1.969,-1.969,-1.969,-1.969,-1.969,-1.969,-1.969,-1.969,-1.969,-1.969,-2.011,-2.0679,-2.0117,0.0,0.0,-2.0318,0.0,0.0,-2.1446,-2.191,0.0,-2.5543,-2.7084,0.0,-2.974,-3.0645,-3.1025,-3.0677,-3.0443,0.0,-2.7851,0.0,0.0,-2.5195,-2.4551,-2.4473,-2.4961,-2.3671,0.0,-2.242,0.0,0.0,-2.0601,0.0,0.0,0.0,0.0,-2.1347,-2.2612,-2.3318,-2.4159,-2.502,-2.5332,-2.5139,0.0,-2.5178,-2.5052,-2.4684,-2.513,-2.5303,-2.5303,-2.5303,-2.5303,-2.5253,-2.4993,-2.4869,-2.4746,-2.4444,-2.4284,-2.419,-2.419,-2.419,-2.408,-2.3639,-2.3529,-2.3271,-2.2318,-2.2117,-2.1967,0.0,-2.1182,-2.1018,0.0,0.0,0.0,0.0,0.0,0.0,0.0,0.0,0.0,0.0,-1.6642,0.0,-1.5097,-1.5316,-1.5346,-1.4869,-1.5664,-1.6401,-1.6924,-1.7727,-1.8411,-1.8876,-1.9403,-1.969,-1.969,-1.969,-1.969,-1.969,-1.969,-1.969,-1.969,-1.969,-1.969,-1.969,-1.969,-1.969,-1.969,-1.969,-1.969,-1.969,-1.969,-1.969,-1.969,-1.969,-2.011,-2.067,-2.0098,0.0,0.0,0.0,0.0,0.0,0.0,-2.2732,0.0,-2.6381,0.0,-2.8579,-2.9282,-3.0688,-3.1293,-3.0579,0.0,-2.8867,-2.7109,-2.7109,-2.6387,-2.4648,-2.5293,-2.5703,-2.5703,-2.4844,-2.3965,0.0,0.0,0.0,0.0,0.0,0.0,0.0,0.0,0.0,0.0,-2.3659,-2.4309,-2.4428,-2.51,-2.5341,-2.5303,-2.5303,-2.5303,-2.5303,-2.5303,-2.5303,-2.5303,-2.5303,-2.5274,-2.5222,-2.4902,-2.479,-2.4685,-2.4321,-2.419,-2.419,-2.419,-2.419,-2.419,-2.419,-2.417,-2.3871,-2.2885,-2.262,-2.2414,-2.1798,-2.1283,-2.1214,-2.2058,0.0,0.0,0.0,0.0,0.0,0.0,0.0,0.0,0.0,0.0,0.0,0.0,-1.5908,-1.5684,-1.4714,-1.531,-1.6038,-1.6741,0.0,-1.8556,-1.9161,-1.9513,-1.969,-1.969,-1.969,-1.969,-1.969,-1.969,-1.969,-1.969,-1.969,-1.969,-1.969,-1.969,-1.969,-1.969,-1.969,-1.969,-1.969,-1.969,-1.969,-1.969,-1.969,-2.008,-2.0482,-2.0174,0.0,0.0,0.0,0.0,-2.3447,-2.4678,-2.5957,-2.7006,-2.7601,-2.9017,-3.0037,-3.0175,-2.9932,-2.9709,-2.9571,-2.9578,0.0,0.0,0.0,0.0,-2.5547,-2.5625,-2.5703,-2.5703,-2.4844,-2.3965,0.0,0.0,0.0,0.0,0.0,0.0,0.0,0.0,0.0,-2.2943,-2.3837,0.0,-2.5206,-2.5274,-2.5303,-2.5303,-2.5303,-2.5303,-2.5303,-2.5303,-2.5303,-2.5303,-2.5303,-2.5203,-2.501,-2.4855,-2.4685,-2.4512,-2.4266,-2.419,-2.419,-2.419,-2.419,-2.419,-2.419,-2.3996,-2.3738,-2.3551,-2.328,-2.2971,-2.2581,-2.2426,-2.221,-2.173,0.0,0.0,0.0,0.0,0.0,0.0,0.0,0.0,0.0,0.0,-1.8421,0.0,-1.5961,-1.593,-1.5381,-1.6264,-1.7256,-1.8269,0.0,-1.8876,0.0,-1.966,-1.969,0.0,0.0,-1.969,-1.969,-1.969,-1.969,-1.969,-1.969,-1.969,-1.969,-1.969,-1.969,-1.969,-1.969,-1.969,-1.969,-1.969,-1.969,-1.969,-1.969,-1.9756,-1.9852,0.0,0.0,0.0,0.0,0.0,0.0,0.0,-2.8102,-2.8717,-2.739,-2.7928,-2.8255,-2.7802,-2.8714,-2.9177,-2.8728,-2.8828,-2.8379,-2.707,-2.6973,-2.6582,-2.5742,-2.5703,-2.5703,-2.5703,-2.5293,-2.4434,-2.3105,0.0,0.0,0.0,0.0,0.0,0.0,0.0,-2.1669,0.0,0.0,0.0,-2.4752,-2.513,-2.5303,-2.5303,-2.5303,-2.5303,-2.5303,-2.5303,-2.5224,-2.5152,-2.5152,-2.5088,-2.4962,-2.4727,-2.4575,-2.4461,-2.4266,-2.419,-2.419,-2.419,-2.419,-2.417,-2.3996,-2.3816,-2.361,-2.3259,-2.3069,-2.2865,-2.2537,-2.25,-2.2268,-2.1481,-2.0713,0.0,0.0,0.0,0.0,0.0,0.0,-1.9567,0.0,0.0,0.0,0.0,0.0,0.0,0.0,0.0,0.0,0.0,0.0,-1.8825,0.0,0.0,0.0,-1.969,0.0,-1.969,-1.969,-1.969,-1.969,-1.969,-1.969,-1.969,-1.969,-1.969,-1.969,-1.969,-1.969,-1.969,-1.969,-1.969,-1.969,-1.969,-1.969,-1.969,-1.969,0.0,-2.317,0.0,0.0,-2.5726,-2.7101,-2.7794,-2.9313,-2.9621,-2.7428,-2.7121,-2.6813,-2.5976,-2.7657,-2.8578,-2.7903,-2.7959,-2.7656,-2.6777,-2.625,-2.5898,-2.5703,-2.5703,-2.5703,-2.5703,-2.5703,-2.4941,0.0,0.0,0.0,0.0,0.0,0.0,0.0,0.0,0.0,0.0,0.0,-2.4195,-2.4419,-2.5043,-2.5303,-2.5303,-2.5303,-2.5303,-2.5284,-2.5253,-2.5122,-2.4998,-2.4924,-2.4879,-2.4845,-2.4572,-2.4461,-2.441,-2.4247,-2.419,-2.419,-2.419,-2.4151,-2.4016,-2.3774,-2.3588,-2.3346,-2.2822,-2.266,-2.2563,-2.2349,-2.231,-2.2073,-2.1329,-2.0805,0.0,0.0,0.0,0.0,0.0,0.0,-1.99,0.0,0.0,0.0,-1.7305,0.0,0.0,0.0,0.0,0.0,-1.7712,0.0,0.0,0.0,0.0,-1.9572,-1.9572,0.0,-1.969,-1.969,-1.969,-1.969,-1.969,-1.969,-1.969,-1.969,-1.969,-1.969,-1.969,-1.969,-1.969,-1.969,-1.969,-1.969,-1.969,-1.969,-1.969,-1.9726,0.0,0.0,0.0,0.0,0.0,-2.7813,-2.789,-2.9313,-3.0025,-2.9006,-2.8871,-2.8582,-2.783,-2.7319,-2.7039,-2.7017,-2.7074,-2.6758,-2.5879,-2.6484,-2.6523,-2.5723,-2.5703,-2.5703,-2.5703,-2.5703,-2.5234,0.0,0.0,-2.2655,0.0,0.0,0.0,0.0,0.0,0.0,0.0,-2.4036,-2.4519,-2.5188,-2.5274,-2.5303,-2.5303,-2.5303,-2.5303,-2.5274,-2.5099,-2.5022,-2.4943,-2.4651,-2.4543,-2.4543,-2.4512,-2.4375,-2.4228,-2.4227,-2.419,-2.419,-2.419,-2.3976,-2.3735,-2.3714,-2.3236,-2.2772,-2.2721,-2.25,-2.2321,-2.231,-2.231,-2.2073,-2.1329,-2.1684,-2.1854,0.0,0.0,0.0,0.0,0.0,-2.1474,-2.0043,0.0,0.0,-1.7737,-1.8208,0.0,0.0,-1.7817,0.0,0.0,0.0,0.0,-1.9102,-1.9142,-1.9152,-1.9152,-1.9517,-1.969,-1.969,-1.969,-1.969,-1.969,-1.969,-1.969,-1.969,-1.969,-1.969,-1.969,-1.969,-1.969,-1.969,-1.969,-1.969,-1.969,-1.969,-1.969,-1.9771,0.0,0.0,0.0,0.0,0.0,0.0,0.0,-2.959,-2.9394,-2.8595,-2.8464,-2.8129,-2.7311,-2.7005,-2.6659,-2.6156,-2.6654,-2.6621,-2.5762,-2.6035,-2.6055,-2.5723,-2.5703,-2.5703,-2.5703,-2.5703,-2.5273,0.0,0.0,0.0,0.0,0.0,0.0,0.0,0.0,-2.3521,-2.414,-2.462,-2.5014,-2.5303,-2.5303,-2.5303,-2.5303,-2.5303,-2.5224,-2.5111,-2.5034,-2.4872,-2.4678,-2.4543,-2.4495,-2.4478,-2.4357,-2.4247,-2.419,-2.419,-2.419,-2.419,-2.419,-2.4094,-2.3937,-2.3735,-2.3346,-2.2947,-2.2746,-2.25,-2.231,-2.231,-2.231,-2.2226,-2.1904,-2.1729,-2.1688,-2.183,0.0,0.0,0.0,0.0,0.0,-2.0989,0.0,-1.9778,-1.8994,-1.8778,0.0,0.0,0.0,0.0,0.0,0.0,0.0,-1.9083,0.0,-1.9446,-1.9446,-1.9611,-1.969,-1.969,-1.969,-1.969,-1.969,-1.969,-1.969,-1.969,-1.969,-1.969,-1.969,-1.969,-1.969,-1.969,-1.969,-1.969,-1.969,-1.969,-1.969,-1.9741,-2.8198,0.0,-2.7794,0.0,-2.9006,-2.9063,-3.0314,-2.9982,-2.9302,-2.855,-2.8217,-2.7627,-2.6495,-2.6458,-2.6274,-2.5672,-2.6242,-2.6367,-2.5742,-2.5703,-2.5703,-2.5703,-2.5703,0.0,-2.5703,-2.5703,-2.5405,-2.4774,-2.4186,0.0,0.0,0.0,0.0,0.0,-2.3972,-2.4236,-2.4495,-2.5072,-2.5437,-2.5649,-2.5399,-2.5417,-2.5597,-2.5568,-2.5306,-2.4962,-2.5143,-2.49,-2.4495,-2.4426,-2.441,-2.4393,-2.4247,-2.419,-2.419,-2.419,-2.419,-2.419,-2.419,-2.4132,-2.3976,-2.3649,-2.33,-2.2972,-2.2652,-2.2453,-2.231,-2.231,-2.231,-2.231,-2.231,-2.1864,-2.1688,-2.2226,0.0,0.0,0.0,-2.192,0.0,-2.1133,-2.043,-1.9869,-1.9604,-1.9108,0.0,0.0,0.0,0.0,0.0,0.0,0.0,0.0,0.0,0.0,-1.9517,-1.9656,-1.969,-1.969,-1.969,-1.969,-1.969,-1.969,-1.969,-1.969,-1.969,-1.969,-1.969,-1.969,-1.969,-1.969,-1.969,-1.969,-1.969,-1.969,-1.969,-1.975,-2.8929,-2.9083,-2.9352,-3.0237,-3.0379,-3.0398,-3.0487,-3.0487,-3.019,-2.9383,-2.8647,-2.7547,-2.5813,-2.5601,-2.5645,-2.5681,-2.5703,-2.5703,-2.5703,-2.5703,-2.5703,0.0,0.0,-2.5703,-2.5703,-2.5703,-2.5683,-2.5681,0.0,0.0,-2.5535,0.0,-2.46,-2.5324,-2.4476,-2.4534,-2.5284,-2.5303,-2.5813,-2.6505,-2.5649,-2.571,-2.6276,-2.6212,-2.5625,-2.4888,-2.5476,-2.5184,-2.4461,-2.4266,-2.419,-2.419,-2.419,-2.419,-2.419,-2.419,-2.419,-2.419,-2.419,-2.3976,-2.3628,-2.33,-2.2947,-2.2634,-2.2377,-2.231,-2.231,-2.231,-2.231,-2.231,-2.231,-2.2293,-2.2293,-2.231,0.0,0.0,0.0,-2.1995,0.0,-2.0021,-2.0157,-2.004,-1.92,-1.91,0.0,0.0,0.0,0.0,0.0,0.0,0.0,-1.9094,-1.9094,0.0,-1.9109,-1.9486,-1.969,-1.969,-1.969,-1.969,-1.969,-1.969,-1.969,-1.969,-1.969,-1.969,-1.969,-1.969,-1.969,-1.969,-1.969,-1.969,-1.969,-1.969,-1.969,-1.9869,-2.9948,-2.9987,-3.0083,-3.034,-2.9944,-2.9809,-3.0467,-2.9133,-2.8172,-2.856,-2.7383,-2.6278,-2.5726,-2.5674,-2.5681,0.0,-2.5703,-2.5703,0.0,-2.5703,-2.5703,-2.5703,-2.5703,-2.5703,-2.5703,-2.6276,-2.6554,-2.6527,0.0,0.0,0.0,-2.5156,-2.5447,-2.6208,-2.5928,-2.5956,-2.6197,-2.6197,-2.6576,-2.7198,-2.6911,-2.6523,-2.609,-2.6076,-2.5442,-2.4613,-2.481,-2.4633,-2.4284,-2.4228,-2.419,-2.419,-2.419,-2.419,-2.419,-2.419,-2.419,-2.419,-2.419,-2.4113,-2.3976,-2.361,-2.33,-2.2947,-2.2652,-2.2426,-2.231,-2.231,-2.231,-2.231,-2.231,-2.231,-2.231,-2.231,-2.231,0.0,-2.2102,0.0,-2.1972,-2.1118,-2.0901,-2.0553,-1.9978,-1.9649,0.0,0.0,0.0,0.0,0.0,0.0,0.0,0.0,-1.9383,0.0,-1.9486,-1.9641,-1.969,-1.969,-1.969,-1.969,-1.969,-1.969,-1.969,-1.969,-1.969,-1.969,-1.969,-1.969,-1.969,-1.969,-1.969,-1.969,-1.969,-1.969,-1.969,-1.975,-3.0398,-3.0398,-3.0398,-3.0417,-3.0021,-2.9809,-3.0148,-2.8871,-2.7865,-2.7818,-2.6862,-2.6052,-2.5735,-2.5707,0.0,-2.5703,-2.5703,-2.5703,-2.5703,-2.5703,-2.5703,-2.5703,-2.5703,-2.5696,-2.5702,-2.6535,0.0,-2.6902,-2.6932,-2.7061,-2.727,-2.6935,-2.7061,-2.7525,-2.7217,-2.7082,-2.7063,-2.6736,-2.6956,-2.7477,-2.6816,-2.6285,-2.589,-2.5893,-2.5254,-2.443,-2.4726,-2.4561,-2.419,-2.419,-2.419,-2.419,-2.419,-2.419,-2.419,-2.419,-2.419,-2.417,-2.4054,-2.4016,-2.3896,-2.3437,-2.3165,-2.2923,-2.2625,-2.2426,-2.231,-2.231,-2.231,-2.231,-2.231,-2.231,-2.231,-2.231,-2.231,-2.231,-2.231,-2.2149,-2.1834,-2.1209,-2.0791,-2.0352,-1.9878,-1.9619,-1.9435,0.0,0.0,0.0,0.0,0.0,-1.942,-1.9322,-1.9557,-1.969,-1.969,-1.969,-1.969,-1.969,-1.969,-1.969,-1.969,-1.969,-1.969,-1.969,-1.969,-1.969,-1.969,-1.969,-1.969,-1.969,-1.969,-1.969,-1.969,-1.969,-1.969,-1.972,-3.0398,-3.0398,-3.0417,0.0,-3.0467,-3.0225,-2.9605,-2.941,-2.8775,-2.7204,-2.6953,-2.6602,-2.5781,-2.5703,-2.5703,-2.5703,0.0,0.0,-2.5703,-2.5703,-2.5703,-2.5703,-2.5761,-2.5784,-2.5788,-2.6642,-2.7067,-2.7067,-2.8476,-2.9579,-3.0294,-2.941,-2.9044,-2.9063,-2.8255,-2.789,-2.7852,-2.7014,-2.7022,-2.742,-2.5787,-2.5343,-2.5667,-2.567,-2.506,-2.43,-2.5054,-2.4832,-2.419,-2.419,-2.419,-2.419,-2.419,-2.419,-2.419,-2.419,-2.417,-2.4094,-2.3795,-2.3692,-2.3522,-2.2873,-2.2695,-2.2599,-2.2377,-2.231,-2.231,-2.231,-2.231,-2.231,-2.231,-2.231,-2.231,-2.231,-2.231,-2.231,-2.231,-2.1894,-2.131,-2.0524,0.0,0.0,-1.9188,-1.9122,-1.928,0.0,0.0,0.0,0.0,0.0,-1.928,-1.9696,-1.969,-1.969,-1.969,-1.969,-1.969,-1.969,-1.969,-1.969,-1.969,-1.969,-1.969,-1.969,-1.969,-1.969,-1.969,-1.969,-1.969,-1.969,-1.969,-1.969,-1.969,-1.969,-1.969,-1.9779,0.0,0.0,-3.0487,-3.0506,-3.009,-2.9694,-2.9529,-2.8411,-2.7444,-2.705,-2.6426,-2.5937,-2.5723,-2.5703,-2.5703,-2.5703,-2.5703,-2.5703,-2.5703,-2.5703,-2.5703,-2.5703,-2.6332,-2.667,-2.6634,-2.8119,-2.8806,-2.8656,-2.8975,-2.9217,-2.939,-2.8563,-2.8506,-2.9063,-2.8255,-2.789,-2.789,-2.7527,-2.7336,-2.7248,-2.6674,-2.606,-2.5465,-2.5463,-2.4946,-2.4226,-2.441,-2.4355,-2.419,-2.419,-2.419,-2.419,-2.419,-2.419,-2.419,-2.419,-2.4016,-2.3795,-2.3714,-2.3522,-2.3212,-2.2797,-2.2537,-2.2388,-2.2293,-2.231,-2.231,-2.231,-2.231,-2.231,-2.231,-2.231,-2.231,-2.231,-2.231,-2.231,-2.231,-2.1908,-2.1418,0.0,-2.0462,-2.0019,-1.9592,-1.9542,-1.9461,0.0,0.0,-1.9238,-1.9238,-1.9137,-1.928,-1.9696,-1.969,-1.969,-1.969,-1.969,-1.969,-1.969,-1.969,-1.969,-1.969,-1.969,-1.969,-1.969,-1.969,-1.969,-1.969,-1.969,-1.969,-1.969,-1.969,-1.969,-1.969,-1.969,-1.969,-1.9705,-3.0544,-3.0487,-3.0525,-3.0583,-3.0283,-2.9918,-2.9596,-2.8449,-2.7441,-2.7051,-2.623,-2.5703,-2.5703,-2.5703,-2.5703,-2.5703,-2.5703,-2.5703,-2.5703,-2.5703,-2.5693,-2.5707,-2.6497,-2.6941,-2.6902,-2.8514,-2.9502,-2.9756,-2.9717,-2.9698,-2.9679,-2.9256,-2.9275,-2.9679,-2.9236,-2.876,-2.8279,-2.781,-2.7182,-2.6472,-2.5981,-2.5431,-2.4832,-2.4832,-2.4575,-2.419,-2.419,-2.419,-2.419,-2.419,-2.419,-2.419,-2.419,-2.419,-2.417,-2.4016,-2.3837,-2.3671,-2.3522,-2.323,-2.2898,-2.259,-2.2398,-2.231,-2.231,-2.231,-2.231,-2.231,-2.231,-2.231,-2.231,-2.231,-2.231,-2.231,-2.2023,-2.1911,-2.2248,-2.1471,-2.0879,-2.0971,-2.0428,-1.9933,-1.9726,-1.969,-1.9596,-1.9394,-1.9364,0.0,-1.9364,-1.9364,-1.9461,-1.9711,-1.969,-1.969,-1.969,-1.969,-1.969,-1.969,-1.969,-1.969,-1.969,-1.969,-1.969,-1.969,-1.969,-1.969,-1.969,-1.969,-1.969,-1.969,-1.969,-1.969,-1.969,-1.969,-1.969,-1.969,-3.0506,-3.0525,-3.0564,-3.0679,-3.0623,-3.0323,-2.9703,-2.875,-2.7832,-2.7109,-2.623,-2.5703,-2.5703,-2.5703,-2.5703,-2.5703,-2.5703,-2.5703,-2.5703,-2.5703,-2.5691,-2.5704,-2.6603,-2.7086,-2.7086,-2.8591,-2.9733,-3.0398,-3.0398,-3.0398,-3.0398,-3.0275,-3.0275,-3.0379,-3.022,-2.9602,-2.8572,-2.7812,-2.6722,-2.5459,-2.4739,-2.4339,-2.419,-2.419,-2.419,-2.419,-2.419,-2.419,-2.419,-2.419,-2.419,-2.419,-2.419,-2.419,-2.4113,-2.3795,-2.3671,-2.3544,-2.323,-2.2873,-2.2573,-2.2377,-2.231,-2.231,-2.231,-2.231,-2.231,-2.231,-2.231,-2.231,-2.231,-2.231,-2.2248,-2.2136,-2.1703,-2.1552,-2.2055,0.0,-2.0289,-2.0926,-2.0224,-1.969,-1.969,-1.969,-1.969,-1.969,-1.969,-1.969,-1.969,-1.969,-1.969,-1.969,-1.969,-1.969,-1.969,-1.969,-1.969,-1.969,-1.969,-1.969,-1.969,-1.969,-1.969,-1.969,-1.969,-1.969,-1.969,-1.969,-1.969,-1.969,-1.969,-1.969,-1.969,-1.969,-1.969,-1.969,-3.0641,-3.0583,-3.0679,-3.0698,-3.0179,-2.9739,-2.9629,-2.8242,-2.7148,-2.7012,-2.623,-2.5703,-2.5703,-2.5703,-2.5703,-2.5703,-2.5703,-2.5703,-2.5703,-2.5703,-2.5691,-2.5704,-2.7182,-2.7984,-2.7896,-2.9413,-3.0263,-3.0398,-3.0398,-3.0398,-3.0379,-2.964,-2.9698,-3.0359,-2.9455,-2.8586,-2.7758,-2.7231,-2.611,-2.4662,-2.4377,-2.4228,-2.419,-2.419,-2.419,-2.419,-2.419,-2.419,-2.419,-2.419,-2.419,-2.419,-2.419,-2.419,-2.4113,-2.3795,-2.35,-2.3189,-2.2873,-2.2563,-2.2349,-2.231,-2.231,-2.231,-2.231,-2.231,-2.231,-2.231,-2.231,-2.231,-2.231,-2.231,-2.2102,-2.1463,-2.1799,-2.1946,-2.144,0.0,-2.0878,-2.0985,-2.0246,-1.969,-1.969,-1.969,-1.969,-1.969,-1.969,-1.969,-1.969,-1.969,-1.969,-1.969,-1.969,-1.969,-1.969,-1.969,-1.969,-1.969,-1.969,-1.969,-1.969,-1.969,-1.969,-1.969,-1.969,-1.969,-1.969,-1.969,-1.969,-1.969,-1.969,-1.969,-1.969,-1.969,-1.969,-1.969,-3.0756,-3.066,-3.0721,-3.0808,-3.0018,-2.9434,-2.957,-2.8125,-2.6992,-2.6992,-2.623,-2.5703,-2.5703,-2.5703,-2.5703,-2.5703,-2.5703,-2.5703,-2.5703,-2.5697,-2.5686,-2.5636,-2.7239,-2.8531,-2.9317,-2.959,-2.9929,-3.0398,-3.0398,-3.0398,-3.0379,-2.9987,-3.0006,-3.0379,-2.9735,-2.8694,-2.7409,-2.7058,-2.5912,-2.4339,-2.4247,-2.419,-2.419,-2.419,-2.419,-2.419,-2.419,-2.419,-2.419,-2.419,-2.419,-2.419,-2.419,-2.4074,-2.3858,-2.3522,-2.3189,-2.2873,-2.2581,-2.2371,-2.231,-2.231,-2.231,-2.231,-2.231,-2.231,-2.231,-2.231,-2.231,-2.231,-2.231,-2.231,-2.2198,-2.186,-2.1748,-2.1742,-2.1782,-2.0983,-2.0556,-2.094,-2.0235,-1.969,-1.969,-1.969,-1.969,-1.969,-1.969,-1.969,-1.969,-1.969,-1.9854,-2.0228,-1.9884,-1.969,-1.969,-1.969,-1.969,-1.969,-1.969,-1.969,-1.969,-1.969,-1.969,-1.969,-1.969,-1.969,-1.969,-1.969,-1.969,-1.969,-1.969,-1.969,-1.969,-1.969,-1.969,-1.969,-3.0814,-3.0732,-3.0722,-3.0621,-2.9707,-2.9062,-2.9277,-2.7812,-2.6777,-2.6973,-2.623,-2.5703,-2.5703,-2.5703,-2.5703,-2.5703,-2.5703,-2.5682,-2.5683,-2.5679,-2.564,-2.5601,-2.7191,-2.872,-3.0063,-2.964,-2.9737,-3.0398,-3.0398,-3.0398,-3.0398,-3.0398,-3.0271,-3.0023,-2.9761,-2.8647,-2.6908,-2.6654,-2.5653,-2.419,-2.419,-2.419,-2.419,-2.419,-2.419,-2.419,-2.419,-2.419,-2.419,-2.419,-2.419,-2.419,-2.419,-2.4016,-2.3753,-2.3323,-2.2915,-2.2563,-2.2349,-2.231,-2.231,-2.231,-2.231,-2.231,-2.231,-2.231,-2.231,-2.231,-2.231,-2.231,-2.231,-2.231,-2.2231,-2.2085,0.0,-2.1664,-2.222,-2.1183,-2.0655,-2.1401,-2.0573,-1.9929,-1.9929,-1.9779,-1.969,-1.969,-1.9824,-1.9854,-1.969,-1.9839,-2.0094,-2.0468,-2.0124,-1.9854,-1.969,-1.969,-1.969,-1.969,-1.969,-1.9765,-1.9914,-1.975,-1.9779,-1.9914,-1.975,-1.969,-1.969,-1.969,-1.969,-1.969,-1.969,-1.969,-1.969,-1.969,-1.969,-1.969,-3.0717,-3.08,-3.0623,-2.9844,-2.8965,-2.8379,-2.8398,-2.6914,-2.6094,-2.6894,-2.623,-2.5703,-2.5703,-2.5703,-2.5703,-2.5703,-2.5703,-2.5676,-2.5608,-2.5601,-2.5601,-2.5601,-2.714,-2.8371,-2.9179,-2.9929,-3.034,-3.0398,-3.0398,-3.0398,-3.0398,-3.0398,-2.9876,-2.8911,-2.8704,-2.757,-2.5794,-2.5615,-2.4999,-2.419,-2.419,-2.419,-2.419,-2.419,-2.419,-2.419,-2.419,-2.419,-2.419,-2.419,-2.419,-2.419,-2.419,-2.417,-2.4054,-2.3392,-2.2798,-2.2338,-2.231,-2.231,-2.231,-2.231,-2.231,-2.231,-2.231,-2.231,-2.231,-2.231,-2.231,-2.231,-2.231,-2.231,-2.2085,-2.1384,0.0,0.0,-2.228,-2.2033,-2.2128,-2.2848,-2.1576,-2.0632,-2.0632,-2.0064,-1.969,-1.969,-2.0288,-2.0363,-1.972,-2.0288,-2.0363,-1.9779,-2.0333,-2.0333,-1.969,-1.969,-1.969,-1.969,-1.969,-2.0019,-2.0617,-1.9974,-2.0034,-2.0602,-1.9959,-1.969,-1.969,-1.969,-1.969,-1.969,-1.969,-1.969,-1.969,-1.969,-1.969,-1.969,-3.0909,-3.0864,-3.0801,-3.0469,-2.8926,-2.7871,-2.8242,-2.6816,-2.582,-2.6152,-2.5918,-2.5703,-2.5703,-2.5703,-2.5703,-2.5703,-2.5707,-2.5672,-2.5601,-2.5563,-2.5755,-2.6264,-2.6322,-2.7206,-2.9063,-2.8929,-2.9371,-3.0398,-3.0398,-3.0398,-3.0398,-3.0398,-3.0094,-2.9518,-2.8806,-2.7725,-2.6394,-2.5705,-2.4944,-2.419,-2.419,-2.419,-2.419,-2.419,-2.419,-2.419,-2.419,-2.419,-2.419,-2.419,-2.419,-2.419,-2.419,-2.3917,-2.3455,-2.2824,-2.248,-2.231,-2.231,-2.231,-2.231,-2.231,-2.231,-2.231,-2.231,-2.231,-2.231,-2.231,-2.231,-2.231,-2.231,-2.231,-2.2353,-2.2533,0.0,-2.3123,-2.3587,-2.3373,-2.3165,-2.3099,-2.231,-2.1492,-2.0752,-2.0842,-2.0767,-2.0348,-2.0946,-2.1036,-2.0363,-2.0168,-2.0154,-2.0318,-2.0168,-1.9944,-1.969,-1.969,-1.9899,-2.0318,-2.0318,-2.0677,-2.1321,-2.1051,-2.0857,-2.0707,-2.0438,-2.0079,-1.969,-1.969,-1.969,-1.969,-1.969,-1.969,-1.969,-1.969,-1.969,-1.969,-3.0991,-3.0898,-3.0781,-3.043,-2.8887,-2.7637,-2.75,-2.6465,-2.5703,-2.5703,-2.5703,-2.5703,-2.5703,-2.5703,-2.5703,-2.5703,-2.5692,-2.5659,-2.5575,-2.5495,-2.5668,-2.6245,-2.5899,-2.6524,-2.8275,-2.8294,-2.8832,-2.9987,-3.0275,-3.0275,-2.9987,-2.9987,-2.9673,-2.9072,-2.8134,-2.7242,-2.6358,-2.5427,-2.4685,-2.419,-2.419,-2.419,-2.419,-2.419,-2.419,-2.419,-2.419,-2.419,-2.419,-2.419,-2.4132,-2.4036,-2.4036,-2.3588,-2.2947,-2.2554,-2.2377,-2.231,-2.231,-2.231,-2.231,-2.231,-2.231,-2.231,-2.231,-2.2474,-2.2666,-2.2666,-2.283,-2.3005,-2.3005,-2.2992,-2.3159,-2.3654,-2.3751,-2.3991,-2.4743,-2.4464,-2.4129,-2.4029,-2.3259,-2.2401,-2.163,-2.1663,-2.1515,-2.1051,-2.1635,-2.1799,-2.135,-2.0483,-2.0318,-2.0991,-2.0154,-1.9794,-2.0004,-1.9794,-2.0034,-2.0722,-2.0722,-2.1171,-2.1994,-2.1799,-2.156,-2.1321,-2.1111,-2.0632,-2.0034,-2.0228,-2.0064,-1.9705,-1.9929,-1.9884,-1.969,-1.969,-1.969,-1.969,-3.0898,-3.0898,-3.0547,-2.9414,-2.8691,-2.7715,-2.5977,-2.5703,-2.5703,-2.5703,-2.5703,-2.5703,-2.5703,-2.5703,-2.5703,-2.5703,-2.5692,-2.5633,-2.5498,-2.5368,-2.5303,-2.5303,-2.614,-2.6601,-2.6601,-2.8236,-2.9083,-2.9083,-2.9967,-2.9948,-2.9083,-2.9083,-2.8396,-2.7167,-2.6371,-2.5772,-2.5348,-2.4538,-2.419,-2.419,-2.419,-2.419,-2.419,-2.419,-2.419,-2.419,-2.419,-2.419,-2.419,-2.419,-2.3976,-2.3692,-2.3692,-2.3253,-2.2695,-2.2695,-2.25,-2.231,-2.231,-2.231,-2.231,-2.231,-2.231,-2.231,-2.231,-2.2875,-2.3397,-2.3397,-2.4001,-2.451,-2.451,-2.4498,-2.4513,-2.4513,-2.4513,-2.476,-2.5497,-2.5143,-2.5102,-2.5914,-2.4483,-2.3421,-2.3406,-2.2358,-2.171,-2.171,-2.2308,-2.2724,-2.2724,-2.144,-2.1021,-2.168,-2.0408,-2.0034,-2.0707,-2.0034,-2.0034,-2.0722,-2.0722,-2.141,-2.2694,-2.2009,-2.2069,-2.2679,-2.1994,-2.1335,-2.0782,-2.1425,-2.0902,-1.9765,-2.0453,-2.0303,-1.9741,-1.969,-1.969,-1.969,-3.0898,-3.041,-3.0078,-3.0351,-2.873,-2.7285,-2.6934,-2.6211,-2.5703,-2.5703,-2.5703,-2.5703,-2.5703,-2.5703,-2.5703,-2.5703,-2.5699,-2.5647,-2.5506,-2.537,-2.5303,-2.5303,-2.5553,-2.5967,-2.6582,-2.7082,-2.764,-2.8255,-2.8525,-2.8506,-2.8255,-2.8255,-2.788,-2.7167,-2.6371,-2.5772,-2.5348,-2.4538,-2.419,-2.419,-2.419,-2.419,-2.419,-2.419,-2.419,-2.419,-2.419,-2.419,-2.419,-2.419,-2.3976,-2.3628,-2.3141,-2.2873,-2.2643,-2.249,-2.236,-2.2412,-2.2936,-2.3073,-2.2943,-2.244,-2.231,-2.231,-2.231,-2.2875,-2.3397,-2.3397,-2.3985,-2.4508,-2.4508,-2.4481,-2.4663,-2.5179,-2.528,-2.5547,-2.627,-2.6219,-2.6116,-2.6016,-2.5234,-2.4327,-2.3491,-2.3178,-2.2862,-2.2413,-2.2604,-2.2862,-2.3295,-2.2099,-2.171,-2.2368,-2.1545,-2.0976,-2.0722,-2.0034,-2.0034,-2.0722,-2.1186,-2.1859,-2.2724,-2.2921,-2.2892,-2.2709,-2.2473,-2.2009,-2.1425,-2.162,-2.1455,-2.1111,-2.1321,-2.1276,-2.1036,-2.0587,-2.0408,-2.0333,-3.082,-3.0195,-2.957,-2.9531,-2.8418,-2.7344,-2.6816,-2.6133,-2.5703,-2.5703,-2.5703,-2.5703,-2.5703,-2.5701,-2.5679,-2.566,-2.5613,-2.5546,-2.5476,-2.537,-2.5303,-2.5303,-2.5303,-2.5553,-2.6082,-2.6428,-2.6851,-2.739,-2.7736,-2.7717,-2.739,-2.739,-2.7141,-2.6679,-2.5884,-2.5492,-2.5348,-2.4538,-2.419,-2.419,-2.419,-2.419,-2.419,-2.419,-2.419,-2.419,-2.419,-2.419,-2.419,-2.419,-2.3896,-2.3392,-2.2755,-2.2537,-2.2579,-2.2688,-2.275,-2.2902,-2.363,-2.3837,-2.3743,-2.3287,-2.296,-2.2813,-2.3119,-2.3511,-2.3904,-2.4211,-2.4841,-2.538,-2.538,-2.538,-2.5514,-2.5967,-2.6034,-2.6185,-2.664,-2.6691,-2.659,-2.6297,-2.5835,-2.5137,-2.4193,-2.3994,-2.3685,-2.3113,-2.3041,-2.3206,-2.358,-2.2637,-2.2383,-2.3026,-2.2158,-2.1635,-2.1485,-2.0827,-2.0692,-2.1111,-2.1769,-2.2413,-2.3056,-2.343,-2.3385,-2.3041,-2.3041,-2.2682,-2.2099,-2.2353,-2.2143,-2.1724,-2.1979,-2.1919,-2.162,-2.0961,-2.0722,-2.0617,-3.0742,-3.0195,-2.918,-2.7793,-2.791,-2.7617,-2.5957,-2.5703,-2.5703,-2.5703,-2.5703,-2.5703,-2.5703,-2.5698,-2.5659,-2.5601,-2.5486,-2.5409,-2.5409,-2.5341,-2.5303,-2.5303,-2.5303,-2.5303,-2.5303,-2.6082,-2.6486,-2.6486,-2.7274,-2.7255,-2.6465,-2.6465,-2.6256,-2.5822,-2.5099,-2.4972,-2.5256,-2.4502,-2.419,-2.419,-2.419,-2.419,-2.419,-2.419,-2.419,-2.419,-2.419,-2.419,-2.419,-2.4113,-2.3692,-2.3087,-2.248,-2.231,-2.2446,-2.3173,-2.3393,-2.3579,-2.4388,-2.4608,-2.4625,-2.4692,-2.4139,-2.3756,-2.435,-2.454,-2.4824,-2.553,-2.6286,-2.6809,-2.6911,-2.6911,-2.6894,-2.6894,-2.6911,-2.6894,-2.6826,-2.6826,-2.6826,-2.6741,-2.6338,-2.5847,-2.5374,-2.4757,-2.4208,-2.3728,-2.3625,-2.3595,-2.3595,-2.3071,-2.3011,-2.358,-2.2473,-2.2128,-2.2667,-2.2143,-2.1799,-2.171,-2.2368,-2.2981,-2.352,-2.358,-2.3595,-2.3595,-2.3595,-2.3281,-2.2802,-2.337,-2.2921,-2.1919,-2.2458,-2.2308,-2.1695,-2.1015,-2.0745,-2.0655,-3.0859,-3.0195,-2.9434,-2.8906,-2.7969,-2.6914,-2.5859,-2.5703,-2.5703,-2.5703,-2.5703,-2.5703,-2.5703,-2.5698,-2.5659,-2.5601,-2.5486,-2.5409,-2.5409,-2.5341,-2.5303,-2.5303,-2.5303,-2.5303,-2.5303,-2.5495,-2.5572,-2.5572,-2.5774,-2.5685,-2.5344,-2.5344,-2.5156,-2.4823,-2.4652,-2.4538,-2.4447,-2.4263,-2.419,-2.419,-2.419,-2.419,-2.419,-2.419,-2.419,-2.419,-2.419,-2.419,-2.4113,-2.3588,-2.3323,-2.3087,-2.248,-2.231,-2.2446,-2.3173,-2.3393,-2.368,-2.5,-2.5353,-2.5503,-2.6098,-2.5679,-2.5002,-2.4586,-2.4961,-2.5562,-2.6303,-2.7063,-2.7759,-2.839,-2.8509,-2.8494,-2.8505,-2.8484,-2.8323,-2.7864,-2.7789,-2.7619,-2.713,-2.664,-2.6275,-2.6146,-2.5162,-2.4521,-2.4403,-2.3909,-2.3595,-2.3595,-2.3475,-2.346,-2.3595,-2.3325,-2.3026,-2.2724,-2.3011,-2.2682,-2.171,-2.2368,-2.2783,-2.2892,-2.337,-2.3595,-2.3595,-2.3595,-2.352,-2.3415,-2.355,-2.343,-2.3146,-2.2817,-2.2634,-2.2404,-2.1484,-2.0962,-2.0617,-3.082,-3.0195,-2.9414,-2.8867,-2.8125,-2.7187,-2.5898,-2.5703,-2.5703,-2.5703,-2.5703,-2.5697,-2.5706,-2.5673,-2.5601,-2.5505,-2.5409,-2.5341,-2.5341,-2.5322,-2.5303,-2.5303,-2.5303,-2.5303,-2.5303,-2.5303,-2.5303,-2.5303,-2.5303,-2.5203,-2.501,-2.501,-2.4818,-2.4495,-2.4495,-2.4393,-2.419,-2.419,-2.419,-2.419,-2.419,-2.419,-2.419,-2.419,-2.419,-2.419,-2.419,-2.419,-2.4094,-2.3414,-2.3189,-2.3087,-2.248,-2.2547,-2.297,-2.3697,-2.4171,-2.4695,-2.5828,-2.6132,-2.6217,-2.659,-2.6404,-2.6016,-2.5644,-2.5842,-2.632,-2.708,-2.7841,-2.8513,-2.8926,-2.8994,-2.8989,-2.9005,-2.8984,-2.8896,-2.8593,-2.8262,-2.7977,-2.7656,-2.7142,-2.6686,-2.6421,-2.5591,-2.4925,-2.4612,-2.4582,-2.4418,-2.4103,-2.4088,-2.4088,-2.4088,-2.3774,-2.3445,-2.3116,-2.343,-2.3266,-2.2607,-2.2951,-2.3295,-2.361,-2.3595,-2.3595,-2.3595,-2.3595,-2.3595,-2.3595,-2.3595,-2.3595,-2.3535,-2.2921,-2.2724,-2.2559,-2.1409,-2.0822,-2.0466,-3.0566,-3.0098,-2.9277,-2.8262,-2.8086,-2.7539,-2.5937,-2.5703,-2.5703,-2.5703,-2.5703,-2.5698,-2.5697,-2.562,-2.5524,-2.5409,-2.5341,-2.5303,-2.5303,-2.5303,-2.5303,-2.5303,-2.5303,-2.5303,-2.5303,-2.5303,-2.5303,-2.5303,-2.5303,-2.5192,-2.4962,-2.4962,-2.4776,-2.4444,-2.4444,-2.4357,-2.419,-2.419,-2.419,-2.419,-2.419,-2.419,-2.419,-2.419,-2.419,-2.419,-2.419,-2.417,-2.4016,-2.3346,-2.3117,-2.3014,-2.2453,-2.2733,-2.3376,-2.4269,-2.4932,-2.5609,-2.6471,-2.6691,-2.6708,-2.6843,-2.6911,-2.6928,-2.7063,-2.6979,-2.7131,-2.8015,-2.8706,-2.9237,-2.9359,-2.9376,-2.9376,-2.9376,-2.9307,-2.9224,-2.9206,-2.8626,-2.8217,-2.8298,-2.7805,-2.7205,-2.6641,-2.6105,-2.5555,-2.4955,-2.536,-2.5375,-2.4776,-2.4746,-2.4746,-2.4746,-2.4238,-2.3939,-2.3939,-2.3939,-2.3999,-2.4103,-2.3999,-2.4118,-2.4388,-2.3864,-2.3595,-2.3595,-2.3595,-2.3595,-2.3595,-2.3595,-2.3595,-2.3535,-2.2802,-2.2544,-2.2353,-2.1021,-2.043,-2.028,-2.9902,-2.9687,-2.9082,-2.7461,-2.7187,-2.6836,-2.5859,-2.5703,-2.5703,-2.5703,-2.5703,-2.5698,-2.5697,-2.5582,-2.5486,-2.5409,-2.5341,-2.5303,-2.5303,-2.5303,-2.5303,-2.5303,-2.5303,-2.5303,-2.5303,-2.5303,-2.5303,-2.5303,-2.5303,-2.5138,-2.4832,-2.4832,-2.4623,-2.4247,-2.4247,-2.4228,-2.419,-2.419,-2.419,-2.419,-2.419,-2.419,-2.419,-2.419,-2.419,-2.419,-2.419,-2.4016,-2.3671,-2.2996,-2.2772,-2.2712,-2.2415,-2.2378,-2.2733,-2.4086,-2.4574,-2.4932,-2.6319,-2.6691,-2.6843,-2.7487,-2.764,-2.7827,-2.8527,-2.8168,-2.8083,-2.9484,-2.9872,-3.0141,-3.0769,-3.0892,-3.0892,-3.0892,-3.0476,-3.013,-3.0118,-2.9189,-2.8636,-2.9163,-2.8682,-2.809,-2.7489,-2.6846,-2.6422,-2.6333,-2.5884,-2.557,-2.548,-2.548,-2.548,-2.548,-2.539,-2.533,-2.533,-2.533,-2.5615,-2.6183,-2.5615,-2.4777,-2.3729,-2.364,-2.3595,-2.3595,-2.3595,-2.3595,-2.3595,-2.3595,-2.3595,-2.3475,-2.2293,-2.1829,-2.1665,-2.0318,-2.0021,-2.0246,-2.8945,-2.8867,-2.8476,-2.7226,-2.7402,-2.7266,-2.5918,-2.6523,-2.6797,-2.582,-2.6113,-2.6238,-2.5745,-2.5569,-2.5466,-2.5341,-2.5322,-2.5303,-2.5303,-2.5303,-2.5303,-2.5303,-2.5303,-2.5303,-2.5303,-2.5303,-2.5303,-2.5303,-2.5303,-2.5126,-2.4804,-2.4804,-2.4594,-2.419,-2.419,-2.419,-2.419,-2.419,-2.419,-2.419,-2.419,-2.419,-2.419,-2.419,-2.419,-2.419,-2.419,-2.3996,-2.3682,-2.3629,-2.3214,-2.2799,-2.334,-2.3241,-2.3207,-2.4678,-2.5101,-2.5338,-2.6404,-2.6691,-2.6894,-2.7623,-2.7806,-2.8129,-2.9333,-2.9333,-2.9272,-2.9962,-3.0421,-3.0825,-3.1157,-3.1523,-3.1805,-3.1805,-3.1321,-3.0896,-3.092,-2.9505,-2.8479,-2.8401,-2.8174,-2.7894,-2.7625,-2.7305,-2.6976,-2.6617,-2.6662,-2.6542,-2.6183,-2.6153,-2.6153,-2.6153,-2.5809,-2.5615,-2.5615,-2.5615,-2.5749,-2.6033,-2.5749,-2.5495,-2.5255,-2.4896,-2.4522,-2.4178,-2.4178,-2.3954,-2.3595,-2.3595,-2.3595,-2.3505,-2.2592,-2.1799,-2.106,-2.0309,-2.0,-1.9965]}]]